[[{"header":{"parameterUnit":"m.s-1","parameterCategory":1,"la1":31.0,"la2":29.5877,"lo1":-88.7671,"lo2":-86.6584,"dx":0.0162,"dy":0.0185,"nx":115,"ny":88,"refTime":"2022-11-04T18:00:00:Z","depth":0,"parameterNumber":2,"parameterNumberName":"U-component_of_WINDS"},"data":[0.0,0.0,0.0,0.0,0.0,0.0,0.0,0.0,0.0,0.0,0.0,0.0,0.0,0.0,0.0,0.0,0.0,0.0,0.0,0.0,0.0,0.0,0.0,0.0,0.0,0.0,0.0,0.0,0.0,0.0,0.0,0.0,0.0,0.0,0.0,0.0,0.0,0.0,0.0,0.0,0.0,0.0,0.0,0.0,0.0,0.0,0.0,0.0,0.0,0.0,0.0,0.0,0.0,0.0,0.0,0.0,0.0,0.0,0.0,0.0,0.0,0.0,0.0,0.0,0.0,0.0,0.0,0.0,0.0,0.0,0.0,0.0,0.0,0.0,0.0,0.0,0.0,0.0,0.0,0.0,0.0,0.0,0.0,0.0,0.0,0.0,0.0,0.0,0.0,0.0,0.0,0.0,0.0,0.0,0.0,0.0,0.0,0.0,0.0,0.0,0.0,0.0,0.0,0.0,0.0,0.0,0.0,0.0,0.0,0.0,0.0,0.0,0.0,0.0,0.0,0.0,0.0,0.0,0.0,0.0,0.0,0.0,0.0,0.0,0.0,0.0,0.0,0.0,0.0,0.0,0.0,0.0,0.0,0.0,0.0,0.0,0.0,0.0,0.0,0.0,0.0,0.0,0.0,0.0,0.0,0.0,0.0,0.0,0.0,0.0,0.0,0.0,0.0,0.0,0.0,0.0,0.0,0.0,0.0,0.0,0.0,0.0,0.0,0.0,0.0,0.0,0.0,0.0,0.0,0.0,0.0,0.0,0.0,0.0,0.0,0.0,0.0,0.0,0.0,0.0,0.0,0.0,0.0,0.0,0.0,0.0,0.0,0.0,0.0,0.0,0.0,0.0,0.0,0.0,0.0,0.0,0.0,0.0,0.0,0.0,0.0,0.0,0.0,0.0,0.0,0.0,0.0,0.0,0.0,0.0,0.0,0.0,0.0,0.0,0.0,0.0,0.0,0.0,0.0,0.0,0.0,0.0,0.0,0.0,0.0,0.0,0.0,0.0,0.0,0.0,0.0,0.0,0.0,0.0,0.0,0.0,0.0,0.0,0.0,0.0,0.0,0.0,0.0,0.0,0.0,0.0,0.0,0.0,0.0,0.0,0.0,0.0,0.0,0.0,0.0,0.0,0.0,0.0,0.0,0.0,0.0,0.0,0.0,0.0,0.0,0.0,0.0,0.0,0.0,0.0,0.0,0.0,0.0,0.0,0.0,0.0,0.0,0.0,0.0,0.0,0.0,0.0,0.0,0.0,0.0,0.0,0.0,0.0,0.0,0.0,0.0,0.0,0.0,0.0,0.0,0.0,0.0,0.0,0.0,0.0,0.0,0.0,0.0,0.0,0.0,0.0,0.0,0.0,0.0,0.0,0.0,0.0,0.0,0.0,0.0,0.0,0.0,0.0,0.0,0.0,0.0,0.0,0.0,0.0,0.0,0.0,0.0,0.0,0.0,0.0,0.0,0.0,0.0,0.0,0.0,0.0,0.0,0.0,0.0,0.0,0.0,0.0,0.0,0.0,0.0,0.0,0.0,0.0,0.0,0.0,0.0,0.0,0.0,0.0,0.0,0.0,0.0,0.0,0.0,0.0,0.0,0.0,0.0,0.0,0.0,0.0,0.0,0.0,0.0,0.0,0.0,0.0,0.0,0.0,0.0,0.0,0.0,0.0,0.0,0.0,0.0,0.0,0.0,0.0,0.0,0.0,0.0,0.0,0.0,0.0,0.0,0.0,0.0,0.0,0.0,0.0,0.0,0.0,0.0,0.0,0.0,0.0,0.0,0.0,0.0,0.0,0.0,0.0,0.0,0.0,0.0,0.0,0.0,0.0,0.0,0.0,0.0,0.0,0.0,0.0,0.0,0.0,0.0,0.0,0.0,0.0,0.0,0.0,0.0,0.0,0.0,0.0,0.0,0.0,0.0,0.0,0.0,0.0,0.0,0.0,0.0,0.0,0.0,0.0,0.0,0.0,0.0,0.0,0.0,0.0,0.0,0.0,0.0,0.0,0.0,0.0,0.0,0.0,0.0,0.0,0.0,0.0,0.0,0.0,0.0,0.0,0.0,0.0,0.0,0.0,0.0,0.0,0.0,0.0,0.0,0.0,0.0,0.0,0.0,0.0,0.0,0.0,0.0,0.0,0.0,0.0,0.0,0.0,0.0,0.0,0.0,0.0,0.0,0.0,0.0,0.0,0.0,0.0,0.0,0.0,0.0,0.0,0.0,0.0,0.0,0.0,0.0,0.0,0.0,0.0,0.0,0.0,0.0,0.0,0.0,0.0,0.0,0.0,0.0,0.0,0.0,0.0,0.0,0.0,0.0,0.0,0.0,0.0,0.0,0.0,0.0,0.0,0.0,0.0,0.0,0.0,0.0,0.0,0.0,0.0,0.0,0.0,0.0,0.0,0.0,0.0,0.0,0.0,0.0,0.0,0.0,0.0,0.0,0.0,0.0,0.0,0.0,0.0,0.0,0.0,0.0,0.0,0.0,0.0,0.0,0.0,0.0,0.0,0.0,0.0,0.0,0.0,0.0,0.0,0.0,0.0,0.0,0.0,0.0,0.0,0.0,0.0,0.0,0.0,0.0,0.0,0.0,0.0,0.0,0.0,0.0,0.0,0.0,0.0,0.0,0.0,0.0,0.0,0.0,0.0,0.0,0.0,0.0,0.0,0.0,0.0,0.0,0.0,0.0,0.0,0.0,0.0,0.0,0.0,0.0,0.0,0.0,0.0,0.0,0.0,0.0,0.0,0.0,0.0,0.0,0.0,0.0,0.0,0.0,0.0,0.0,0.0,0.0,0.0,0.0,0.0,0.0,0.0,0.0,0.0,0.0,0.0,0.0,0.0,0.0,0.0,0.0,0.0,0.0,0.0,0.0,0.0,0.0,0.0,0.0,0.0,0.0,0.0,0.0,0.0,0.0,0.0,0.0,0.0,0.0,0.0,0.0,0.0,0.0,0.0,0.0,0.0,0.0,0.0,0.0,0.0,0.0,0.0,0.0,0.0,0.0,0.0,0.0,0.0,0.0,0.0,0.0,0.0,0.0,0.0,0.0,0.0,0.0,0.0,0.0,0.0,0.0,0.0,0.0,0.0,0.0,0.0,0.0,0.0,0.0,0.0,0.0,0.0,0.0,0.0,0.0,0.0,0.0,0.0,0.0,0.0,0.0,0.0,0.0,0.0,0.0,0.0,0.0,0.0,0.0,0.0,0.0,0.0,0.0,0.0,0.0,0.0,0.0,0.0,0.0,0.0,0.0,0.0,0.0,0.0,0.0,0.0,0.0,0.0,0.0,0.0,0.0,0.0,0.0,0.0,0.0,0.0,0.0,0.0,0.0,0.0,0.0,0.0,0.0,0.0,0.0,0.0,0.0,0.0,0.0,0.0,0.0,0.0,0.0,0.0,0.0,0.0,0.0,0.0,0.0,0.0,0.0,0.0,0.0,0.0,0.0,0.0,0.0,0.0,0.0,0.0,0.0,0.0,0.0,0.0,0.0,0.0,0.0,0.0,0.0,0.0,0.0,0.0,0.0,0.0,0.0,0.0,0.0,0.0,0.0,0.0,0.0,0.0,0.0,0.0,0.0,0.0,0.0,0.0,0.0,0.0,0.0,0.0,0.0,0.0,0.0,0.0,0.0,0.0,0.0,0.0,0.0,0.0,0.0,0.0,0.0,0.0,0.0,0.0,0.0,0.0,0.0,0.0,0.0,0.0,0.0,0.0,0.0,0.0,0.0,0.0,0.0,0.0,0.0,0.0,0.0,0.0,0.0,0.0,0.0,0.0,0.0,0.0,0.0,0.0,0.0,0.0,0.0,0.0,0.0,0.0,0.0,0.0,0.0,0.0,0.0,0.0,0.0,0.0,0.0,0.0,0.0,0.0,0.0,0.0,0.0,0.0,0.0,0.0,0.0,0.0,0.0,0.0,0.0,0.0,0.0,0.0,0.0,0.0,0.0,0.0,0.0,0.0,0.0,0.0,0.0,0.0,0.0,0.0,0.0,0.0,0.0,0.0,0.0,0.0,0.0,0.0,0.0,0.0,0.0,0.0,0.0,0.0,0.0,0.0,0.0,0.0,0.0,0.0,0.0,0.0,0.0,0.0,0.0,0.0,0.0,0.0,0.0,0.0,0.0,0.0,0.0,0.0,0.0,0.0,0.0,0.0,0.0,0.0,0.0,0.0,0.0,0.0,0.0,0.0,0.0,0.0,0.0,0.0,0.0,0.0,0.0,0.0,0.0,0.0,0.0,0.0,2.6407,0.0,0.0,0.0,2.5965,0.0,0.0,0.0,0.0,0.0,0.0,0.0,0.0,0.0,0.0,0.0,0.0,0.0,0.0,0.0,0.0,0.0,0.0,0.0,0.0,0.0,0.0,0.0,0.0,0.0,0.0,0.0,0.0,0.0,0.0,0.0,0.0,0.0,0.0,0.0,0.0,0.0,0.0,0.0,0.0,0.0,0.0,0.0,0.0,0.0,0.0,0.0,0.0,0.0,0.0,0.0,0.0,0.0,0.0,0.0,0.0,0.0,0.0,0.0,0.0,0.0,0.0,0.0,0.0,0.0,0.0,0.0,0.0,0.0,0.0,0.0,0.0,0.0,0.0,0.0,0.0,0.0,0.0,0.0,0.0,0.0,0.0,0.0,0.0,0.0,0.0,0.0,0.0,0.0,0.0,0.0,0.0,0.0,0.0,0.0,0.0,0.0,0.0,0.0,0.0,0.0,0.0,0.0,0.0,0.0,0.0,0.0,0.0,0.0,0.0,2.687,2.6303,2.6572,2.6695,2.6707,0.0,0.0,0.0,0.0,0.0,0.0,0.0,0.0,0.0,0.0,0.0,0.0,0.0,0.0,0.0,0.0,0.0,0.0,0.0,0.0,0.0,0.0,0.0,0.0,0.0,0.0,0.0,0.0,0.0,0.0,0.0,0.0,0.0,0.0,0.0,0.0,0.0,0.0,0.0,0.0,0.0,0.0,0.0,0.0,0.0,0.0,0.0,0.0,0.0,0.0,0.0,0.0,0.0,0.0,0.0,0.0,0.0,0.0,0.0,0.0,0.0,0.0,0.0,0.0,0.0,0.0,0.0,0.0,0.0,0.0,0.0,0.0,0.0,0.0,0.0,0.0,0.0,0.0,0.0,0.0,0.0,0.0,0.0,0.0,0.0,0.0,0.0,0.0,0.0,0.0,0.0,0.0,0.0,0.0,0.0,0.0,0.0,0.0,0.0,0.0,0.0,0.0,0.0,0.0,0.0,0.0,0.0,0.0,0.0,0.0,0.0,0.0,2.6816,2.7071,2.7464,0.0,0.0,0.0,0.0,0.0,0.0,0.0,0.0,0.0,0.0,0.0,0.0,0.0,0.0,0.0,0.0,0.0,0.0,0.0,0.0,0.0,0.0,0.0,0.0,0.0,0.0,0.0,0.0,0.0,0.0,0.0,0.0,0.0,0.0,0.0,0.0,0.0,0.0,0.0,0.0,0.0,0.0,0.0,0.0,0.0,0.0,0.0,0.0,0.0,0.0,0.0,0.0,0.0,0.0,0.0,0.0,0.0,0.0,0.0,0.0,0.0,0.0,0.0,0.0,0.0,0.0,0.0,0.0,0.0,0.0,0.0,0.0,0.0,0.0,0.0,0.0,0.0,0.0,0.0,0.0,0.0,0.0,0.0,0.0,0.0,0.0,0.0,0.0,0.0,0.0,0.0,0.0,0.0,0.0,0.0,0.0,0.0,0.0,0.0,0.0,0.0,0.0,0.0,0.0,0.0,0.0,0.0,0.0,0.0,0.0,2.6729,2.6711,2.7175,0.0,2.749,0.0,0.0,0.0,0.0,0.0,0.0,0.0,0.0,0.0,0.0,0.0,0.0,0.0,0.0,0.0,0.0,0.0,0.0,0.0,0.0,0.0,0.0,0.0,0.0,0.0,0.0,0.0,0.0,0.0,0.0,0.0,0.0,0.0,0.0,0.0,0.0,0.0,0.0,0.0,0.0,0.0,0.0,0.0,0.0,0.0,0.0,0.0,0.0,0.0,0.0,0.0,0.0,0.0,0.0,0.0,0.0,0.0,0.0,0.0,0.0,0.0,0.0,0.0,0.0,0.0,0.0,0.0,0.0,0.0,0.0,0.0,0.0,0.0,0.0,0.0,0.0,0.0,0.0,0.0,0.0,0.0,0.0,0.0,0.0,0.0,0.0,0.0,0.0,0.0,0.0,0.0,0.0,0.0,0.0,0.0,0.0,0.0,0.0,0.0,0.0,0.0,0.0,0.0,0.0,0.0,0.0,0.0,0.0,0.0,0.0,2.7175,2.7175,2.7732,2.7698,0.0,0.0,0.0,0.0,0.0,0.0,0.0,0.0,0.0,0.0,0.0,0.0,0.0,0.0,0.0,0.0,0.0,0.0,0.0,0.0,0.0,0.0,0.0,0.0,0.0,0.0,0.0,0.0,0.0,0.0,0.0,0.0,0.0,0.0,0.0,0.0,0.0,0.0,0.0,0.0,0.0,0.0,0.0,0.0,0.0,0.0,0.0,0.0,0.0,0.0,0.0,0.0,0.0,0.0,0.0,0.0,0.0,0.0,0.0,0.0,0.0,0.0,0.0,0.0,0.0,0.0,0.0,0.0,0.0,0.0,0.0,0.0,0.0,0.0,0.0,0.0,0.0,0.0,0.0,0.0,0.0,0.0,0.0,0.0,0.0,0.0,0.0,0.0,0.0,0.0,0.0,0.0,0.0,0.0,0.0,0.0,0.0,0.0,0.0,0.0,0.0,0.0,0.0,0.0,0.0,0.0,0.0,0.0,0.0,0.0,2.7454,2.7898,2.8203,2.8333,2.8089,2.7435,0.0,0.0,0.0,0.0,0.0,0.0,0.0,0.0,0.0,0.0,0.0,0.0,0.0,0.0,0.0,0.0,0.0,0.0,0.0,0.0,0.0,0.0,0.0,0.0,0.0,0.0,0.0,0.0,0.0,0.0,0.0,0.0,0.0,0.0,0.0,0.0,0.0,0.0,0.0,0.0,0.0,0.0,0.0,0.0,0.0,0.0,0.0,0.0,0.0,0.0,0.0,0.0,0.0,0.0,0.0,0.0,0.0,0.0,0.0,0.0,0.0,0.0,0.0,0.0,0.0,0.0,0.0,0.0,0.0,0.0,0.0,0.0,0.0,0.0,0.0,0.0,0.0,0.0,0.0,0.0,0.0,0.0,0.0,0.0,0.0,0.0,0.0,0.0,0.0,0.0,0.0,0.0,0.0,0.0,0.0,0.0,0.0,0.0,0.0,0.0,0.0,0.0,0.0,0.0,0.0,0.0,0.0,0.0,2.7472,2.8054,2.8882,2.9865,2.8961,2.863,0.0,0.0,0.0,0.0,0.0,0.0,0.0,0.0,0.0,0.0,0.0,0.0,0.0,0.0,0.0,0.0,0.0,0.0,0.0,0.0,0.0,0.0,0.0,0.0,0.0,0.0,0.0,0.0,0.0,0.0,0.0,0.0,0.0,0.0,0.0,0.0,0.0,0.0,0.0,0.0,0.0,0.0,0.0,0.0,0.0,0.0,0.0,0.0,0.0,0.0,0.0,0.0,0.0,0.0,0.0,0.0,0.0,0.0,0.0,0.0,0.0,0.0,0.0,0.0,0.0,0.0,0.0,0.0,0.0,0.0,0.0,0.0,0.0,0.0,0.0,0.0,0.0,0.0,0.0,0.0,0.0,0.0,0.0,0.0,0.0,0.0,0.0,0.0,0.0,0.0,0.0,0.0,0.0,0.0,0.0,0.0,0.0,0.0,0.0,0.0,0.0,0.0,0.0,0.0,0.0,0.0,0.0,0.0,0.0,2.8098,2.9004,2.951,2.9588,2.9501,2.9248,0.0,0.0,0.0,0.0,0.0,0.0,0.0,0.0,0.0,0.0,0.0,0.0,0.0,0.0,0.0,0.0,0.0,0.0,0.0,0.0,0.0,0.0,0.0,0.0,0.0,0.0,0.0,0.0,0.0,0.0,0.0,0.0,0.0,0.0,0.0,0.0,0.0,0.0,0.0,0.0,0.0,0.0,0.0,0.0,0.0,0.0,0.0,0.0,0.0,0.0,0.0,0.0,0.0,0.0,0.0,0.0,0.0,0.0,0.0,0.0,0.0,0.0,0.0,0.0,0.0,0.0,0.0,0.0,0.0,0.0,0.0,0.0,0.0,0.0,0.0,0.0,0.0,0.0,0.0,0.0,0.0,0.0,0.0,0.0,0.0,0.0,0.0,0.0,0.0,0.0,0.0,0.0,0.0,0.0,0.0,0.0,0.0,0.0,0.0,0.0,0.0,0.0,0.0,0.0,0.0,0.0,0.0,0.0,0.0,2.8943,3.0057,3.0397,2.9885,3.0014,2.9744,0.0,0.0,0.0,0.0,0.0,0.0,0.0,0.0,0.0,0.0,0.0,0.0,0.0,0.0,0.0,0.0,0.0,0.0,0.0,0.0,0.0,0.0,0.0,0.0,0.0,0.0,0.0,0.0,0.0,0.0,0.0,0.0,0.0,0.0,0.0,0.0,0.0,0.0,0.0,0.0,0.0,0.0,0.0,0.0,0.0,0.0,0.0,0.0,0.0,0.0,0.0,0.0,0.0,0.0,0.0,0.0,0.0,0.0,0.0,0.0,0.0,0.0,0.0,0.0,0.0,0.0,0.0,0.0,0.0,0.0,0.0,0.0,0.0,0.0,0.0,0.0,0.0,0.0,0.0,0.0,0.0,0.0,0.0,0.0,0.0,0.0,0.0,0.0,0.0,0.0,0.0,0.0,0.0,0.0,0.0,0.0,0.0,0.0,0.0,0.0,0.0,0.0,0.0,0.0,0.0,0.0,0.0,0.0,2.9022,3.0048,3.1171,3.1477,3.1018,3.0432,3.01,0.0,0.0,0.0,0.0,0.0,0.0,0.0,0.0,0.0,0.0,0.0,0.0,0.0,0.0,0.0,0.0,0.0,0.0,0.0,0.0,0.0,0.0,0.0,0.0,0.0,0.0,0.0,0.0,0.0,0.0,0.0,0.0,0.0,0.0,0.0,0.0,0.0,0.0,0.0,0.0,0.0,0.0,0.0,0.0,0.0,0.0,0.0,0.0,0.0,0.0,0.0,0.0,0.0,0.0,0.0,0.0,0.0,0.0,0.0,0.0,0.0,0.0,0.0,0.0,0.0,0.0,0.0,0.0,0.0,0.0,0.0,0.0,0.0,0.0,0.0,0.0,0.0,0.0,0.0,0.0,0.0,0.0,0.0,0.0,0.0,0.0,0.0,0.0,0.0,0.0,0.0,0.0,0.0,0.0,0.0,0.0,0.0,0.0,0.0,0.0,0.0,0.0,0.0,0.0,0.0,0.0,0.0,0.0,0.0,3.0162,3.1223,3.1555,3.1009,3.0817,3.0546,0.0,0.0,0.0,0.0,0.0,0.0,0.0,0.0,0.0,0.0,0.0,0.0,0.0,0.0,0.0,0.0,0.0,0.0,0.0,0.0,0.0,0.0,0.0,0.0,0.0,0.0,0.0,0.0,0.0,0.0,0.0,0.0,0.0,0.0,0.0,0.0,0.0,0.0,0.0,0.0,0.0,0.0,0.0,0.0,0.0,0.0,0.0,0.0,0.0,0.0,0.0,0.0,0.0,0.0,0.0,0.0,0.0,0.0,0.0,0.0,0.0,0.0,0.0,0.0,0.0,0.0,0.0,0.0,0.0,0.0,0.0,0.0,0.0,0.0,0.0,0.0,0.0,0.0,0.0,0.0,0.0,0.0,0.0,0.0,0.0,0.0,0.0,0.0,0.0,0.0,0.0,0.0,0.0,0.0,0.0,0.0,0.0,0.0,0.0,0.0,0.0,0.0,0.0,0.0,0.0,0.0,0.0,0.0,0.0,3.1487,3.2104,3.2104,3.133,3.1304,3.1033,3.0458,0.0,0.0,0.0,0.0,0.0,0.0,0.0,0.0,0.0,0.0,0.0,0.0,0.0,0.0,0.0,0.0,0.0,0.0,0.0,0.0,0.0,0.0,0.0,0.0,0.0,0.0,0.0,0.0,0.0,0.0,0.0,0.0,0.0,0.0,0.0,0.0,0.0,0.0,0.0,0.0,0.0,0.0,0.0,0.0,0.0,0.0,0.0,0.0,0.0,0.0,0.0,0.0,0.0,0.0,0.0,0.0,0.0,0.0,0.0,0.0,0.0,0.0,0.0,0.0,0.0,0.0,0.0,0.0,0.0,0.0,0.0,0.0,0.0,0.0,0.0,0.0,0.0,0.0,0.0,0.0,0.0,0.0,0.0,0.0,0.0,0.0,0.0,0.0,0.0,0.0,0.0,0.0,0.0,0.0,0.0,0.0,0.0,0.0,0.0,0.0,0.0,0.0,0.0,0.0,0.0,0.0,0.0,0.0,3.365,3.3676,3.3107,3.1876,3.185,3.1617,0.0,0.0,0.0,0.0,0.0,0.0,0.0,0.0,0.0,0.0,0.0,0.0,0.0,0.0,0.0,0.0,0.0,0.0,0.0,0.0,0.0,0.0,0.0,0.0,0.0,0.0,0.0,0.0,0.0,0.0,0.0,0.0,0.0,0.0,0.0,0.0,0.0,0.0,0.0,0.0,0.0,0.0,0.0,0.0,0.0,0.0,0.0,0.0,0.0,0.0,0.0,0.0,0.0,0.0,0.0,0.0,0.0,0.0,0.0,0.0,0.0,0.0,0.0,0.0,0.0,0.0,0.0,0.0,0.0,0.0,0.0,0.0,0.0,0.0,0.0,0.0,0.0,0.0,0.0,0.0,0.0,0.0,0.0,0.0,0.0,0.0,0.0,0.0,0.0,0.0,0.0,0.0,0.0,0.0,0.0,0.0,0.0,0.0,0.0,0.0,0.0,0.0,0.0,0.0,0.0,0.0,0.0,0.0,0.0,3.4162,3.4633,3.4084,3.2542,3.2463,3.2202,0.0,0.0,0.0,0.0,0.0,0.0,0.0,0.0,0.0,0.0,0.0,0.0,0.0,0.0,0.0,0.0,0.0,0.0,0.0,0.0,0.0,0.0,0.0,0.0,0.0,0.0,0.0,0.0,0.0,0.0,0.0,0.0,0.0,0.0,0.0,0.0,0.0,0.0,0.0,0.0,0.0,0.0,0.0,0.0,0.0,0.0,0.0,0.0,0.0,0.0,0.0,0.0,0.0,0.0,0.0,0.0,0.0,0.0,0.0,0.0,0.0,0.0,0.0,0.0,0.0,0.0,0.0,0.0,0.0,0.0,0.0,0.0,0.0,0.0,0.0,0.0,0.0,0.0,0.0,0.0,0.0,0.0,0.0,0.0,0.0,0.0,0.0,0.0,0.0,0.0,0.0,0.0,0.0,0.0,0.0,0.0,0.0,0.0,0.0,0.0,0.0,0.0,0.0,0.0,0.0,0.0,0.0,0.0,3.4329,3.5103,3.5443,3.492,3.3456,3.3414,3.3038,0.0,0.0,0.0,0.0,0.0,0.0,0.0,0.0,0.0,0.0,0.0,0.0,0.0,0.0,0.0,0.0,0.0,0.0,0.0,0.0,0.0,0.0,0.0,0.0,0.0,0.0,0.0,0.0,0.0,0.0,0.0,0.0,0.0,0.0,0.0,0.0,0.0,0.0,0.0,0.0,0.0,0.0,0.0,0.0,0.0,0.0,0.0,0.0,0.0,0.0,0.0,0.0,0.0,0.0,0.0,0.0,0.0,0.0,0.0,0.0,0.0,0.0,0.0,0.0,0.0,0.0,0.0,0.0,0.0,0.0,0.0,0.0,0.0,0.0,0.0,0.0,0.0,0.0,0.0,0.0,0.0,0.0,0.0,0.0,0.0,0.0,0.0,0.0,0.0,0.0,0.0,0.0,0.0,0.0,0.0,0.0,0.0,0.0,0.0,0.0,0.0,0.0,0.0,0.0,0.0,0.0,0.0,0.0,3.5166,3.6175,3.6201,3.5626,3.4476,3.4512,3.4016,0.0,0.0,0.0,0.0,0.0,0.0,0.0,0.0,0.0,0.0,0.0,0.0,0.0,0.0,0.0,0.0,0.0,0.0,0.0,0.0,0.0,0.0,0.0,0.0,0.0,0.0,0.0,0.0,0.0,0.0,0.0,0.0,0.0,0.0,0.0,0.0,0.0,0.0,0.0,0.0,0.0,0.0,0.0,0.0,0.0,0.0,0.0,0.0,0.0,0.0,0.0,0.0,0.0,0.0,0.0,0.0,0.0,0.0,0.0,0.0,0.0,0.0,0.0,0.0,0.0,0.0,0.0,0.0,0.0,0.0,0.0,0.0,0.0,0.0,0.0,0.0,0.0,0.0,0.0,0.0,0.0,0.0,0.0,0.0,0.0,0.0,0.0,0.0,0.0,0.0,0.0,0.0,0.0,0.0,0.0,0.0,0.0,0.0,0.0,0.0,0.0,0.0,0.0,0.0,0.0,0.0,0.0,0.0,3.6567,3.6791,3.6802,3.6033,3.445,3.526,3.4999,0.0,0.0,0.0,0.0,0.0,0.0,0.0,0.0,0.0,0.0,0.0,0.0,0.0,0.0,0.0,0.0,0.0,0.0,0.0,0.0,0.0,0.0,0.0,0.0,0.0,0.0,0.0,0.0,0.0,0.0,0.0,0.0,0.0,0.0,0.0,0.0,0.0,0.0,0.0,0.0,0.0,0.0,0.0,0.0,0.0,0.0,0.0,0.0,3.5025,0.0,0.0,0.0,0.0,0.0,0.0,0.0,0.0,0.0,0.0,0.0,0.0,0.0,0.0,0.0,0.0,0.0,0.0,0.0,0.0,0.0,0.0,0.0,0.0,0.0,0.0,0.0,0.0,0.0,0.0,0.0,0.0,0.0,0.0,0.0,0.0,0.0,0.0,0.0,0.0,0.0,0.0,0.0,0.0,0.0,0.0,0.0,0.0,0.0,0.0,0.0,0.0,0.0,0.0,0.0,0.0,0.0,0.0,0.0,3.7429,3.7429,3.7653,3.6985,3.5328,3.6221,3.5898,0.0,0.0,0.0,0.0,0.0,0.0,0.0,0.0,0.0,0.0,0.0,0.0,0.0,0.0,0.0,0.0,0.0,0.0,0.0,0.0,0.0,0.0,0.0,0.0,0.0,0.0,0.0,0.0,0.0,0.0,0.0,0.0,0.0,0.0,0.0,0.0,0.0,0.0,0.0,0.0,0.0,0.0,0.0,0.0,0.0,0.0,0.0,0.0,0.0,0.0,0.0,0.0,0.0,0.0,0.0,0.0,0.0,0.0,0.0,0.0,0.0,0.0,0.0,0.0,0.0,0.0,0.0,0.0,0.0,0.0,0.0,0.0,0.0,0.0,0.0,0.0,0.0,0.0,0.0,0.0,0.0,0.0,0.0,0.0,0.0,0.0,0.0,0.0,0.0,0.0,0.0,0.0,0.0,0.0,0.0,0.0,0.0,0.0,0.0,0.0,0.0,0.0,0.0,0.0,0.0,0.0,0.0,3.7549,3.8161,3.8187,3.8516,3.7929,3.6381,3.7124,3.6645,3.4716,0.0,0.0,0.0,0.0,0.0,0.0,0.0,0.0,0.0,0.0,0.0,0.0,0.0,0.0,0.0,0.0,0.0,0.0,0.0,0.0,0.0,0.0,0.0,0.0,0.0,0.0,0.0,0.0,0.0,0.0,0.0,0.0,0.0,0.0,0.0,0.0,0.0,0.0,3.378,3.3728,0.0,0.0,0.0,0.0,0.0,0.0,0.0,0.0,3.5208,0.0,0.0,0.0,0.0,0.0,0.0,0.0,0.0,0.0,0.0,0.0,0.0,0.0,0.0,0.0,0.0,0.0,0.0,0.0,0.0,0.0,0.0,0.0,0.0,0.0,0.0,0.0,0.0,0.0,0.0,0.0,0.0,0.0,0.0,0.0,0.0,0.0,0.0,0.0,0.0,0.0,0.0,0.0,0.0,0.0,0.0,0.0,0.0,0.0,0.0,0.0,0.0,0.0,0.0,0.0,0.0,3.7575,3.8725,3.9326,3.9299,3.8919,3.8228,3.7315,3.7635,3.7088,3.559,0.0,0.0,0.0,0.0,0.0,0.0,0.0,0.0,0.0,0.0,0.0,0.0,0.0,0.0,0.0,0.0,0.0,0.0,0.0,0.0,0.0,0.0,0.0,0.0,0.0,0.0,0.0,0.0,0.0,0.0,0.0,0.0,0.0,0.0,0.0,0.0,0.0,0.0,0.0,3.4267,3.4293,0.0,0.0,0.0,0.0,0.0,0.0,0.0,0.0,3.5182,0.0,0.0,0.0,0.0,0.0,0.0,0.0,0.0,0.0,0.0,0.0,0.0,0.0,0.0,0.0,0.0,0.0,0.0,0.0,0.0,0.0,0.0,0.0,0.0,0.0,0.0,0.0,0.0,0.0,0.0,0.0,0.0,0.0,0.0,0.0,0.0,0.0,0.0,0.0,0.0,0.0,0.0,0.0,0.0,0.0,0.0,0.0,0.0,0.0,0.0,0.0,0.0,0.0,0.0,0.0,3.7874,3.9299,4.0005,4.0005,3.9325,3.8763,3.8373,3.7971,3.7219,0.0,0.0,0.0,0.0,0.0,0.0,0.0,0.0,0.0,0.0,0.0,0.0,0.0,0.0,0.0,0.0,0.0,0.0,0.0,0.0,0.0,0.0,0.0,0.0,0.0,0.0,0.0,0.0,0.0,0.0,0.0,0.0,0.0,0.0,0.0,0.0,0.0,0.0,0.0,0.0,3.4878,3.5218,3.6107,0.0,0.0,0.0,0.0,0.0,0.0,3.6739,3.629,0.0,0.0,0.0,0.0,0.0,0.0,0.0,0.0,0.0,0.0,0.0,0.0,0.0,0.0,0.0,0.0,0.0,0.0,0.0,0.0,0.0,0.0,0.0,0.0,0.0,0.0,0.0,0.0,0.0,0.0,0.0,0.0,0.0,0.0,0.0,0.0,0.0,0.0,0.0,0.0,0.0,0.0,0.0,0.0,0.0,0.0,0.0,0.0,0.0,0.0,0.0,0.0,0.0,0.0,0.0,3.7888,3.9617,4.0506,4.0468,3.9867,3.9513,3.9366,3.8486,3.7498,0.0,0.0,0.0,0.0,0.0,0.0,0.0,0.0,0.0,0.0,0.0,0.0,0.0,0.0,0.0,0.0,0.0,0.0,0.0,0.0,0.0,0.0,0.0,0.0,0.0,0.0,0.0,0.0,0.0,0.0,0.0,0.0,0.0,0.0,0.0,0.0,0.0,0.0,0.0,0.0,0.0,3.6149,3.7534,3.8019,0.0,0.0,0.0,0.0,3.8646,3.7941,0.0,0.0,0.0,0.0,0.0,0.0,0.0,0.0,0.0,0.0,0.0,0.0,0.0,0.0,0.0,0.0,0.0,0.0,0.0,0.0,0.0,0.0,0.0,0.0,0.0,0.0,0.0,0.0,0.0,0.0,0.0,0.0,0.0,0.0,0.0,0.0,0.0,0.0,0.0,0.0,0.0,0.0,0.0,0.0,0.0,0.0,0.0,0.0,0.0,0.0,0.0,0.0,0.0,0.0,0.0,0.0,3.7892,3.985,4.0843,4.0843,4.074,4.0475,4.002,3.9585,3.8514,0.0,0.0,0.0,0.0,0.0,0.0,0.0,0.0,0.0,0.0,0.0,0.0,0.0,0.0,0.0,0.0,0.0,0.0,0.0,0.0,0.0,0.0,0.0,0.0,0.0,0.0,0.0,0.0,0.0,0.0,0.0,0.0,0.0,0.0,0.0,0.0,0.0,0.0,0.0,0.0,0.0,3.6881,3.709,3.8411,3.9259,0.0,0.0,3.9233,3.8777,3.8594,0.0,0.0,0.0,0.0,0.0,0.0,0.0,0.0,0.0,0.0,0.0,0.0,0.0,0.0,0.0,0.0,0.0,0.0,0.0,0.0,0.0,0.0,0.0,0.0,0.0,0.0,0.0,0.0,0.0,0.0,0.0,0.0,0.0,0.0,0.0,0.0,0.0,0.0,0.0,0.0,0.0,0.0,0.0,0.0,0.0,0.0,0.0,0.0,0.0,0.0,0.0,0.0,0.0,0.0,0.0,3.6782,3.7929,4.0203,4.1245,4.0934,4.1079,4.0965,4.0578,3.9969,3.912,0.0,0.0,0.0,0.0,0.0,0.0,0.0,0.0,0.0,0.0,0.0,0.0,0.0,0.0,0.0,0.0,0.0,0.0,0.0,0.0,0.0,0.0,0.0,0.0,0.0,0.0,0.0,0.0,0.0,0.0,0.0,0.0,0.0,0.0,0.0,0.0,0.0,0.0,0.0,0.0,0.0,0.0,3.978,4.0578,0.0,0.0,0.0,4.0463,4.0214,0.0,0.0,0.0,0.0,0.0,0.0,0.0,0.0,0.0,0.0,0.0,0.0,0.0,0.0,0.0,0.0,0.0,0.0,0.0,0.0,0.0,0.0,0.0,0.0,0.0,0.0,0.0,0.0,0.0,0.0,0.0,0.0,0.0,0.0,0.0,0.0,0.0,0.0,0.0,0.0,0.0,0.0,0.0,0.0,0.0,0.0,0.0,0.0,0.0,0.0,0.0,0.0,0.0,0.0,0.0,0.0,0.0,3.8216,4.0574,4.157,4.1132,4.1491,4.1486,4.1005,4.0416,0.0,0.0,0.0,0.0,0.0,0.0,0.0,0.0,0.0,0.0,0.0,0.0,0.0,0.0,0.0,0.0,0.0,0.0,0.0,0.0,0.0,0.0,0.0,0.0,0.0,0.0,0.0,3.2444,0.0,0.0,0.0,0.0,0.0,0.0,0.0,0.0,0.0,0.0,0.0,0.0,0.0,0.0,4.0043,4.1924,4.2434,4.2866,0.0,0.0,4.173,4.173,4.1024,4.0449,0.0,0.0,0.0,0.0,0.0,0.0,0.0,0.0,0.0,0.0,0.0,0.0,0.0,0.0,0.0,0.0,0.0,0.0,0.0,0.0,0.0,0.0,0.0,0.0,0.0,0.0,0.0,0.0,0.0,0.0,0.0,0.0,0.0,0.0,0.0,0.0,0.0,0.0,0.0,0.0,0.0,0.0,0.0,0.0,0.0,0.0,0.0,0.0,0.0,0.0,0.0,0.0,0.0,0.0,0.0,3.9062,4.0849,4.1748,4.167,4.2216,4.2118,4.1304,4.124,4.0474,0.0,0.0,0.0,0.0,0.0,0.0,0.0,0.0,0.0,0.0,0.0,0.0,0.0,0.0,0.0,0.0,0.0,0.0,0.0,0.0,0.0,0.0,0.0,0.0,0.0,0.0,0.0,0.0,0.0,0.0,0.0,0.0,0.0,0.0,0.0,0.0,0.0,0.0,0.0,0.0,0.0,4.1402,4.2107,4.3101,4.3624,0.0,0.0,4.2905,4.2866,4.2827,4.2762,4.2775,0.0,0.0,0.0,0.0,0.0,0.0,0.0,0.0,0.0,0.0,0.0,0.0,0.0,0.0,0.0,0.0,0.0,0.0,0.0,0.0,0.0,0.0,0.0,0.0,0.0,0.0,0.0,0.0,0.0,0.0,0.0,0.0,0.0,0.0,0.0,0.0,0.0,0.0,0.0,0.0,0.0,0.0,0.0,0.0,0.0,0.0,0.0,0.0,0.0,0.0,0.0,0.0,0.0,3.8236,3.8923,4.0823,4.1771,4.1731,4.262,4.2686,4.187,4.187,4.1582,0.0,0.0,0.0,0.0,0.0,0.0,0.0,0.0,0.0,0.0,0.0,0.0,0.0,0.0,0.0,0.0,0.0,0.0,0.0,0.0,0.0,0.0,0.0,0.0,0.0,0.0,0.0,0.0,3.5338,3.5417,3.5312,0.0,0.0,0.0,0.0,0.0,0.0,0.0,0.0,0.0,0.0,4.2199,4.3114,4.3624,0.0,0.0,4.3454,4.3114,4.3493,4.2957,4.2644,4.2958,4.2435,0.0,0.0,0.0,0.0,0.0,0.0,0.0,0.0,0.0,0.0,0.0,0.0,0.0,0.0,0.0,0.0,0.0,0.0,0.0,0.0,0.0,0.0,0.0,0.0,0.0,0.0,0.0,0.0,0.0,0.0,0.0,0.0,0.0,0.0,0.0,0.0,0.0,0.0,0.0,0.0,0.0,0.0,0.0,0.0,0.0,0.0,0.0,0.0,0.0,0.0,0.0,0.0,3.859,3.9177,4.1162,4.2143,4.2116,4.304,4.326,4.2701,4.2526,4.245,0.0,0.0,0.0,0.0,0.0,0.0,0.0,0.0,0.0,0.0,0.0,0.0,0.0,0.0,0.0,0.0,0.0,0.0,0.0,0.0,0.0,0.0,0.0,0.0,0.0,0.0,0.0,0.0,3.5746,3.5872,3.5809,0.0,0.0,0.0,0.0,0.0,0.0,0.0,0.0,0.0,0.0,4.3297,4.4265,4.4408,4.4552,4.4904,4.4303,4.3924,4.433,4.3886,4.3663,4.4198,0.0,0.0,0.0,0.0,0.0,0.0,0.0,0.0,0.0,0.0,0.0,0.0,0.0,0.0,0.0,0.0,0.0,0.0,0.0,0.0,0.0,0.0,0.0,0.0,0.0,0.0,0.0,0.0,0.0,0.0,3.0153,0.0,0.0,0.0,0.0,0.0,0.0,0.0,0.0,0.0,0.0,0.0,0.0,0.0,0.0,0.0,0.0,0.0,0.0,0.0,0.0,0.0,0.0,3.9462,4.0096,4.1969,4.2953,4.2978,4.3503,4.3754,4.3714,4.3251,4.2989,4.2964,0.0,0.0,0.0,0.0,0.0,0.0,0.0,0.0,0.0,0.0,0.0,0.0,0.0,0.0,0.0,0.0,0.0,0.0,0.0,0.0,0.0,0.0,0.0,0.0,0.0,0.0,3.4633,3.4999,3.5809,0.0,0.0,0.0,0.0,0.0,0.0,0.0,0.0,0.0,0.0,4.467,4.4878,4.5452,4.5557,4.5543,4.5583,4.5557,4.5557,4.5531,4.6003,4.6592,0.0,0.0,0.0,0.0,0.0,0.0,0.0,0.0,0.0,0.0,0.0,0.0,0.0,0.0,0.0,0.0,0.0,0.0,0.0,0.0,0.0,0.0,0.0,0.0,0.0,0.0,0.0,3.3639,3.3326,0.0,0.0,0.0,0.0,0.0,0.0,0.0,0.0,0.0,0.0,0.0,3.8321,3.898,0.0,0.0,0.0,0.0,0.0,0.0,0.0,0.0,0.0,0.0,0.0,0.0,4.0523,4.0933,4.2274,4.3176,4.3528,4.3714,4.379,4.379,4.3614,4.3377,4.3014,0.0,0.0,0.0,0.0,0.0,0.0,0.0,0.0,0.0,0.0,0.0,0.0,0.0,0.0,0.0,0.0,0.0,0.0,0.0,0.0,0.0,0.0,0.0,0.0,0.0,3.6216,0.0,0.0,0.0,0.0,0.0,0.0,0.0,0.0,0.0,0.0,0.0,4.369,4.467,4.5236,4.5713,4.6131,4.6003,4.5877,0.0,0.0,0.0,0.0,0.0,0.0,0.0,0.0,0.0,0.0,0.0,0.0,0.0,0.0,4.6067,4.493,4.4891,4.4956,4.4761,0.0,0.0,0.0,0.0,0.0,0.0,0.0,0.0,0.0,0.0,0.0,0.0,0.0,0.0,3.5992,0.0,3.6175,0.0,0.0,0.0,0.0,0.0,0.0,0.0,0.0,3.9389,4.0223,4.0351,4.0809,4.0948,0.0,4.0071,3.9279,0.0,0.0,0.0,0.0,0.0,0.0,0.0,0.0,4.1149,4.1352,4.2772,4.3614,4.3801,4.4192,4.4392,4.4392,4.4407,4.4041,4.3316,4.2019,4.0963,0.0,0.0,0.0,0.0,0.0,0.0,0.0,0.0,0.0,0.0,0.0,0.0,0.0,0.0,0.0,0.0,0.0,0.0,0.0,0.0,0.0,0.0,0.0,3.7999,0.0,0.0,0.0,0.0,0.0,0.0,0.0,0.0,0.0,4.1838,4.3426,4.4806,4.5294,4.5922,4.636,4.646,0.0,0.0,0.0,0.0,0.0,0.0,0.0,4.6889,4.6762,4.6734,4.6748,4.6734,4.7031,4.7247,4.7189,0.0,0.0,4.651,4.6441,4.6433,4.6236,4.634,4.6433,4.6236,4.7098,4.7818,0.0,0.0,0.0,0.0,0.0,0.0,0.0,0.0,3.8031,3.8019,0.0,3.7485,0.0,0.0,0.0,0.0,0.0,3.8937,0.0,0.0,4.1851,4.264,4.3314,4.2663,4.2601,4.3014,4.2229,4.1819,4.1717,4.044,0.0,0.0,0.0,0.0,0.0,0.0,4.1378,4.1515,4.351,4.4353,4.394,4.492,4.5487,4.5487,4.5487,4.4959,4.3865,4.2281,4.1378,4.1275,3.8843,0.0,0.0,0.0,0.0,0.0,0.0,0.0,0.0,0.0,0.0,0.0,0.0,0.0,0.0,0.0,0.0,0.0,0.0,0.0,0.0,3.9074,0.0,0.0,0.0,0.0,0.0,0.0,0.0,0.0,0.0,0.0,4.4372,4.4375,4.4886,4.6238,0.0,0.0,0.0,0.0,4.6524,4.6854,4.6912,4.6912,4.6898,4.7326,4.756,4.7239,0.0,0.0,4.7205,4.7246,4.7386,4.7667,4.7515,4.736,4.7667,4.7872,4.7934,4.7435,4.7751,4.7989,4.762,4.8288,4.9076,3.896,0.0,0.0,0.0,0.0,3.8411,3.9024,3.9744,4.0604,4.0723,4.0359,4.0812,0.0,0.0,0.0,0.0,0.0,0.0,4.0657,4.1609,4.2158,4.3069,4.4256,4.4461,4.4834,4.5321,4.4705,4.4421,4.4357,4.3582,4.2655,4.1655,0.0,0.0,0.0,0.0,4.2886,4.3636,4.4288,4.4729,4.4995,4.5336,4.5512,4.5512,4.5512,4.5361,4.501,4.3765,4.2735,4.1945,4.1193,0.0,0.0,0.0,0.0,0.0,0.0,0.0,0.0,0.0,0.0,0.0,0.0,0.0,0.0,0.0,0.0,0.0,0.0,0.0,3.9531,4.1296,4.2487,0.0,0.0,0.0,0.0,0.0,0.0,0.0,0.0,0.0,4.5438,4.5972,4.6442,0.0,0.0,4.6952,4.7254,4.6956,4.6701,4.6804,4.6986,0.0,0.0,4.7114,4.7309,4.722,4.7564,4.7835,4.7835,4.8154,4.8375,4.8227,4.8314,4.839,4.8217,4.7983,4.7936,4.8106,4.8518,4.8904,4.9139,4.9468,4.9677,4.2043,4.152,4.015,3.9796,4.0095,4.0474,4.1193,4.2174,4.2905,4.2945,4.2515,4.2773,4.2138,4.0849,4.1003,0.0,0.0,0.0,4.2192,4.3198,4.3285,4.4018,4.5231,4.5422,4.5773,4.625,4.5615,4.5364,4.5487,4.4781,4.4107,4.3485,0.0,0.0,4.3552,4.3624,4.3966,4.4564,4.483,4.5146,4.5512,4.5713,4.5839,4.5824,4.6024,4.6024,4.5824,4.5171,4.4392,4.3542,4.309,4.2423,0.0,0.0,0.0,0.0,0.0,0.0,0.0,0.0,0.0,0.0,0.0,3.6705,3.7168,0.0,0.0,0.0,4.0849,4.1286,4.1723,4.3352,0.0,0.0,0.0,0.0,0.0,0.0,0.0,4.5288,4.5487,4.5626,4.5752,4.6396,4.6792,4.6663,4.6726,4.6895,4.7112,0.0,4.6732,4.7055,4.725,4.7386,4.742,4.7566,4.7631,4.748,4.776,4.8004,4.8014,4.8293,4.8466,4.842,4.8476,4.8542,4.8693,4.8483,4.8392,4.8601,4.8834,4.9185,4.9618,4.9776,4.9943,4.4343,4.4485,4.1392,4.1012,4.2343,4.2357,4.3219,4.4627,4.4732,4.4622,4.4297,4.3804,4.3178,4.2447,4.1935,0.0,4.278,4.3312,4.4258,4.5487,4.493,4.5282,4.6311,4.5874,4.5899,4.6401,4.5571,4.5319,4.5602,4.4774,4.4749,4.5462,4.498,4.4478,4.4041,4.4403,4.464,4.4754,4.5246,4.5537,4.5562,4.605,4.6311,4.6286,4.6772,4.6813,4.6401,4.6311,4.6125,4.5688,4.4568,4.3754,4.3327,0.0,0.0,0.0,0.0,0.0,0.0,0.0,0.0,0.0,0.0,0.0,0.0,0.0,0.0,0.0,4.2598,0.0,4.394,4.516,0.0,0.0,0.0,4.6364,4.6375,4.6101,4.5682,4.524,0.0,0.0,4.5713,4.61,4.6426,4.6436,4.6657,4.6747,4.6487,4.6522,4.6708,4.7476,4.7613,4.78,4.8149,4.8241,4.8148,4.79,4.7933,4.8014,4.8039,4.8165,4.8259,4.8568,4.8362,4.8463,4.9242,4.9473,4.9365,4.9188,4.9184,4.923,4.9636,4.995,5.0321,4.5538,4.4989,4.4628,4.4213,4.3812,4.3786,4.3897,4.4131,4.453,4.4694,4.4647,4.5113,4.5414,4.5592,4.5247,4.5121,4.5114,4.5023,4.5169,4.5487,4.5361,4.5874,4.6873,4.6772,4.6998,4.7456,4.6914,4.6647,4.6687,4.6094,4.5707,4.5537,4.5759,4.5834,4.5698,4.498,4.5031,4.5884,4.5638,4.5698,4.6085,4.6235,4.6311,4.6311,4.6436,4.6637,4.6873,4.6496,4.6627,4.7255,4.5899,4.5407,4.607,4.4665,0.0,0.0,0.0,0.0,0.0,0.0,0.0,0.0,0.0,4.0466,4.0657,0.0,4.395,0.0,4.5701,4.591,4.5191,4.5966,0.0,0.0,4.5987,4.6081,4.6289,4.5886,4.5716,4.5978,4.6542,4.6873,4.6722,4.7189,4.7531,4.7506,4.7225,4.7232,4.7763,4.767,4.7597,4.7775,4.7831,4.7866,4.8057,4.8017,4.8051,4.7923,4.8284,4.8576,4.8601,4.9273,4.9832,4.9963,5.0258,5.0543,5.0734,5.0801,5.0784,5.0731,5.0791,5.0829,5.0908,5.1322,5.1748,4.5743,4.5302,4.5639,4.5351,4.4685,4.5068,4.5311,4.5386,4.5665,4.5746,4.5628,4.5678,4.5733,4.578,4.5883,4.5863,4.5733,4.5823,4.5974,4.6185,4.5974,4.6286,4.7074,4.6848,4.6913,4.7179,4.6873,4.6763,4.6737,4.6436,4.6135,4.5874,4.6175,4.6311,4.6261,4.5658,4.5683,4.6286,4.5999,4.5999,4.6286,4.6311,4.6537,4.7004,4.7029,4.739,4.8193,4.7722,4.7697,4.8234,4.7446,4.7004,4.7099,4.6461,4.6235,0.0,0.0,0.0,0.0,0.0,0.0,0.0,0.0,0.0,0.0,0.0,4.5412,4.5889,4.6436,4.6396,4.5588,4.6155,4.6455,4.6127,4.6289,4.6491,4.6637,4.6602,4.6677,4.6988,4.729,4.7465,4.745,4.7716,4.8008,4.8275,4.8058,4.792,4.811,4.8017,4.8008,4.8234,4.83,4.8485,4.8937,4.8997,4.9113,4.9389,4.9681,4.9907,4.9907,5.0368,5.0795,5.082,5.1088,5.1289,5.1289,5.1289,5.1289,5.1339,5.1521,5.1666,5.1592,5.174,5.1919,4.5687,4.5658,4.5658,4.5511,4.5331,4.6061,4.6586,4.6882,4.6959,4.6923,4.6792,4.6018,4.5432,4.5056,4.5573,4.5748,4.5723,4.62,4.6612,4.6948,4.6512,4.6537,4.6973,4.6537,4.6311,4.6311,4.6311,4.6311,4.6311,4.6311,4.6311,4.6311,4.6311,4.6311,4.6311,4.6311,4.6311,4.6311,4.6361,4.6411,4.6411,4.6426,4.6863,4.7741,4.7792,4.8309,4.9314,4.9003,4.8843,4.8894,4.8818,4.835,4.739,4.7767,4.7792,0.0,4.6441,0.0,0.0,0.0,0.0,0.0,0.0,0.0,0.0,4.62,4.625,4.5663,4.615,4.6286,4.5748,4.62,4.6486,4.6512,4.6898,4.7199,4.7224,4.7616,4.7908,4.7908,4.7958,4.8008,4.8033,4.8109,4.846,4.8953,4.9145,4.9028,4.8526,4.8385,4.8535,4.8928,4.9053,4.9531,5.0201,5.0452,5.0619,5.1113,5.1163,5.1289,5.1214,5.1314,5.1389,5.1414,5.1515,5.159,5.159,5.1666,5.1691,5.1867,5.2252,5.2354,5.1958,5.1866,5.1808,4.6751,4.655,4.655,4.6372,4.6074,4.6249,4.5861,4.513,4.5614,4.626,4.7015,4.6878,4.6988,4.7265,4.7405,4.7205,4.6813,4.6898,4.6772,4.6451,4.6336,4.6361,4.6436,4.6336,4.6311,4.6311,4.6311,4.6311,4.6311,4.6311,4.6311,4.6311,4.6311,4.6311,4.6311,0.0,0.0,0.0,4.6737,4.6948,4.6963,4.6948,4.7048,4.7249,4.7249,0.0,4.8168,4.8601,4.8978,4.9389,4.9028,0.0,0.0,0.0,0.0,0.0,0.0,0.0,0.0,0.0,0.0,0.0,4.6687,4.6562,4.6772,4.729,4.7205,4.6301,4.7029,4.738,4.6863,4.729,4.7591,4.7616,4.7691,4.7741,4.7741,4.7857,4.7908,4.7908,4.8325,4.8626,4.8702,4.9364,4.9925,5.0067,5.0535,5.0778,5.0611,5.0142,4.995,5.0101,5.041,5.0837,5.1088,5.1138,5.1163,5.1289,5.1289,5.1339,5.1414,5.1724,5.1975,5.2,5.2327,5.2754,5.313,5.3248,5.3323,5.3851,5.4002,5.3692,5.2361,5.2705,5.329,4.6665,0.0,4.6566,4.6436,0.0,4.6311,4.5984,4.5457,4.5773,4.6185,4.6697,4.6712,4.6848,4.7114,4.7114,4.6979,4.6712,4.6712,4.6562,4.6311,4.6311,4.6311,4.6311,4.6587,4.6697,4.6697,4.6963,4.7104,4.7089,4.7104,4.7064,4.7104,4.7089,4.7089,4.7089,4.7089,4.6838,4.6311,4.6562,4.6712,4.6697,4.6712,4.6948,4.745,0.0,0.0,0.0,0.0,0.0,0.0,0.0,0.0,0.0,0.0,0.0,4.8818,4.8818,4.8677,4.8375,4.8058,4.7908,4.7908,4.8184,4.7992,4.7174,4.7591,4.7682,4.7179,4.7606,4.7792,4.7541,4.7741,4.7908,4.7933,4.8174,4.8435,4.8695,4.8987,4.9248,4.9556,4.9832,5.0033,5.0033,5.0444,5.082,5.0845,5.1113,5.1314,5.1289,5.1046,5.0845,5.0845,5.1063,5.1389,5.1624,5.1699,5.1825,5.2,5.2101,5.2201,5.2427,5.2703,5.2962,5.3256,5.3557,5.3833,5.4034,5.4152,5.4228,5.4522,5.4597,5.4378,5.3499,5.3775,5.4152,4.6311,4.6311,4.6311,4.6311,4.6311,4.6311,4.6311,4.6311,0.0,0.0,0.0,4.6311,4.6311,4.6311,4.6311,4.6311,4.6311,4.6371,4.6436,4.6461,4.6552,4.6602,4.6612,4.7039,4.7265,4.7265,4.7691,4.7908,4.7908,4.7908,4.7908,4.7908,4.7908,4.7908,4.7908,4.7908,4.7481,4.6637,4.6702,4.6753,4.6728,4.6753,4.7139,4.8033,4.7541,4.7691,4.8601,4.8159,4.7942,4.8058,4.8526,4.8626,4.8243,4.9088,4.9389,4.8978,4.8969,4.8702,4.8234,4.8193,4.8159,4.8058,4.8912,4.8887,4.7475,4.7817,4.8008,4.7908,4.8008,4.8109,4.8168,4.8309,4.8385,4.8485,4.8928,4.9446,4.9841,5.0293,5.0695,5.1188,5.1214,5.1289,5.1214,5.1339,5.1423,5.1465,5.159,5.1624,5.1666,5.1574,5.149,5.1615,5.1699,5.1825,5.2226,5.2427,5.2586,5.3088,5.3213,5.3364,5.3733,5.3858,5.4052,5.4353,5.4597,5.4622,5.4723,5.473,5.4798,5.4873,5.4898,5.4898,5.4898,5.4956,5.4981,4.6311,4.6311,4.6311,4.6311,4.6311,4.6311,4.6311,4.6311,4.6311,4.6311,4.6311,4.6311,4.6311,4.6311,4.6311,4.6311,4.6336,4.6788,4.6998,4.7023,4.7465,4.7682,4.7691,4.7741,4.7767,4.7792,4.7867,4.7908,4.7908,4.7933,4.7908,4.7933,4.7908,4.7933,4.7908,4.7908,4.7817,4.7666,4.82,4.8426,4.8426,4.8426,4.8501,4.8642,4.8083,4.7857,4.8008,4.7958,4.8134,4.8626,4.8727,4.8953,4.9339,4.9506,4.9565,4.9506,4.948,4.9455,4.9364,4.938,4.9154,4.8743,4.8802,4.8802,4.8601,4.8626,4.8451,4.8008,4.8426,4.8878,4.9314,4.9766,5.0151,5.0645,5.0862,5.0962,5.1013,5.1113,5.1239,5.1364,5.1289,5.1364,5.1465,5.1766,5.2051,5.2076,5.2452,5.2812,5.303,5.2578,5.226,5.2561,5.2686,5.2887,5.3281,5.3482,5.3658,5.4253,5.4278,5.4253,5.4446,5.4471,5.4547,5.4622,5.4723,5.4856,5.5207,5.5308,5.5534,5.5842,5.5993,5.5968,5.5993,5.6294,5.6301,4.6311,4.6311,4.6311,4.6311,4.6311,4.6612,4.6888,4.7179,4.7164,4.6813,4.6336,4.6612,4.6722,4.6763,4.7039,4.7164,4.7164,4.744,4.7541,4.7566,4.7792,4.7908,4.7933,4.8234,4.84,4.84,4.8686,4.8837,4.8812,4.8837,4.8837,4.8812,4.8812,4.8837,4.8812,4.8812,4.8812,4.8812,4.8485,4.8325,4.8284,4.8325,4.8325,4.8325,4.8033,4.7908,4.7908,4.7908,4.8033,4.8284,4.8284,4.841,4.8661,4.8978,4.9154,4.9179,4.9439,4.9464,4.9195,4.9455,4.9506,4.928,4.9807,5.0175,5.0134,4.9581,4.9254,4.9273,4.9832,5.0234,5.051,5.0745,5.0996,5.1289,5.1289,5.1414,5.1674,5.1724,5.185,5.2126,5.2159,5.2277,5.257,5.2804,5.3105,5.3399,5.37,5.3926,5.4152,5.3801,5.3524,5.3775,5.3808,5.3909,5.4152,5.4177,5.4321,5.4572,5.4597,5.4723,5.4931,5.5031,5.5157,5.5408,5.5465,5.5691,5.615,5.6276,5.6527,5.6972,5.7104,5.7123,5.7173,5.733,5.7273,4.6677,4.6662,4.6662,4.6662,4.6702,4.7099,4.75,4.7908,4.7908,4.7415,4.6788,4.7099,4.7274,4.7324,4.7732,4.7908,4.7933,4.8058,4.8093,4.8109,4.8234,4.8284,4.8335,4.8777,4.8978,4.9003,4.9389,4.959,4.959,4.959,4.9665,4.9791,4.9933,5.0008,4.9967,4.9983,4.9983,4.9933,4.9113,4.8535,4.8269,4.8284,4.8284,4.8269,4.8159,4.8109,4.8109,4.7983,4.7983,4.8083,4.8109,4.8159,4.8269,4.8727,4.9028,4.9179,4.9556,4.9665,4.9421,4.9757,4.9983,5.0008,5.0787,5.1289,5.1239,5.0636,5.0268,5.0594,5.0987,5.1289,5.1414,5.1448,5.1498,5.1641,5.1666,5.1925,5.2377,5.2477,5.2678,5.3163,5.3306,5.3457,5.3783,5.3909,5.4052,5.4396,5.4697,5.4798,5.4798,5.4873,5.4956,5.4906,5.4755,5.4647,5.4748,5.4773,5.4848,5.4924,5.4981,5.5282,5.5641,5.5792,5.5993,5.6426,5.6577,5.6728,5.7104,5.7204,5.7355,5.77,5.775,5.7876,5.8001,5.8052,5.8001,4.7757,4.7741,4.7707,4.7757,4.7757,4.7792,4.7867,4.7942,4.7933,4.7883,4.7767,4.7817,4.7857,4.7817,4.7908,4.7958,4.7992,4.8476,4.8702,4.8752,4.9229,4.9455,4.9414,4.9506,4.9515,4.9556,4.9615,4.9715,4.969,4.9681,4.9866,5.0327,5.087,5.1113,5.1113,5.1113,5.1113,5.1138,5.1038,5.0485,4.9515,4.9439,4.9455,4.9439,4.8978,4.8718,4.8752,4.82,4.8159,4.8667,4.8768,4.8953,4.9364,4.9531,4.9757,5.0201,5.0277,5.0503,5.0987,5.1113,5.1113,5.1138,5.1239,5.1364,5.1389,5.1691,5.1674,5.144,5.1314,5.159,5.195,5.2051,5.2277,5.2711,5.2762,5.2962,5.3406,5.3557,5.3801,5.4378,5.4303,5.4454,5.4479,5.4529,5.4579,5.4748,5.5107,5.5358,5.544,5.5742,5.6018,5.5867,5.5315,5.4981,5.5257,5.5315,5.5591,5.5942,5.6068,5.6294,5.6627,5.6828,5.7029,5.7255,5.76,5.7625,5.775,5.7826,5.7826,5.8077,5.8127,5.8102,5.8459,5.861,5.8485,4.7908,4.7908,4.7908,4.8109,4.8426,4.8426,4.8626,4.8887,4.8912,4.8912,4.8887,4.8912,4.8736,4.8476,4.8761,4.8912,4.8912,4.9179,4.928,4.9305,4.949,4.9766,5.0067,5.0051,5.0243,5.0586,5.0611,5.0586,5.0611,5.0611,5.072,5.0937,5.1188,5.1289,5.1289,5.1289,5.1289,5.1289,5.1289,5.1063,5.0661,5.0611,5.0611,5.0586,5.0385,5.0301,5.0259,5.0033,5.0033,5.0275,5.0259,5.036,5.0586,5.0611,5.0711,5.0921,5.0921,5.1038,5.1289,5.159,5.1774,5.1791,5.2076,5.2377,5.2703,5.2929,5.3055,5.3173,5.2628,5.246,5.2955,5.3055,5.3281,5.3775,5.3884,5.4002,5.4202,5.4228,5.4353,5.4572,5.4597,5.4748,5.5031,5.5358,5.5516,5.5559,5.5767,5.5993,5.6276,5.6552,5.6803,5.7054,5.6796,5.6495,5.642,5.6351,5.6602,5.7004,5.7179,5.733,5.743,5.7531,5.765,5.7901,5.7951,5.8127,5.8309,5.8384,5.8428,5.8604,5.883,5.893,5.9137,5.9162,5.9056,4.836,4.836,4.8344,4.8611,4.9003,4.9028,4.9229,4.959,4.9741,4.9816,4.9841,5.0008,4.9857,4.9547,4.9606,4.9665,4.98,4.9816,4.9916,5.0058,5.0058,5.0284,5.0603,5.0653,5.087,5.1239,5.1264,5.1289,5.1314,5.1465,5.1515,5.154,5.1649,5.1749,5.1724,5.1741,5.1724,5.1766,5.1741,5.1741,5.1749,5.1741,5.1615,5.1339,5.1289,5.1289,5.1289,5.1289,5.1289,5.1289,5.1289,5.1289,5.1289,5.1289,5.1364,5.1515,5.1674,5.1724,5.1749,5.2226,5.2528,5.2578,5.3038,5.3515,5.3858,5.3951,5.4127,5.4396,5.3833,5.3557,5.3858,5.3934,5.4152,5.4547,5.4597,5.4647,5.478,5.4805,5.4898,5.5006,5.5132,5.5257,5.5742,5.615,5.6426,5.662,5.6696,5.6771,5.7129,5.7255,5.7424,5.7826,5.7851,5.7675,5.733,5.7204,5.7481,5.77,5.7826,5.7851,5.8052,5.8127,5.8278,5.8529,5.8353,5.8428,5.8805,5.8936,5.8956,5.9332,5.9502,5.9433,5.9433,5.9483,5.9483,4.9515,4.9515,4.9515,4.9556,4.9606,4.959,4.959,4.9757,5.0151,5.0377,5.0427,5.0937,5.1188,5.1029,5.0108,4.9891,5.0302,5.0377,5.0645,5.1088,5.1138,5.1214,5.1264,5.1264,5.1289,5.144,5.1465,5.1414,5.1398,5.1841,5.2076,5.2101,5.2511,5.277,5.2719,5.2694,5.2795,5.2694,5.2711,5.277,5.2787,5.277,5.2285,5.149,5.1339,5.1389,5.1364,5.1314,5.1339,5.1314,5.1364,5.1364,5.1339,5.1381,5.1615,5.2051,5.2561,5.282,5.2887,5.3289,5.3607,5.3658,5.4077,5.4496,5.4547,5.4572,5.4604,5.4647,5.4604,5.4554,5.4597,5.4579,5.4622,5.468,5.4672,5.4898,5.5333,5.5415,5.5616,5.5968,5.6118,5.6344,5.6853,5.6935,5.7204,5.7549,5.775,5.7801,5.7826,5.7851,5.7926,5.7976,5.8027,5.7901,5.7876,5.7851,5.7876,5.8102,5.8303,5.8171,5.8453,5.871,5.8961,5.9156,5.9156,5.9207,5.9382,5.9433,5.9382,5.9527,5.9527,5.9502,5.9527,5.9527,5.9527,4.9816,5.0117,5.0101,5.0318,5.0686,5.0703,5.0686,5.0728,5.0887,5.0987,5.1013,5.1214,5.1289,5.1264,5.0887,5.0787,5.0971,5.0971,5.1113,5.1289,5.1289,5.149,5.18,5.1816,5.2026,5.2285,5.2327,5.231,5.2352,5.2536,5.2611,5.2636,5.2795,5.2895,5.2895,5.2895,5.2895,5.2895,5.2895,5.2895,5.292,5.2895,5.2694,5.236,5.231,5.231,5.231,5.231,5.231,5.231,5.231,5.231,5.236,5.2653,5.2904,5.313,5.3675,5.4002,5.4009,5.4177,5.4278,5.4295,5.4471,5.4798,5.5031,5.5132,5.5257,5.5534,5.5634,5.5634,5.5559,5.5333,5.5257,5.5559,5.5616,5.5709,5.5917,5.62,5.6527,5.6728,5.7004,5.7374,5.7474,5.7575,5.7675,5.7851,5.7901,5.8077,5.8334,5.8428,5.8504,5.883,5.893,5.8905,5.893,5.8585,5.8485,5.8805,5.9,5.9,5.9156,5.9156,5.9332,5.9307,5.9502,5.9502,5.9483,5.9483,5.9527,5.9527,5.9527,5.9527,5.9527,5.9527,5.9527,5.0343,5.0653,5.0695,5.0921,5.1289,5.1289,5.1289,5.1314,5.149,5.1565,5.159,5.1741,5.18,5.1841,5.1825,5.1825,5.1774,5.1649,5.1641,5.18,5.1816,5.2026,5.231,5.236,5.2536,5.2845,5.2895,5.2895,5.2895,5.2895,5.2995,5.3163,5.3163,5.3264,5.3406,5.3457,5.3439,5.3457,5.3457,5.3439,5.3439,5.3439,5.3457,5.3457,5.3457,5.3339,5.3188,5.3163,5.3264,5.3432,5.3457,5.3439,5.349,5.3783,5.4002,5.4034,5.4371,5.4597,5.4622,5.4748,5.4848,5.4898,5.5031,5.5308,5.5616,5.5641,5.5942,5.6301,5.6451,5.6502,5.6627,5.642,5.6294,5.6502,5.6627,5.6746,5.6771,5.7079,5.7255,5.733,5.7581,5.7882,5.8108,5.8133,5.8234,5.8378,5.8428,5.8604,5.888,5.8961,5.9037,5.9408,5.9452,5.9427,5.9351,5.9081,5.8956,5.9207,5.9301,5.9452,5.9527,5.9527,5.9527,5.9527,5.9527,5.9527,5.9527,5.9527,5.9527,5.9527,5.9527,5.9527,5.9527,5.9527,5.9527,5.1264,5.1289,5.1297,5.1339,5.144,5.1465,5.1364,5.1498,5.19,5.2126,5.2176,5.2611,5.2719,5.2795,5.2694,5.282,5.2686,5.2285,5.2335,5.2694,5.277,5.277,5.282,5.2887,5.2962,5.3071,5.297,5.297,5.3063,5.3113,5.3289,5.3632,5.3708,5.3951,5.4529,5.4429,5.4496,5.4454,5.4421,5.4479,5.4597,5.4454,5.4429,5.4496,5.4471,5.4253,5.3783,5.3733,5.3934,5.4421,5.4496,5.4572,5.4471,5.4572,5.4579,5.4622,5.4647,5.4672,5.4748,5.5157,5.5408,5.5483,5.5867,5.615,5.6175,5.6269,5.6502,5.6885,5.7054,5.723,5.7656,5.775,5.7549,5.7161,5.7405,5.7675,5.7775,5.7876,5.7926,5.7951,5.8077,5.8177,5.8535,5.871,5.8855,5.9182,5.9307,5.9307,5.9357,5.9357,5.9458,5.9483,5.9527,5.9527,5.9527,5.9502,5.9477,5.9502,5.9477,5.9527,5.9527,5.9527,5.9527,5.9527,5.9527,5.9527,5.9527,5.9527,5.9527,5.9527,5.9527,5.9527,5.9527,5.9527,5.9527,5.1515,5.1825,5.185,5.2076,5.2385,5.241,5.2385,5.241,5.2586,5.2661,5.2686,5.2837,5.2895,5.2895,5.2895,5.2895,5.287,5.2719,5.2762,5.2895,5.292,5.292,5.2995,5.3289,5.364,5.4009,5.4077,5.4052,5.4052,5.4052,5.4177,5.4278,5.4328,5.4403,5.4622,5.4597,5.4597,5.4597,5.4597,5.4597,5.4597,5.4597,5.4622,5.4597,5.4597,5.4672,5.4838,5.4529,5.4403,5.4622,5.4597,5.4597,5.4672,5.4956,5.5132,5.5207,5.5534,5.5691,5.5717,5.5824,5.5968,5.6068,5.6451,5.6728,5.6803,5.7123,5.7399,5.7581,5.7606,5.7732,5.7901,5.8252,5.8183,5.77,5.7801,5.7951,5.8027,5.8252,5.8585,5.893,5.9006,5.9081,5.9182,5.9232,5.9282,5.9433,5.9527,5.9527,5.9527,5.9527,5.9527,5.9527,5.9527,5.9527,5.9527,5.9527,5.9527,5.9527,5.9527,5.9527,5.9527,5.9527,5.9527,5.9527,5.9527,5.9527,5.9527,5.9527,5.9527,5.9527,5.9533,5.9552,5.9527,5.9628,5.9778,5.2101,5.2385,5.241,5.2586,5.2895,5.2895,5.2895,5.2895,5.2895,5.2895,5.2895,5.2895,5.3013,5.3146,5.3188,5.3339,5.349,5.3532,5.3515,5.3482,5.3264,5.3314,5.3532,5.3858,5.4202,5.4504,5.4597,5.4597,5.4597,5.4622,5.468,5.4856,5.4881,5.5031,5.5157,5.5182,5.5182,5.5182,5.5207,5.5182,5.5207,5.5207,5.5207,5.5207,5.5182,5.5383,5.5641,5.5358,5.5182,5.5182,5.5182,5.5207,5.5232,5.5534,5.5691,5.5767,5.5974,5.6269,5.6451,5.6477,5.6627,5.6828,5.7154,5.733,5.7405,5.775,5.7926,5.8177,5.8183,5.8278,5.8529,5.878,5.883,5.8554,5.8529,5.8504,5.8529,5.878,5.9062,5.9357,5.9477,5.9527,5.9527,5.9527,5.9527,5.9527,5.9527,5.9527,5.9527,5.9527,5.9527,5.9527,5.9527,5.9527,5.9527,5.9527,5.9527,5.9527,5.9527,5.9527,5.9527,5.9527,5.9527,5.9527,5.9527,5.9527,5.9527,5.9527,5.9527,5.9533,5.9709,5.9834,5.996,6.0211,6.0387,5.287,5.2895,5.2895,5.287,5.2895,5.2895,5.2945,5.297,5.297,5.302,5.3046,5.3163,5.3339,5.3683,5.3758,5.4027,5.4496,5.4471,5.4496,5.4403,5.4135,5.411,5.4504,5.4604,5.4705,5.4805,5.4805,5.4798,5.4856,5.4856,5.4931,5.5408,5.544,5.5666,5.5968,5.6168,5.6068,5.6043,5.6093,5.6093,5.6093,5.6118,5.6118,5.6093,5.6075,5.6125,5.62,5.6269,5.6269,5.6194,5.61,5.6168,5.62,5.6251,5.6369,5.6369,5.6301,5.6627,5.6935,5.7054,5.7255,5.7675,5.7826,5.797,5.7976,5.8102,5.8353,5.8685,5.8736,5.8911,5.9282,5.9427,5.9408,5.9477,5.9307,5.9332,5.9477,5.9433,5.9458,5.9502,5.9527,5.9527,5.9527,5.9527,5.9527,5.9527,5.9527,5.9527,5.9527,5.9527,5.9527,5.9527,5.9527,5.9527,5.9527,5.9527,5.9527,5.9527,5.9527,5.9533,5.9533,5.9552,5.9659,5.9633,5.9678,5.9628,5.9728,5.9904,5.9929,6.003,6.0161,6.0267,6.0487,6.0713,6.0839,5.2895,5.2895,5.2895,5.2895,5.2895,5.2895,5.3138,5.3482,5.3507,5.3708,5.4034,5.4152,5.4177,5.4353,5.4353,5.4471,5.4647,5.4647,5.4856,5.5132,5.5056,5.5013,5.5157,5.5207,5.5383,5.5666,5.5666,5.5767,5.5792,5.5691,5.5817,5.5968,5.5968,5.6043,5.6175,5.6219,5.6219,5.6219,5.6219,5.6219,5.6226,5.6226,5.6219,5.6219,5.6244,5.6426,5.6784,5.723,5.7022,5.6301,5.6602,5.6803,5.6828,5.7154,5.7349,5.7349,5.7399,5.7474,5.7625,5.7675,5.7775,5.7901,5.8309,5.8504,5.851,5.8855,5.9106,5.9282,5.9307,5.9332,5.9477,5.9527,5.9527,5.9527,5.9527,5.9527,5.9527,5.9527,5.9527,5.9527,5.9527,5.9527,5.9527,5.9527,5.9527,5.9527,5.9527,5.9527,5.9527,5.9527,5.9527,5.9527,5.9527,5.9527,5.9527,5.9527,5.9527,5.9527,5.9533,5.9583,5.9583,5.9608,5.9809,5.9985,6.0136,6.0136,6.0512,6.0814,6.0758,6.0507,6.0738,6.0939,6.0964,6.111,6.1185,5.2895,5.292,5.3138,5.3239,5.3264,5.3507,5.3808,5.4052,5.4077,5.4253,5.4547,5.4597,5.4723,5.4906,5.4949,5.5082,5.5257,5.5282,5.5458,5.5666,5.5717,5.5742,5.5742,5.5742,5.5917,5.615,5.6219,5.6194,5.6194,5.6219,5.6219,5.6194,5.6219,5.6219,5.6219,5.6219,5.6219,5.6219,5.6219,5.6276,5.6527,5.6508,5.6728,5.6846,5.6922,5.7104,5.7405,5.7725,5.7549,5.7104,5.7204,5.738,5.7405,5.7681,5.7901,5.7901,5.7901,5.7976,5.8202,5.8252,5.8353,5.8554,5.8905,5.8987,5.9062,5.9332,5.9527,5.9502,5.9527,5.9527,5.9527,5.9527,5.9527,5.9527,5.9527,5.9527,5.9527,5.9527,5.9527,5.9527,5.9527,5.9527,5.9527,5.9527,5.9527,5.9527,5.9527,5.9527,5.9527,5.9527,5.9527,5.9527,5.9552,5.9558,5.9709,5.9759,5.991,5.9885,6.0136,6.0085,5.9985,5.9985,6.0286,6.0563,6.0618,6.0769,6.114,6.1316,6.1065,6.1014,6.1341,6.1517,6.1537,6.1637,6.1687,5.297,5.3038,5.3582,5.3801,5.3858,5.4353,5.4572,5.4655,5.4672,5.4748,5.483,5.4798,5.5132,5.5465,5.5491,5.5717,5.6143,5.6043,5.6093,5.6143,5.6143,5.6143,5.6118,5.6093,5.6143,5.6219,5.6219,5.6219,5.6219,5.6219,5.6011,5.5907,5.6006,5.6136,5.6089,5.6236,5.6401,5.652,5.6552,5.6753,5.6899,5.6769,5.6675,5.7017,5.7279,5.7593,5.7863,5.8102,5.8102,5.8077,5.8001,5.7976,5.8001,5.8027,5.8127,5.8177,5.8252,5.8403,5.8685,5.8786,5.8936,5.9282,5.9408,5.9527,5.9458,5.9502,5.9527,5.9527,5.9527,5.9527,5.9527,5.9527,5.9527,5.9527,5.9527,5.9527,5.9527,5.9527,5.9527,5.9527,5.9527,5.9527,5.9527,5.9527,5.9527,5.9527,5.9527,5.9527,5.9527,5.9527,5.9527,5.9527,5.9558,5.9659,5.9859,6.0085,6.0286,6.0462,6.0914,6.1014,6.0744,6.0814,6.104,6.1215,6.124,6.1366,6.1567,6.1567,6.1466,6.1592,6.1943,6.2044,6.2094,6.227,6.2345,5.3532,5.3582,5.4152,5.4421,5.4421,5.4529,5.483,5.5232,5.5232,5.5433,5.5785,5.5842,5.5892,5.6018,5.5993,5.6118,5.6157,5.6146,5.6219,5.6219,5.6219,5.62,5.6146,5.6061,5.6146,5.6109,5.6182,5.6164,5.6127,5.6001,5.5533,5.475,5.6135,5.6172,5.5336,5.6526,5.7506,5.7506,5.7368,5.72,5.7061,5.6347,5.5981,5.6258,5.657,5.7344,5.84,5.893,5.9131,5.9056,5.8761,5.851,5.8585,5.888,5.905,5.9031,5.9081,5.9201,5.9282,5.9282,5.9357,5.9477,5.9527,5.9527,5.9527,5.9527,5.9527,5.9527,5.9527,5.9527,5.9527,5.9527,5.9527,5.9527,5.9527,5.9527,5.9527,5.9527,5.9527,5.9527,5.9527,5.9527,5.9527,5.9527,5.9527,5.9527,5.9527,5.9527,5.9552,5.9603,5.9703,5.9809,6.0004,6.0161,6.0311,6.0613,6.0939,6.1165,6.1567,6.1798,6.1572,6.1421,6.1597,6.1743,6.1818,6.1943,6.2094,6.2295,6.225,6.24,6.245,6.245,6.2526,6.2752,6.2802,5.4127,5.4177,5.473,5.4956,5.5006,5.5257,5.5491,5.5742,5.5767,5.5942,5.6168,5.6219,5.6219,5.6219,5.6219,5.6219,5.5974,5.5324,5.5023,5.48,5.4335,5.3988,5.4531,5.5013,5.5336,5.5034,5.4396,5.46,5.526,5.5681,5.5803,5.5735,5.6807,5.6436,5.5158,5.611,5.5967,5.5328,5.5439,5.5511,5.5616,5.5853,5.6435,5.7076,5.7564,5.8221,5.901,5.9307,5.9477,5.9433,5.9232,5.9081,5.9087,5.9332,5.9502,5.9527,5.9527,5.9527,5.9502,5.9527,5.9502,5.9527,5.9527,5.9527,5.9527,5.9527,5.9527,5.9527,5.9527,5.9527,5.9527,5.9527,5.9527,5.9527,5.9527,5.9527,5.9527,5.9527,5.9527,5.9527,5.9527,5.9527,5.9527,5.9527,5.9552,5.9533,5.9578,5.9583,5.996,6.0035,6.0236,6.0387,6.0607,6.0758,6.0839,6.1165,6.1667,6.1923,6.2225,6.235,6.2275,6.2149,6.2099,6.2174,6.227,6.24,6.2551,6.2777,6.2802,6.2701,6.2676,6.2777,6.2802,6.2802,6.2802,5.4723,5.4755,5.5308,5.5534,5.5591,5.5993,5.6143,5.6194,5.6219,5.6168,5.6219,5.6219,5.6219,5.6164,5.5791,5.5736,5.4986,5.4106,5.335,5.3199,5.2472,5.2279,5.2616,5.3216,5.3482,5.3133,5.3276,5.3681,5.4209,5.4668,5.4812,5.6298,5.696,5.5689,5.4797,5.4994,5.476,5.3776,5.3657,5.4028,5.4471,5.5415,5.6581,5.8103,5.8479,5.884,5.9253,5.9502,5.9527,5.9527,5.9527,5.9527,5.9527,5.9527,5.9527,5.9527,5.9527,5.9527,5.9527,5.9527,5.9527,5.9527,5.9527,5.9527,5.9527,5.9527,5.9527,5.9527,5.9527,5.9527,5.9527,5.9527,5.9527,5.9527,5.9527,5.9527,5.9527,5.9527,5.9527,5.9527,5.9527,5.9527,5.9527,5.9527,5.9533,5.9583,5.9633,5.9784,6.0211,6.0468,6.0688,6.0889,6.109,6.1492,6.1642,6.1692,6.2195,6.235,6.2676,6.2701,6.2727,6.2601,6.2476,6.2601,6.2701,6.2777,6.2777,6.2802,6.2802,6.2802,6.2802,6.2802,6.2802,6.2802,6.2802,5.5239,5.5333,5.5842,5.6068,5.605,5.6175,5.6219,5.6219,5.6219,5.6219,5.62,5.6182,5.6066,5.5809,5.4615,5.3487,5.266,5.2039,5.177,5.1824,5.1457,5.1561,5.1586,5.1565,5.1213,5.1652,5.2733,5.3764,5.3085,5.304,5.3171,5.2388,5.3704,5.3666,5.3057,5.3328,5.407,5.3295,5.3419,5.4202,5.5038,5.5346,5.5933,5.7593,5.7795,5.8285,5.9251,5.9508,5.9527,5.9527,5.9527,5.9527,5.9527,5.9527,5.9527,5.9527,5.9527,5.9527,5.9527,5.9527,5.9527,5.9527,5.9527,5.9527,5.9527,5.9527,5.9527,5.9527,5.9527,5.9527,5.9527,5.9527,5.9527,5.9527,5.9527,5.9527,5.9527,5.9527,5.9533,5.9608,5.9558,5.9578,5.9633,5.9734,5.9885,6.006,6.0186,6.0462,6.0889,6.104,6.1135,6.1361,6.1567,6.2069,6.2501,6.2476,6.2651,6.2601,6.2752,6.2752,6.2777,6.2802,6.2802,6.2802,6.2802,6.2802,6.2802,6.2802,6.2802,6.2802,6.2802,6.2802,6.2802,6.2802,6.2802,5.5817,5.586,5.6093,5.6219,5.6219,5.6219,5.6219,5.6219,5.6219,5.6219,5.5937,5.5361,5.4893,5.446,5.3199,5.2081,5.1599,5.0673,5.0552,5.0639,5.0165,4.9945,5.038,5.0321,5.0149,5.0485,5.209,5.2941,5.1917,5.206,5.1982,5.2786,5.3518,5.3017,5.1913,5.2399,5.2409,5.2118,5.2534,5.3359,5.4482,5.4746,5.6518,5.7534,5.7396,5.7829,5.8934,5.8447,5.8662,5.927,5.9527,5.9527,5.9463,5.9444,5.9463,5.9444,5.9508,5.9527,5.9527,5.9527,5.9527,5.9527,5.9527,5.9527,5.9527,5.9527,5.9527,5.9527,5.9527,5.9527,5.9527,5.9527,5.9527,5.9527,5.9527,5.9527,5.9527,5.9527,5.9659,5.9809,5.9709,5.9759,5.994,6.0091,6.0261,6.0487,6.0713,6.1115,6.1542,6.1617,6.1662,6.1893,6.2119,6.232,6.2727,6.2752,6.2802,6.2802,6.2802,6.2802,6.2802,6.2802,6.2802,6.2802,6.2802,6.2802,6.2802,6.2802,6.2802,6.2802,6.2802,6.2802,6.2802,6.2802,6.2802,5.6219,5.6219,5.6219,5.6219,5.6219,5.6219,5.6219,5.6164,5.5791,5.5601,5.5453,5.405,5.3218,5.2807,5.1801,5.0989,5.1066,4.9593,4.9385,4.9359,4.8709,4.8191,4.8777,4.9574,5.0037,4.9554,5.0399,5.0984,5.0746,5.0856,5.1907,5.2174,5.2985,5.2678,5.1367,5.1052,5.0125,5.0019,5.0315,5.1179,5.2388,5.4665,5.6956,5.8364,5.7435,5.7554,5.8461,5.8305,5.8422,5.9037,5.9134,5.892,5.8954,5.8954,5.8954,5.9012,5.927,5.9489,5.9527,5.9527,5.9527,5.9527,5.9527,5.9527,5.9527,5.9527,5.9527,5.9527,5.9527,5.9527,5.9527,5.9527,5.9527,5.9527,5.9508,5.9558,5.9684,5.9809,6.006,6.0085,5.991,6.0111,6.0442,6.0563,6.0763,6.109,6.1321,6.1622,6.2044,6.2124,6.2225,6.2501,6.2651,6.2651,6.2777,6.2777,6.2802,6.2802,6.2802,6.2802,6.2802,6.2802,6.2802,6.2802,6.2802,6.2802,6.2802,6.2802,6.2802,6.2802,6.2802,6.2802,6.2802,6.2802,6.2802,5.6219,5.6219,5.6219,5.6219,5.6219,5.6219,5.62,5.5937,5.4664,5.4012,5.39,5.2389,5.1589,5.1206,5.0273,4.9213,4.8558,4.8355,4.8294,4.8421,4.8358,4.8355,4.848,4.8959,4.9362,4.9059,4.9337,4.938,4.9446,4.9509,4.9615,5.0104,5.0294,4.9679,4.9891,4.9806,4.9315,4.9166,4.9422,5.0337,5.189,5.3788,5.4807,5.5393,5.5975,5.6678,5.7114,5.7435,5.8344,5.8681,5.7854,5.7317,5.7218,5.7218,5.7218,5.7652,5.8466,5.9527,5.9508,5.9527,5.9469,5.9425,5.9444,5.9508,5.9392,5.9372,5.9392,5.9527,5.9489,5.9483,5.9483,5.9527,5.9527,5.9578,5.9608,5.9859,6.0066,6.006,6.033,6.0754,6.0709,6.0874,6.1165,6.119,6.1285,6.1642,6.1948,6.2225,6.2425,6.2501,6.2551,6.2727,6.2802,6.2802,6.2802,6.2802,6.2802,6.2802,6.2802,6.2802,6.2802,6.2802,6.2802,6.2802,6.2802,6.2802,6.2802,6.2802,6.2802,6.2802,6.2802,6.2802,6.2802,6.2802,6.2701,5.6219,5.6219,5.6219,5.6219,5.6219,5.6219,5.5644,5.4763,5.4007,5.318,5.2207,5.0915,4.9943,4.9367,4.8634,4.8397,4.8087,4.8086,4.8252,4.8418,4.8687,4.8812,4.8832,4.8977,4.9016,4.8759,4.8673,4.8587,4.8544,4.8845,4.9102,4.908,4.908,4.9251,4.9102,4.9102,4.9123,4.938,5.0104,5.1451,5.2906,5.3809,5.4217,5.4197,5.4115,5.4421,5.4945,5.4499,5.5168,5.559,5.5634,5.6339,5.6757,5.7396,5.807,5.8153,5.8706,5.9256,5.9469,5.9489,5.9372,5.9192,5.9134,5.9043,5.8887,5.8873,5.8984,5.9159,5.9179,5.9276,5.9469,5.9508,5.9709,5.9815,5.9921,6.0272,6.0494,6.0422,6.0587,6.1056,6.1462,6.1582,6.1647,6.1662,6.1783,6.2169,6.235,6.2501,6.2626,6.2676,6.2727,6.2777,6.2802,6.2802,6.2802,6.2802,6.2802,6.2802,6.2802,6.2802,6.2802,6.2802,6.2802,6.2802,6.2802,6.2802,6.2802,6.2802,6.2802,6.2802,6.2802,6.2802,6.2777,6.2425,6.2375,5.6219,5.6219,5.6219,5.5974,5.5564,5.5564,5.4615,5.3143,5.2513,5.1805,5.0775,4.9597,4.8576,4.8046,4.8046,4.8233,4.8584,4.8563,4.877,4.9019,4.9102,4.9081,4.8996,4.8995,4.8737,4.8373,4.8264,4.8092,4.807,4.8306,4.8715,4.8909,4.8845,4.8973,4.908,4.9102,4.9102,4.9187,5.0125,5.1221,5.2222,5.2449,5.2491,5.2283,5.1973,5.1806,5.2427,5.2489,5.2446,5.3148,5.4237,5.4928,5.5352,5.6602,5.7503,5.7765,5.8217,5.8828,5.9004,5.9062,5.9023,5.8867,5.875,5.8633,5.8423,5.831,5.8462,5.8926,5.8965,5.9209,5.9542,5.9734,6.0035,6.0278,6.04,6.0775,6.0996,6.0796,6.0944,6.1504,6.186,6.1939,6.2025,6.2072,6.2278,6.2656,6.2802,6.2781,6.2802,6.2802,6.2802,6.2802,6.2802,6.2802,6.2802,6.2802,6.2802,6.2802,6.2802,6.2802,6.2802,6.2802,6.2802,6.2802,6.2802,6.2802,6.2802,6.2802,6.2802,6.2802,6.2802,6.2802,6.2676,6.2325,6.2199,5.6219,5.6219,5.6182,5.5287,5.3956,5.3857,5.2954,5.1351,4.9939,4.9601,4.9546,4.8515,4.8192,4.8273,4.8376,4.8583,4.9039,4.9039,4.8996,4.9017,4.908,4.8952,4.8802,4.8587,4.8393,4.8221,4.7919,4.7723,4.7658,4.7593,4.8047,4.8372,4.8415,4.8716,4.8845,4.8845,4.8887,4.8887,4.9359,4.9188,4.9381,4.9274,4.9103,4.9017,4.9679,5.0484,5.059,5.1345,5.2033,5.2344,5.3028,5.3421,5.3954,5.5725,5.665,5.659,5.769,5.8227,5.8384,5.8501,5.8428,5.8345,5.8286,5.8207,5.807,5.8212,5.8462,5.8786,5.886,5.9313,5.9831,6.0272,6.0419,6.0572,6.0667,6.086,6.1033,6.0983,6.1215,6.1881,6.2113,6.2026,6.2001,6.1959,6.2016,6.2322,6.2618,6.2618,6.2781,6.2802,6.2802,6.2802,6.2802,6.2802,6.2802,6.2802,6.2802,6.2802,6.2802,6.2802,6.2802,6.2802,6.2802,6.2802,6.2802,6.2802,6.2802,6.2802,6.2802,6.2802,6.2802,6.2752,6.2727,6.2526,6.2476,5.5582,5.467,5.467,5.4292,5.3613,5.2632,5.1293,4.9886,4.9386,4.9031,4.8835,4.8359,4.8397,4.8707,4.8832,4.8915,4.9017,4.8759,4.8716,4.8544,4.8415,4.8285,4.8155,4.809,4.7831,4.7595,4.7333,4.7072,4.6832,4.6941,4.7137,4.7463,4.7789,4.8005,4.8178,4.8328,4.8306,4.8285,4.8285,4.8112,4.8069,4.7961,4.7874,4.7874,4.807,4.8523,4.8439,4.889,4.9658,5.0632,5.1639,5.2222,5.2988,5.516,5.5909,5.5607,5.6933,5.7636,5.7715,5.7932,5.8192,5.7833,5.7655,5.7541,5.7645,5.7541,5.7934,5.8329,5.8891,5.9375,5.9821,6.0248,6.0542,6.0724,6.0884,6.096,6.101,6.0953,6.1096,6.1618,6.173,6.1709,6.173,6.1746,6.1808,6.1936,6.2249,6.2516,6.2679,6.2802,6.2802,6.2802,6.2802,6.2802,6.2802,6.2802,6.2802,6.2802,6.2802,6.2802,6.2802,6.2802,6.2802,6.2802,6.2802,6.2802,6.2802,6.2802,6.2802,6.2802,6.2727,6.2626,6.2626,6.2651,6.2651,5.4782,5.3613,5.2651,5.2228,5.2056,5.1043,4.9673,4.8487,4.8568,4.8703,4.8418,4.8542,4.8791,4.8997,4.8909,4.8845,4.8716,4.8436,4.8243,4.8092,4.7918,4.7701,4.7658,4.755,4.7354,4.7028,4.6811,4.6593,4.6418,4.633,4.6549,4.6854,4.7115,4.7354,4.7745,4.768,4.768,4.7701,4.7701,4.7571,4.755,4.7485,4.7333,4.7268,4.7313,4.7248,4.7356,4.7857,4.8525,4.9594,5.0674,5.1743,5.305,5.4426,5.5607,5.5809,5.621,5.718,5.7259,5.7418,5.7754,5.7438,5.7259,5.7173,5.7173,5.7241,5.7826,5.8604,5.8998,5.9374,5.989,6.0417,6.0761,6.0977,6.0813,6.0862,6.0922,6.0924,6.101,6.1233,6.1278,6.1299,6.1299,6.1336,6.1647,6.1816,6.2146,6.2454,6.272,6.2802,6.2802,6.2802,6.2802,6.2802,6.2802,6.2802,6.2802,6.2802,6.2802,6.2802,6.2802,6.2802,6.2802,6.2802,6.2802,6.2802,6.2802,6.2802,6.2802,6.2802,6.2727,6.2676,6.2676,6.2701,6.2626,5.3694,5.3294,5.0306,4.9057,4.9184,4.8921,4.8228,4.7315,4.738,4.7797,4.8459,4.881,4.8975,4.893,4.8587,4.8436,4.8307,4.7961,4.7723,4.768,4.7528,4.7593,4.7441,4.7202,4.6963,4.6898,4.6658,4.6396,4.6308,4.6308,4.6374,4.6374,4.6593,4.6854,4.7593,4.7678,4.77,4.7658,4.7593,4.7333,4.7094,4.7007,4.6832,4.6658,4.6551,4.6527,4.6704,4.7466,4.8245,4.9168,5.0358,5.12,5.166,5.3567,5.4344,5.3997,5.5748,5.6742,5.6945,5.6985,5.671,5.6901,5.6881,5.7313,5.7593,5.7798,5.8108,5.8936,5.9232,5.9703,6.0249,6.0703,6.0977,6.0939,6.0726,6.0674,6.0709,6.0837,6.0945,6.0903,6.0862,6.0841,6.082,6.0924,6.1361,6.1692,6.2043,6.2351,6.2618,6.2679,6.2638,6.27,6.27,6.2802,6.2802,6.2802,6.2802,6.2802,6.2802,6.2802,6.2802,6.2802,6.2802,6.2802,6.2802,6.2802,6.2802,6.2802,6.2802,6.2802,6.2802,6.2777,6.2777,6.2752,6.2676,5.1654,5.0776,4.9386,4.8515,4.8076,4.7721,4.7335,4.7175,4.7651,4.8272,4.8706,4.876,4.863,4.8479,4.8178,4.7919,4.7853,4.7463,4.7224,4.7202,4.7007,4.6789,4.6723,4.6723,4.6593,4.6505,4.633,4.6308,4.6308,4.6308,4.6308,4.6308,4.633,4.6462,4.6702,4.6767,4.6767,4.6767,4.6745,4.668,4.6529,4.6549,4.6483,4.6308,4.6308,4.6308,4.6352,4.7293,4.8051,4.8847,5.0019,5.0061,5.059,5.2305,5.2988,5.2305,5.3279,5.5346,5.5186,5.4934,5.4541,5.5561,5.6936,5.7275,5.6814,5.7809,5.8506,5.9215,5.9562,5.996,6.0265,6.0632,6.0782,6.0511,6.0375,6.0354,6.0423,6.0653,6.0778,6.0632,6.0548,6.0528,6.0507,6.0674,6.1049,6.1278,6.1589,6.1961,6.2269,6.2331,6.2351,6.2475,6.2556,6.272,6.2781,6.2679,6.2679,6.27,6.2741,6.2802,6.2802,6.2802,6.2802,6.2802,6.2802,6.2802,6.2802,6.2802,6.2802,6.2802,6.2802,6.2802,6.2802,6.2777,6.2777,5.0107,4.9218,4.8487,4.7809,4.7236,4.7052,4.7155,4.7568,4.8272,4.8747,4.876,4.8502,4.8307,4.807,4.7701,4.7463,4.7398,4.6985,4.6745,4.6723,4.6483,4.6396,4.6352,4.6308,4.6374,4.6308,4.6308,4.6308,4.6308,4.6308,4.6308,4.6308,4.6308,4.6352,4.6374,4.6374,4.6374,4.6418,4.6418,4.6396,4.6352,4.633,4.633,4.6308,4.6308,4.6308,4.6464,4.6945,4.7684,4.8633,4.8954,4.8954,4.9828,5.0463,5.1262,5.0569,5.1626,5.3579,5.3637,5.3817,5.3862,5.452,5.655,5.7331,5.7139,5.8354,5.8996,5.9598,5.9905,6.0061,6.0243,6.059,6.0486,6.0213,6.0213,6.0234,6.0276,6.0507,6.0528,6.0402,6.036,6.0318,6.0318,6.0486,6.0737,6.0903,6.1091,6.1485,6.1837,6.1919,6.1961,6.2064,6.2208,6.2331,6.2413,6.2434,6.2454,6.2577,6.2618,6.2659,6.2802,6.2802,6.2802,6.2802,6.2802,6.2802,6.2802,6.2802,6.2802,6.2802,6.2802,6.2802,6.2802,6.2802,6.2802,4.9161,4.86,4.7486,4.6836,4.6501,4.6926,4.7526,4.8354,4.8831,4.8781,4.8393,4.8307,4.8005,4.7636,4.7181,4.6985,4.6941,4.6527,4.644,4.6374,4.633,4.6308,4.6308,4.6308,4.6308,4.6308,4.6308,4.6308,4.6308,4.6308,4.6308,4.6308,4.6308,4.6308,4.6308,4.6308,4.6308,4.6308,4.6308,4.6308,4.6308,4.6308,4.6308,4.6308,4.6308,4.6308,4.6638,4.7401,4.8137,4.8633,4.8697,4.8761,4.8911,4.8975,4.8997,4.9613,5.1209,5.1594,5.2516,5.2823,5.3929,5.4618,5.5571,5.7122,5.8293,5.8924,5.9556,5.9879,6.0128,6.018,6.0255,6.0276,6.0276,6.0213,6.0213,6.0213,6.0213,6.0276,6.0276,6.0234,6.0234,6.0234,6.0276,6.0402,6.0507,6.059,6.0757,6.0903,6.1236,6.1423,6.1485,6.1548,6.1692,6.1858,6.1961,6.2043,6.2105,6.2167,6.2331,6.2393,6.2577,6.2781,6.2802,6.2802,6.2802,6.2802,6.2802,6.2802,6.2802,6.2802,6.2802,6.2802,6.2802,6.2802,6.2802,4.794,4.7506,4.7151,4.7117,4.7302,4.7435,4.7664,4.7951,4.8374,4.8329,4.7874,4.755,4.7376,4.7159,4.6704,4.6551,4.6462,4.6374,4.633,4.6308,4.6308,4.6308,4.6308,4.6308,4.6308,4.6308,4.6308,4.6308,4.6308,4.6308,4.6308,4.6308,4.6308,4.6308,4.6308,4.6308,4.6308,4.6308,4.6308,4.6308,4.6308,4.6308,4.6308,4.6308,4.6308,4.6308,4.6617,4.6856,4.7271,4.7206,4.7141,4.7097,4.7097,4.8202,4.9059,4.9258,4.9332,4.9143,5.0992,5.1722,5.2946,5.5262,5.6532,5.6945,5.8128,5.9169,5.9916,5.9823,5.9835,5.9705,5.9684,5.9705,5.9961,6.0171,6.0171,6.0213,6.0213,6.0213,6.0213,6.0213,6.0213,6.0213,6.0255,6.0255,6.036,6.0381,6.0444,6.0548,6.0674,6.0883,6.1008,6.107,6.1278,6.1485,6.1548,6.163,6.1672,6.173,6.194,6.2146,6.2372,6.2556,6.272,6.2802,6.2802,6.2802,6.2802,6.2802,6.2802,6.2802,6.2802,6.2802,6.2802,6.2802,6.2802,4.7311,4.6782,4.6942,4.7068,4.7164,4.7333,4.7333,4.7289,4.7811,4.7874,4.742,4.7137,4.6898,4.6702,4.6462,4.633,4.633,4.633,4.6308,4.6308,4.6308,4.6308,4.6308,4.6308,4.6308,4.6308,4.6308,4.6308,4.6308,4.6308,4.6308,4.6308,4.6308,4.6308,4.6308,4.6308,4.6308,4.6308,4.6308,4.6308,4.6308,4.6308,4.6308,4.6308,4.6308,4.6308,4.6308,4.6308,4.6308,4.6308,4.6308,4.6308,4.6455,4.7541,4.816,4.8281,4.8282,4.8492,4.9741,5.0991,5.3158,5.542,5.6944,5.789,5.8618,5.9655,5.9425,5.9111,5.9047,5.9005,5.9047,5.9153,5.9642,6.0108,6.015,6.0192,6.0213,6.0213,6.0213,6.0213,6.0213,6.0213,6.0213,6.0213,6.0213,6.0255,6.0276,6.0318,6.0381,6.0486,6.0569,6.0611,6.0883,6.1133,6.1174,6.1195,6.1257,6.1357,6.1606,6.1858,6.2125,6.2454,6.272,6.2802,6.2802,6.2802,6.2802,6.2802,6.2802,6.2802,6.2802,6.2802,6.2802,6.2802,6.2802,4.7143,4.6351,4.6743,4.6708,4.6418,4.6789,4.6723,4.6418,4.7202,4.7333,4.6985,4.6941,4.668,4.644,4.6308,4.6308,4.6308,4.6308,4.6308,4.6308,4.6308,4.6308,4.6308,4.6308,4.6308,4.6308,4.6308,4.6308,4.6308,4.6308,4.6308,4.6308,4.6308,4.6308,4.6308,4.6308,4.6308,4.6308,4.6308,4.6308,4.6308,4.6308,4.6308,4.6308,4.6308,4.6308,4.6308,4.6308,4.6308,4.6308,4.6308,4.6308,4.657,4.6792,4.7054,4.7447,4.7847,4.8251,4.9208,5.0538,5.2171,5.4257,5.6032,5.7138,5.7935,5.8941,5.8662,5.802,5.7849,5.787,5.7892,5.8236,5.8705,5.9301,5.9642,5.9919,6.0171,6.0171,6.0213,6.0213,6.0213,6.0213,6.0213,6.0213,6.0213,6.0213,6.0213,6.0213,6.0213,6.0255,6.0276,6.0297,6.0507,6.0737,6.0632,6.0674,6.0799,6.0987,6.1319,6.1734,6.2125,6.2454,6.2781,6.2802,6.2802,6.2802,6.2802,6.2802,6.2802,6.2802,6.2802,6.2802,6.2802,6.2802,6.2802,4.7146,4.6328,4.6418,4.6396,4.6308,4.6418,4.6398,4.633,4.6505,4.6614,4.6483,4.6483,4.642,4.633,4.6308,4.6308,4.6308,4.6308,4.6308,4.6308,4.6308,4.6308,4.6308,4.6308,4.6308,4.6308,4.6308,4.6308,4.6308,4.6308,4.6308,4.6308,4.6308,4.6308,4.6308,4.6328,4.6367,4.6387,4.6445,4.6445,4.6445,4.6348,4.6308,4.6308,4.6308,4.6308,4.6308,4.6308,4.6308,4.6308,4.6308,4.6443,4.6758,4.6872,4.7263,4.7793,4.8063,4.8382,4.9124,5.0406,5.1917,5.2745,5.408,5.5005,5.6076,5.731,5.7656,5.6944,5.6641,5.6684,5.6944,5.7376,5.7806,5.8471,5.8941,5.9388,5.9898,6.0108,6.015,6.0213,6.0213,6.0213,6.0213,6.0213,6.0213,6.0213,6.0213,6.0213,6.0213,6.0234,6.0234,6.0234,6.0234,6.0339,6.0255,6.0297,6.0507,6.0841,6.1216,6.1651,6.2171,6.2495,6.2802,6.2802,6.2802,6.2802,6.2802,6.2802,6.2802,6.2802,6.2802,6.2802,6.2802,6.2802,6.2802,4.6976,4.6323,4.6279,4.6308,4.6308,4.6308,4.6308,4.6308,4.6308,4.6308,4.6308,4.6308,4.6308,4.6308,4.6308,4.6308,4.6308,4.6308,4.6308,4.6308,4.6308,4.6308,4.6308,4.6308,4.6308,4.6308,4.6308,4.6308,4.6308,4.6308,4.6308,4.6328,4.6328,4.6328,4.6367,4.6465,4.6582,4.6601,4.6719,4.6816,4.676,4.6582,4.6348,4.6308,4.6308,4.6328,4.6308,4.6308,4.6308,4.6387,4.6462,4.6836,4.7168,4.7461,4.7712,4.8086,4.8379,4.8617,4.9344,5.0345,5.1507,5.2072,5.3304,5.4697,5.4609,5.564,5.5422,5.4851,5.5312,5.5421,5.6315,5.6879,5.716,5.7677,5.7181,5.7009,5.8385,5.9536,5.9856,6.0213,6.0213,6.0213,6.0213,6.0213,6.0213,6.0213,6.0213,6.0213,6.0213,6.0213,6.0213,6.0213,6.0213,6.0213,6.0213,6.0234,6.0297,6.0674,6.1136,6.1754,6.231,6.2577,6.2802,6.2802,6.2802,6.2802,6.2802,6.2802,6.2802,6.2802,6.2802,6.2802,6.2802,6.2802,6.2802,4.668,4.633,4.6308,4.6308,4.6308,4.6308,4.6308,4.6308,4.6308,4.6308,4.6308,4.6308,4.6308,4.6308,4.6308,4.6308,4.6308,4.6308,4.6308,4.6308,4.6308,4.6308,4.6308,4.6308,4.6308,4.6308,4.6308,4.6308,4.6308,4.6308,4.6328,4.6348,4.6387,4.6426,4.6562,4.6755,4.6989,4.709,4.7226,4.7483,4.7268,4.6894,4.668,4.6523,4.6465,4.6487,4.6465,4.6484,4.6484,4.6621,4.6875,4.7226,4.7558,4.7871,4.8105,4.8398,4.8636,4.8792,4.9193,5.0117,5.0825,5.162,5.3191,5.3593,5.3325,5.3124,5.2901,5.3326,5.3792,5.4235,5.5137,5.5727,5.5967,5.6554,5.5749,5.5137,5.6922,5.8813,5.9558,6.0003,5.9705,5.9684,5.979,5.9856,6.0024,6.0045,6.0213,6.0213,6.0213,6.0213,6.0213,6.0213,6.0213,6.0213,6.0213,6.0213,6.0234,6.0632,6.1133,6.1878,6.2393,6.2372,6.2495,6.2781,6.2781,6.2679,6.2761,6.2802,6.2802,6.2781,6.2802,6.2802,6.2802,6.2802,6.2802,4.6396,4.6308,4.6308,4.6308,4.6308,4.6308,4.6308,4.6308,4.6308,4.6308,4.6308,4.6308,4.6308,4.6308,4.6308,4.6308,4.6308,4.6308,4.6308,4.6308,4.6308,4.6308,4.6308,4.6308,4.6308,4.6308,4.6308,4.6308,4.6426,4.6387,4.6504,4.6775,4.6775,4.6953,4.7327,4.7441,4.7461,4.7539,4.7578,4.7757,4.7698,4.7483,4.7425,4.7366,4.7346,4.7366,4.7366,4.7346,4.7366,4.7386,4.7402,4.7695,4.7969,4.8223,4.8398,4.8597,4.8855,4.8874,4.9285,4.9541,4.9934,4.9908,5.0825,5.0666,5.0484,5.0416,5.0666,5.1552,5.1892,5.1936,5.2543,5.2968,5.3369,5.4851,5.4961,5.4829,5.5618,5.7699,5.9259,5.8684,5.787,5.802,5.8279,5.8556,5.9111,5.941,6.0192,6.0213,6.0213,6.0213,6.0213,6.0213,6.0213,6.0213,6.0213,6.0213,6.0276,6.0674,6.107,6.1672,6.2006,6.1903,6.2068,6.2372,6.2475,6.2393,6.2516,6.2679,6.2781,6.2761,6.2781,6.2802,6.2802,6.2802,6.2802]},{"header":{"parameterUnit":"m.s-1","parameterCategory":1,"la1":31.0,"la2":29.5877,"lo1":-88.7671,"lo2":-86.6584,"dx":0.0162,"dy":0.0185,"nx":115,"ny":88,"refTime":"2022-11-04T18:00:00:Z","depth":0,"parameterNumber":3,"parameterNumberName":"V-component_of_WINDS"},"data":[0.0,0.0,0.0,0.0,0.0,0.0,0.0,0.0,0.0,0.0,0.0,0.0,0.0,0.0,0.0,0.0,0.0,0.0,0.0,0.0,0.0,0.0,0.0,0.0,0.0,0.0,0.0,0.0,0.0,0.0,0.0,0.0,0.0,0.0,0.0,0.0,0.0,0.0,0.0,0.0,0.0,0.0,0.0,0.0,0.0,0.0,0.0,0.0,0.0,0.0,0.0,0.0,0.0,0.0,0.0,0.0,0.0,0.0,0.0,0.0,0.0,0.0,0.0,0.0,0.0,0.0,0.0,0.0,0.0,0.0,0.0,0.0,0.0,0.0,0.0,0.0,0.0,0.0,0.0,0.0,0.0,0.0,0.0,0.0,0.0,0.0,0.0,0.0,0.0,0.0,0.0,0.0,0.0,0.0,0.0,0.0,0.0,0.0,0.0,0.0,0.0,0.0,0.0,0.0,0.0,0.0,0.0,0.0,0.0,0.0,0.0,0.0,0.0,0.0,0.0,0.0,0.0,0.0,0.0,0.0,0.0,0.0,0.0,0.0,0.0,0.0,0.0,0.0,0.0,0.0,0.0,0.0,0.0,0.0,0.0,0.0,0.0,0.0,0.0,0.0,0.0,0.0,0.0,0.0,0.0,0.0,0.0,0.0,0.0,0.0,0.0,0.0,0.0,0.0,0.0,0.0,0.0,0.0,0.0,0.0,0.0,0.0,0.0,0.0,0.0,0.0,0.0,0.0,0.0,0.0,0.0,0.0,0.0,0.0,0.0,0.0,0.0,0.0,0.0,0.0,0.0,0.0,0.0,0.0,0.0,0.0,0.0,0.0,0.0,0.0,0.0,0.0,0.0,0.0,0.0,0.0,0.0,0.0,0.0,0.0,0.0,0.0,0.0,0.0,0.0,0.0,0.0,0.0,0.0,0.0,0.0,0.0,0.0,0.0,0.0,0.0,0.0,0.0,0.0,0.0,0.0,0.0,0.0,0.0,0.0,0.0,0.0,0.0,0.0,0.0,0.0,0.0,0.0,0.0,0.0,0.0,0.0,0.0,0.0,0.0,0.0,0.0,0.0,0.0,0.0,0.0,0.0,0.0,0.0,0.0,0.0,0.0,0.0,0.0,0.0,0.0,0.0,0.0,0.0,0.0,0.0,0.0,0.0,0.0,0.0,0.0,0.0,0.0,0.0,0.0,0.0,0.0,0.0,0.0,0.0,0.0,0.0,0.0,0.0,0.0,0.0,0.0,0.0,0.0,0.0,0.0,0.0,0.0,0.0,0.0,0.0,0.0,0.0,0.0,0.0,0.0,0.0,0.0,0.0,0.0,0.0,0.0,0.0,0.0,0.0,0.0,0.0,0.0,0.0,0.0,0.0,0.0,0.0,0.0,0.0,0.0,0.0,0.0,0.0,0.0,0.0,0.0,0.0,0.0,0.0,0.0,0.0,0.0,0.0,0.0,0.0,0.0,0.0,0.0,0.0,0.0,0.0,0.0,0.0,0.0,0.0,0.0,0.0,0.0,0.0,0.0,0.0,0.0,0.0,0.0,0.0,0.0,0.0,0.0,0.0,0.0,0.0,0.0,0.0,0.0,0.0,0.0,0.0,0.0,0.0,0.0,0.0,0.0,0.0,0.0,0.0,0.0,0.0,0.0,0.0,0.0,0.0,0.0,0.0,0.0,0.0,0.0,0.0,0.0,0.0,0.0,0.0,0.0,0.0,0.0,0.0,0.0,0.0,0.0,0.0,0.0,0.0,0.0,0.0,0.0,0.0,0.0,0.0,0.0,0.0,0.0,0.0,0.0,0.0,0.0,0.0,0.0,0.0,0.0,0.0,0.0,0.0,0.0,0.0,0.0,0.0,0.0,0.0,0.0,0.0,0.0,0.0,0.0,0.0,0.0,0.0,0.0,0.0,0.0,0.0,0.0,0.0,0.0,0.0,0.0,0.0,0.0,0.0,0.0,0.0,0.0,0.0,0.0,0.0,0.0,0.0,0.0,0.0,0.0,0.0,0.0,0.0,0.0,0.0,0.0,0.0,0.0,0.0,0.0,0.0,0.0,0.0,0.0,0.0,0.0,0.0,0.0,0.0,0.0,0.0,0.0,0.0,0.0,0.0,0.0,0.0,0.0,0.0,0.0,0.0,0.0,0.0,0.0,0.0,0.0,0.0,0.0,0.0,0.0,0.0,0.0,0.0,0.0,0.0,0.0,0.0,0.0,0.0,0.0,0.0,0.0,0.0,0.0,0.0,0.0,0.0,0.0,0.0,0.0,0.0,0.0,0.0,0.0,0.0,0.0,0.0,0.0,0.0,0.0,0.0,0.0,0.0,0.0,0.0,0.0,0.0,0.0,0.0,0.0,0.0,0.0,0.0,0.0,0.0,0.0,0.0,0.0,0.0,0.0,0.0,0.0,0.0,0.0,0.0,0.0,0.0,0.0,0.0,0.0,0.0,0.0,0.0,0.0,0.0,0.0,0.0,0.0,0.0,0.0,0.0,0.0,0.0,0.0,0.0,0.0,0.0,0.0,0.0,0.0,0.0,0.0,0.0,0.0,0.0,0.0,0.0,0.0,0.0,0.0,0.0,0.0,0.0,0.0,0.0,0.0,0.0,0.0,0.0,0.0,0.0,0.0,0.0,0.0,0.0,0.0,0.0,0.0,0.0,0.0,0.0,0.0,0.0,0.0,0.0,0.0,0.0,0.0,0.0,0.0,0.0,0.0,0.0,0.0,0.0,0.0,0.0,0.0,0.0,0.0,0.0,0.0,0.0,0.0,0.0,0.0,0.0,0.0,0.0,0.0,0.0,0.0,0.0,0.0,0.0,0.0,0.0,0.0,0.0,0.0,0.0,0.0,0.0,0.0,0.0,0.0,0.0,0.0,0.0,0.0,0.0,0.0,0.0,0.0,0.0,0.0,0.0,0.0,0.0,0.0,0.0,0.0,0.0,0.0,0.0,0.0,0.0,0.0,0.0,0.0,0.0,0.0,0.0,0.0,0.0,0.0,0.0,0.0,0.0,0.0,0.0,0.0,0.0,0.0,0.0,0.0,0.0,0.0,0.0,0.0,0.0,0.0,0.0,0.0,0.0,0.0,0.0,0.0,0.0,0.0,0.0,0.0,0.0,0.0,0.0,0.0,0.0,0.0,0.0,0.0,0.0,0.0,0.0,0.0,0.0,0.0,0.0,0.0,0.0,0.0,0.0,0.0,0.0,0.0,0.0,0.0,0.0,0.0,0.0,0.0,0.0,0.0,0.0,0.0,0.0,0.0,0.0,0.0,0.0,0.0,0.0,0.0,0.0,0.0,0.0,0.0,0.0,0.0,0.0,0.0,0.0,0.0,0.0,0.0,0.0,0.0,0.0,0.0,0.0,0.0,0.0,0.0,0.0,0.0,0.0,0.0,0.0,0.0,0.0,0.0,0.0,0.0,0.0,0.0,0.0,0.0,0.0,0.0,0.0,0.0,0.0,0.0,0.0,0.0,0.0,0.0,0.0,0.0,0.0,0.0,0.0,0.0,0.0,0.0,0.0,0.0,0.0,0.0,0.0,0.0,0.0,0.0,0.0,0.0,0.0,0.0,0.0,0.0,0.0,0.0,0.0,0.0,0.0,0.0,0.0,0.0,0.0,0.0,0.0,0.0,0.0,0.0,0.0,0.0,0.0,0.0,0.0,0.0,0.0,0.0,0.0,0.0,0.0,0.0,0.0,0.0,0.0,0.0,0.0,0.0,0.0,0.0,0.0,0.0,0.0,0.0,0.0,0.0,0.0,0.0,0.0,0.0,0.0,0.0,0.0,0.0,0.0,0.0,0.0,0.0,0.0,0.0,0.0,0.0,0.0,0.0,0.0,0.0,0.0,0.0,0.0,0.0,0.0,0.0,0.0,0.0,0.0,0.0,0.0,0.0,0.0,0.0,0.0,0.0,0.0,0.0,0.0,0.0,0.0,0.0,0.0,0.0,0.0,0.0,0.0,0.0,0.0,0.0,0.0,0.0,0.0,0.0,0.0,0.0,0.0,0.0,0.0,0.0,0.0,0.0,0.0,0.0,0.0,0.0,0.0,0.0,0.0,0.0,0.0,0.0,0.0,0.0,0.0,0.0,0.0,0.0,0.0,0.0,0.0,0.0,0.0,0.0,0.0,0.0,0.0,0.0,0.0,0.0,0.0,0.0,0.0,0.0,0.0,0.0,0.0,0.0,0.0,0.0,0.0,0.0,0.0,0.0,0.0,0.0,0.0,0.0,0.0,0.0,2.9312,0.0,0.0,0.0,2.8869,0.0,0.0,0.0,0.0,0.0,0.0,0.0,0.0,0.0,0.0,0.0,0.0,0.0,0.0,0.0,0.0,0.0,0.0,0.0,0.0,0.0,0.0,0.0,0.0,0.0,0.0,0.0,0.0,0.0,0.0,0.0,0.0,0.0,0.0,0.0,0.0,0.0,0.0,0.0,0.0,0.0,0.0,0.0,0.0,0.0,0.0,0.0,0.0,0.0,0.0,0.0,0.0,0.0,0.0,0.0,0.0,0.0,0.0,0.0,0.0,0.0,0.0,0.0,0.0,0.0,0.0,0.0,0.0,0.0,0.0,0.0,0.0,0.0,0.0,0.0,0.0,0.0,0.0,0.0,0.0,0.0,0.0,0.0,0.0,0.0,0.0,0.0,0.0,0.0,0.0,0.0,0.0,0.0,0.0,0.0,0.0,0.0,0.0,0.0,0.0,0.0,0.0,0.0,0.0,0.0,0.0,0.0,0.0,0.0,0.0,2.9842,2.9196,2.9479,2.9631,2.9726,0.0,0.0,0.0,0.0,0.0,0.0,0.0,0.0,0.0,0.0,0.0,0.0,0.0,0.0,0.0,0.0,0.0,0.0,0.0,0.0,0.0,0.0,0.0,0.0,0.0,0.0,0.0,0.0,0.0,0.0,0.0,0.0,0.0,0.0,0.0,0.0,0.0,0.0,0.0,0.0,0.0,0.0,0.0,0.0,0.0,0.0,0.0,0.0,0.0,0.0,0.0,0.0,0.0,0.0,0.0,0.0,0.0,0.0,0.0,0.0,0.0,0.0,0.0,0.0,0.0,0.0,0.0,0.0,0.0,0.0,0.0,0.0,0.0,0.0,0.0,0.0,0.0,0.0,0.0,0.0,0.0,0.0,0.0,0.0,0.0,0.0,0.0,0.0,0.0,0.0,0.0,0.0,0.0,0.0,0.0,0.0,0.0,0.0,0.0,0.0,0.0,0.0,0.0,0.0,0.0,0.0,0.0,0.0,0.0,0.0,0.0,0.0,2.9733,3.0081,3.0569,0.0,0.0,0.0,0.0,0.0,0.0,0.0,0.0,0.0,0.0,0.0,0.0,0.0,0.0,0.0,0.0,0.0,0.0,0.0,0.0,0.0,0.0,0.0,0.0,0.0,0.0,0.0,0.0,0.0,0.0,0.0,0.0,0.0,0.0,0.0,0.0,0.0,0.0,0.0,0.0,0.0,0.0,0.0,0.0,0.0,0.0,0.0,0.0,0.0,0.0,0.0,0.0,0.0,0.0,0.0,0.0,0.0,0.0,0.0,0.0,0.0,0.0,0.0,0.0,0.0,0.0,0.0,0.0,0.0,0.0,0.0,0.0,0.0,0.0,0.0,0.0,0.0,0.0,0.0,0.0,0.0,0.0,0.0,0.0,0.0,0.0,0.0,0.0,0.0,0.0,0.0,0.0,0.0,0.0,0.0,0.0,0.0,0.0,0.0,0.0,0.0,0.0,0.0,0.0,0.0,0.0,0.0,0.0,0.0,0.0,2.9653,2.9617,3.0198,0.0,3.0598,0.0,0.0,0.0,0.0,0.0,0.0,0.0,0.0,0.0,0.0,0.0,0.0,0.0,0.0,0.0,0.0,0.0,0.0,0.0,0.0,0.0,0.0,0.0,0.0,0.0,0.0,0.0,0.0,0.0,0.0,0.0,0.0,0.0,0.0,0.0,0.0,0.0,0.0,0.0,0.0,0.0,0.0,0.0,0.0,0.0,0.0,0.0,0.0,0.0,0.0,0.0,0.0,0.0,0.0,0.0,0.0,0.0,0.0,0.0,0.0,0.0,0.0,0.0,0.0,0.0,0.0,0.0,0.0,0.0,0.0,0.0,0.0,0.0,0.0,0.0,0.0,0.0,0.0,0.0,0.0,0.0,0.0,0.0,0.0,0.0,0.0,0.0,0.0,0.0,0.0,0.0,0.0,0.0,0.0,0.0,0.0,0.0,0.0,0.0,0.0,0.0,0.0,0.0,0.0,0.0,0.0,0.0,0.0,0.0,0.0,3.0198,3.0198,3.08,3.0778,0.0,0.0,0.0,0.0,0.0,0.0,0.0,0.0,0.0,0.0,0.0,0.0,0.0,0.0,0.0,0.0,0.0,0.0,0.0,0.0,0.0,0.0,0.0,0.0,0.0,0.0,0.0,0.0,0.0,0.0,0.0,0.0,0.0,0.0,0.0,0.0,0.0,0.0,0.0,0.0,0.0,0.0,0.0,0.0,0.0,0.0,0.0,0.0,0.0,0.0,0.0,0.0,0.0,0.0,0.0,0.0,0.0,0.0,0.0,0.0,0.0,0.0,0.0,0.0,0.0,0.0,0.0,0.0,0.0,0.0,0.0,0.0,0.0,0.0,0.0,0.0,0.0,0.0,0.0,0.0,0.0,0.0,0.0,0.0,0.0,0.0,0.0,0.0,0.0,0.0,0.0,0.0,0.0,0.0,0.0,0.0,0.0,0.0,0.0,0.0,0.0,0.0,0.0,0.0,0.0,0.0,0.0,0.0,0.0,0.0,3.0524,3.1018,3.1374,3.1467,3.1162,3.0436,0.0,0.0,0.0,0.0,0.0,0.0,0.0,0.0,0.0,0.0,0.0,0.0,0.0,0.0,0.0,0.0,0.0,0.0,0.0,0.0,0.0,0.0,0.0,0.0,0.0,0.0,0.0,0.0,0.0,0.0,0.0,0.0,0.0,0.0,0.0,0.0,0.0,0.0,0.0,0.0,0.0,0.0,0.0,0.0,0.0,0.0,0.0,0.0,0.0,0.0,0.0,0.0,0.0,0.0,0.0,0.0,0.0,0.0,0.0,0.0,0.0,0.0,0.0,0.0,0.0,0.0,0.0,0.0,0.0,0.0,0.0,0.0,0.0,0.0,0.0,0.0,0.0,0.0,0.0,0.0,0.0,0.0,0.0,0.0,0.0,0.0,0.0,0.0,0.0,0.0,0.0,0.0,0.0,0.0,0.0,0.0,0.0,0.0,0.0,0.0,0.0,0.0,0.0,0.0,0.0,0.0,0.0,0.0,3.0561,3.114,3.2077,3.3242,3.2164,3.1779,0.0,0.0,0.0,0.0,0.0,0.0,0.0,0.0,0.0,0.0,0.0,0.0,0.0,0.0,0.0,0.0,0.0,0.0,0.0,0.0,0.0,0.0,0.0,0.0,0.0,0.0,0.0,0.0,0.0,0.0,0.0,0.0,0.0,0.0,0.0,0.0,0.0,0.0,0.0,0.0,0.0,0.0,0.0,0.0,0.0,0.0,0.0,0.0,0.0,0.0,0.0,0.0,0.0,0.0,0.0,0.0,0.0,0.0,0.0,0.0,0.0,0.0,0.0,0.0,0.0,0.0,0.0,0.0,0.0,0.0,0.0,0.0,0.0,0.0,0.0,0.0,0.0,0.0,0.0,0.0,0.0,0.0,0.0,0.0,0.0,0.0,0.0,0.0,0.0,0.0,0.0,0.0,0.0,0.0,0.0,0.0,0.0,0.0,0.0,0.0,0.0,0.0,0.0,0.0,0.0,0.0,0.0,0.0,0.0,3.1206,3.223,3.2774,3.2861,3.2782,3.2483,0.0,0.0,0.0,0.0,0.0,0.0,0.0,0.0,0.0,0.0,0.0,0.0,0.0,0.0,0.0,0.0,0.0,0.0,0.0,0.0,0.0,0.0,0.0,0.0,0.0,0.0,0.0,0.0,0.0,0.0,0.0,0.0,0.0,0.0,0.0,0.0,0.0,0.0,0.0,0.0,0.0,0.0,0.0,0.0,0.0,0.0,0.0,0.0,0.0,0.0,0.0,0.0,0.0,0.0,0.0,0.0,0.0,0.0,0.0,0.0,0.0,0.0,0.0,0.0,0.0,0.0,0.0,0.0,0.0,0.0,0.0,0.0,0.0,0.0,0.0,0.0,0.0,0.0,0.0,0.0,0.0,0.0,0.0,0.0,0.0,0.0,0.0,0.0,0.0,0.0,0.0,0.0,0.0,0.0,0.0,0.0,0.0,0.0,0.0,0.0,0.0,0.0,0.0,0.0,0.0,0.0,0.0,0.0,0.0,3.2127,3.3437,3.3815,3.3172,3.3371,3.3088,0.0,0.0,0.0,0.0,0.0,0.0,0.0,0.0,0.0,0.0,0.0,0.0,0.0,0.0,0.0,0.0,0.0,0.0,0.0,0.0,0.0,0.0,0.0,0.0,0.0,0.0,0.0,0.0,0.0,0.0,0.0,0.0,0.0,0.0,0.0,0.0,0.0,0.0,0.0,0.0,0.0,0.0,0.0,0.0,0.0,0.0,0.0,0.0,0.0,0.0,0.0,0.0,0.0,0.0,0.0,0.0,0.0,0.0,0.0,0.0,0.0,0.0,0.0,0.0,0.0,0.0,0.0,0.0,0.0,0.0,0.0,0.0,0.0,0.0,0.0,0.0,0.0,0.0,0.0,0.0,0.0,0.0,0.0,0.0,0.0,0.0,0.0,0.0,0.0,0.0,0.0,0.0,0.0,0.0,0.0,0.0,0.0,0.0,0.0,0.0,0.0,0.0,0.0,0.0,0.0,0.0,0.0,0.0,3.2214,3.3445,3.4695,3.4997,3.4412,3.3835,3.3503,0.0,0.0,0.0,0.0,0.0,0.0,0.0,0.0,0.0,0.0,0.0,0.0,0.0,0.0,0.0,0.0,0.0,0.0,0.0,0.0,0.0,0.0,0.0,0.0,0.0,0.0,0.0,0.0,0.0,0.0,0.0,0.0,0.0,0.0,0.0,0.0,0.0,0.0,0.0,0.0,0.0,0.0,0.0,0.0,0.0,0.0,0.0,0.0,0.0,0.0,0.0,0.0,0.0,0.0,0.0,0.0,0.0,0.0,0.0,0.0,0.0,0.0,0.0,0.0,0.0,0.0,0.0,0.0,0.0,0.0,0.0,0.0,0.0,0.0,0.0,0.0,0.0,0.0,0.0,0.0,0.0,0.0,0.0,0.0,0.0,0.0,0.0,0.0,0.0,0.0,0.0,0.0,0.0,0.0,0.0,0.0,0.0,0.0,0.0,0.0,0.0,0.0,0.0,0.0,0.0,0.0,0.0,0.0,0.0,3.3553,3.4753,3.5084,3.442,3.4225,3.3943,0.0,0.0,0.0,0.0,0.0,0.0,0.0,0.0,0.0,0.0,0.0,0.0,0.0,0.0,0.0,0.0,0.0,0.0,0.0,0.0,0.0,0.0,0.0,0.0,0.0,0.0,0.0,0.0,0.0,0.0,0.0,0.0,0.0,0.0,0.0,0.0,0.0,0.0,0.0,0.0,0.0,0.0,0.0,0.0,0.0,0.0,0.0,0.0,0.0,0.0,0.0,0.0,0.0,0.0,0.0,0.0,0.0,0.0,0.0,0.0,0.0,0.0,0.0,0.0,0.0,0.0,0.0,0.0,0.0,0.0,0.0,0.0,0.0,0.0,0.0,0.0,0.0,0.0,0.0,0.0,0.0,0.0,0.0,0.0,0.0,0.0,0.0,0.0,0.0,0.0,0.0,0.0,0.0,0.0,0.0,0.0,0.0,0.0,0.0,0.0,0.0,0.0,0.0,0.0,0.0,0.0,0.0,0.0,0.0,3.4989,3.5694,3.5694,3.4814,3.4785,3.4503,3.3864,0.0,0.0,0.0,0.0,0.0,0.0,0.0,0.0,0.0,0.0,0.0,0.0,0.0,0.0,0.0,0.0,0.0,0.0,0.0,0.0,0.0,0.0,0.0,0.0,0.0,0.0,0.0,0.0,0.0,0.0,0.0,0.0,0.0,0.0,0.0,0.0,0.0,0.0,0.0,0.0,0.0,0.0,0.0,0.0,0.0,0.0,0.0,0.0,0.0,0.0,0.0,0.0,0.0,0.0,0.0,0.0,0.0,0.0,0.0,0.0,0.0,0.0,0.0,0.0,0.0,0.0,0.0,0.0,0.0,0.0,0.0,0.0,0.0,0.0,0.0,0.0,0.0,0.0,0.0,0.0,0.0,0.0,0.0,0.0,0.0,0.0,0.0,0.0,0.0,0.0,0.0,0.0,0.0,0.0,0.0,0.0,0.0,0.0,0.0,0.0,0.0,0.0,0.0,0.0,0.0,0.0,0.0,0.0,3.7351,3.738,3.6789,3.5479,3.545,3.5134,0.0,0.0,0.0,0.0,0.0,0.0,0.0,0.0,0.0,0.0,0.0,0.0,0.0,0.0,0.0,0.0,0.0,0.0,0.0,0.0,0.0,0.0,0.0,0.0,0.0,0.0,0.0,0.0,0.0,0.0,0.0,0.0,0.0,0.0,0.0,0.0,0.0,0.0,0.0,0.0,0.0,0.0,0.0,0.0,0.0,0.0,0.0,0.0,0.0,0.0,0.0,0.0,0.0,0.0,0.0,0.0,0.0,0.0,0.0,0.0,0.0,0.0,0.0,0.0,0.0,0.0,0.0,0.0,0.0,0.0,0.0,0.0,0.0,0.0,0.0,0.0,0.0,0.0,0.0,0.0,0.0,0.0,0.0,0.0,0.0,0.0,0.0,0.0,0.0,0.0,0.0,0.0,0.0,0.0,0.0,0.0,0.0,0.0,0.0,0.0,0.0,0.0,0.0,0.0,0.0,0.0,0.0,0.0,0.0,3.7941,3.8463,3.7854,3.6141,3.6054,3.5764,0.0,0.0,0.0,0.0,0.0,0.0,0.0,0.0,0.0,0.0,0.0,0.0,0.0,0.0,0.0,0.0,0.0,0.0,0.0,0.0,0.0,0.0,0.0,0.0,0.0,0.0,0.0,0.0,0.0,0.0,0.0,0.0,0.0,0.0,0.0,0.0,0.0,0.0,0.0,0.0,0.0,0.0,0.0,0.0,0.0,0.0,0.0,0.0,0.0,0.0,0.0,0.0,0.0,0.0,0.0,0.0,0.0,0.0,0.0,0.0,0.0,0.0,0.0,0.0,0.0,0.0,0.0,0.0,0.0,0.0,0.0,0.0,0.0,0.0,0.0,0.0,0.0,0.0,0.0,0.0,0.0,0.0,0.0,0.0,0.0,0.0,0.0,0.0,0.0,0.0,0.0,0.0,0.0,0.0,0.0,0.0,0.0,0.0,0.0,0.0,0.0,0.0,0.0,0.0,0.0,0.0,0.0,0.0,3.8106,3.8986,3.9363,3.8783,3.7157,3.709,3.6693,0.0,0.0,0.0,0.0,0.0,0.0,0.0,0.0,0.0,0.0,0.0,0.0,0.0,0.0,0.0,0.0,0.0,0.0,0.0,0.0,0.0,0.0,0.0,0.0,0.0,0.0,0.0,0.0,0.0,0.0,0.0,0.0,0.0,0.0,0.0,0.0,0.0,0.0,0.0,0.0,0.0,0.0,0.0,0.0,0.0,0.0,0.0,0.0,0.0,0.0,0.0,0.0,0.0,0.0,0.0,0.0,0.0,0.0,0.0,0.0,0.0,0.0,0.0,0.0,0.0,0.0,0.0,0.0,0.0,0.0,0.0,0.0,0.0,0.0,0.0,0.0,0.0,0.0,0.0,0.0,0.0,0.0,0.0,0.0,0.0,0.0,0.0,0.0,0.0,0.0,0.0,0.0,0.0,0.0,0.0,0.0,0.0,0.0,0.0,0.0,0.0,0.0,0.0,0.0,0.0,0.0,0.0,0.0,3.9034,4.0176,4.0205,3.9567,3.8289,3.8309,3.7757,0.0,0.0,0.0,0.0,0.0,0.0,0.0,0.0,0.0,0.0,0.0,0.0,0.0,0.0,0.0,0.0,0.0,0.0,0.0,0.0,0.0,0.0,0.0,0.0,0.0,0.0,0.0,0.0,0.0,0.0,0.0,0.0,0.0,0.0,0.0,0.0,0.0,0.0,0.0,0.0,0.0,0.0,0.0,0.0,0.0,0.0,0.0,0.0,0.0,0.0,0.0,0.0,0.0,0.0,0.0,0.0,0.0,0.0,0.0,0.0,0.0,0.0,0.0,0.0,0.0,0.0,0.0,0.0,0.0,0.0,0.0,0.0,0.0,0.0,0.0,0.0,0.0,0.0,0.0,0.0,0.0,0.0,0.0,0.0,0.0,0.0,0.0,0.0,0.0,0.0,0.0,0.0,0.0,0.0,0.0,0.0,0.0,0.0,0.0,0.0,0.0,0.0,0.0,0.0,0.0,0.0,0.0,0.0,4.0612,4.0883,4.0873,4.0041,3.826,3.916,3.887,0.0,0.0,0.0,0.0,0.0,0.0,0.0,0.0,0.0,0.0,0.0,0.0,0.0,0.0,0.0,0.0,0.0,0.0,0.0,0.0,0.0,0.0,0.0,0.0,0.0,0.0,0.0,0.0,0.0,0.0,0.0,0.0,0.0,0.0,0.0,0.0,0.0,0.0,0.0,0.0,0.0,0.0,0.0,0.0,0.0,0.0,0.0,0.0,3.8899,0.0,0.0,0.0,0.0,0.0,0.0,0.0,0.0,0.0,0.0,0.0,0.0,0.0,0.0,0.0,0.0,0.0,0.0,0.0,0.0,0.0,0.0,0.0,0.0,0.0,0.0,0.0,0.0,0.0,0.0,0.0,0.0,0.0,0.0,0.0,0.0,0.0,0.0,0.0,0.0,0.0,0.0,0.0,0.0,0.0,0.0,0.0,0.0,0.0,0.0,0.0,0.0,0.0,0.0,0.0,0.0,0.0,0.0,0.0,4.157,4.157,4.1841,4.1076,3.9257,4.0449,4.011,0.0,0.0,0.0,0.0,0.0,0.0,0.0,0.0,0.0,0.0,0.0,0.0,0.0,0.0,0.0,0.0,0.0,0.0,0.0,0.0,0.0,0.0,0.0,0.0,0.0,0.0,0.0,0.0,0.0,0.0,0.0,0.0,0.0,0.0,0.0,0.0,0.0,0.0,0.0,0.0,0.0,0.0,0.0,0.0,0.0,0.0,0.0,0.0,0.0,0.0,0.0,0.0,0.0,0.0,0.0,0.0,0.0,0.0,0.0,0.0,0.0,0.0,0.0,0.0,0.0,0.0,0.0,0.0,0.0,0.0,0.0,0.0,0.0,0.0,0.0,0.0,0.0,0.0,0.0,0.0,0.0,0.0,0.0,0.0,0.0,0.0,0.0,0.0,0.0,0.0,0.0,0.0,0.0,0.0,0.0,0.0,0.0,0.0,0.0,0.0,0.0,0.0,0.0,0.0,0.0,0.0,0.0,4.1725,4.2382,4.2411,4.2799,4.2171,4.0516,4.1686,4.117,3.8704,0.0,0.0,0.0,0.0,0.0,0.0,0.0,0.0,0.0,0.0,0.0,0.0,0.0,0.0,0.0,0.0,0.0,0.0,0.0,0.0,0.0,0.0,0.0,0.0,0.0,0.0,0.0,0.0,0.0,0.0,0.0,0.0,0.0,0.0,0.0,0.0,0.0,0.0,3.7496,3.7438,0.0,0.0,0.0,0.0,0.0,0.0,0.0,0.0,3.9102,0.0,0.0,0.0,0.0,0.0,0.0,0.0,0.0,0.0,0.0,0.0,0.0,0.0,0.0,0.0,0.0,0.0,0.0,0.0,0.0,0.0,0.0,0.0,0.0,0.0,0.0,0.0,0.0,0.0,0.0,0.0,0.0,0.0,0.0,0.0,0.0,0.0,0.0,0.0,0.0,0.0,0.0,0.0,0.0,0.0,0.0,0.0,0.0,0.0,0.0,0.0,0.0,0.0,0.0,0.0,0.0,4.1754,4.3032,4.3699,4.367,4.3224,4.269,4.2038,4.212,4.1508,4.0227,0.0,0.0,0.0,0.0,0.0,0.0,0.0,0.0,0.0,0.0,0.0,0.0,0.0,0.0,0.0,0.0,0.0,0.0,0.0,0.0,0.0,0.0,0.0,0.0,0.0,0.0,0.0,0.0,0.0,0.0,0.0,0.0,0.0,0.0,0.0,0.0,0.0,0.0,0.0,3.8057,3.8086,0.0,0.0,0.0,0.0,0.0,0.0,0.0,0.0,3.9073,0.0,0.0,0.0,0.0,0.0,0.0,0.0,0.0,0.0,0.0,0.0,0.0,0.0,0.0,0.0,0.0,0.0,0.0,0.0,0.0,0.0,0.0,0.0,0.0,0.0,0.0,0.0,0.0,0.0,0.0,0.0,0.0,0.0,0.0,0.0,0.0,0.0,0.0,0.0,0.0,0.0,0.0,0.0,0.0,0.0,0.0,0.0,0.0,0.0,0.0,0.0,0.0,0.0,0.0,0.0,4.2063,4.367,4.4454,4.4454,4.3963,4.3574,4.3397,4.3179,4.2487,0.0,0.0,0.0,0.0,0.0,0.0,0.0,0.0,0.0,0.0,0.0,0.0,0.0,0.0,0.0,0.0,0.0,0.0,0.0,0.0,0.0,0.0,0.0,0.0,0.0,0.0,0.0,0.0,0.0,0.0,0.0,0.0,0.0,0.0,0.0,0.0,0.0,0.0,0.0,0.0,3.8715,3.9092,4.0079,0.0,0.0,0.0,0.0,0.0,0.0,4.0825,4.0282,0.0,0.0,0.0,0.0,0.0,0.0,0.0,0.0,0.0,0.0,0.0,0.0,0.0,0.0,0.0,0.0,0.0,0.0,0.0,0.0,0.0,0.0,0.0,0.0,0.0,0.0,0.0,0.0,0.0,0.0,0.0,0.0,0.0,0.0,0.0,0.0,0.0,0.0,0.0,0.0,0.0,0.0,0.0,0.0,0.0,0.0,0.0,0.0,0.0,0.0,0.0,0.0,0.0,0.0,0.0,4.2102,4.412,4.5159,4.5141,4.484,4.4736,4.4814,4.4493,4.3591,0.0,0.0,0.0,0.0,0.0,0.0,0.0,0.0,0.0,0.0,0.0,0.0,0.0,0.0,0.0,0.0,0.0,0.0,0.0,0.0,0.0,0.0,0.0,0.0,0.0,0.0,0.0,0.0,0.0,0.0,0.0,0.0,0.0,0.0,0.0,0.0,0.0,0.0,0.0,0.0,0.0,4.0147,4.1686,4.2248,0.0,0.0,0.0,0.0,4.2944,4.216,0.0,0.0,0.0,0.0,0.0,0.0,0.0,0.0,0.0,0.0,0.0,0.0,0.0,0.0,0.0,0.0,0.0,0.0,0.0,0.0,0.0,0.0,0.0,0.0,0.0,0.0,0.0,0.0,0.0,0.0,0.0,0.0,0.0,0.0,0.0,0.0,0.0,0.0,0.0,0.0,0.0,0.0,0.0,0.0,0.0,0.0,0.0,0.0,0.0,0.0,0.0,0.0,0.0,0.0,0.0,0.0,4.2152,4.4698,4.6063,4.6063,4.5998,4.6179,4.6574,4.5814,4.4623,0.0,0.0,0.0,0.0,0.0,0.0,0.0,0.0,0.0,0.0,0.0,0.0,0.0,0.0,0.0,0.0,0.0,0.0,0.0,0.0,0.0,0.0,0.0,0.0,0.0,0.0,0.0,0.0,0.0,0.0,0.0,0.0,0.0,0.0,0.0,0.0,0.0,0.0,0.0,0.0,0.0,4.096,4.1192,4.2683,4.3602,0.0,0.0,4.3573,4.309,4.2886,0.0,0.0,0.0,0.0,0.0,0.0,0.0,0.0,0.0,0.0,0.0,0.0,0.0,0.0,0.0,0.0,0.0,0.0,0.0,0.0,0.0,0.0,0.0,0.0,0.0,0.0,0.0,0.0,0.0,0.0,0.0,0.0,0.0,0.0,0.0,0.0,0.0,0.0,0.0,0.0,0.0,0.0,0.0,0.0,0.0,0.0,0.0,0.0,0.0,0.0,0.0,0.0,0.0,0.0,0.0,4.1415,4.2171,4.5168,4.6594,4.6243,4.6688,4.7099,4.7484,4.6875,4.6058,0.0,0.0,0.0,0.0,0.0,0.0,0.0,0.0,0.0,0.0,0.0,0.0,0.0,0.0,0.0,0.0,0.0,0.0,0.0,0.0,0.0,0.0,0.0,0.0,0.0,0.0,0.0,0.0,0.0,0.0,0.0,0.0,0.0,0.0,0.0,0.0,0.0,0.0,0.0,0.0,0.0,0.0,4.4131,4.5042,0.0,0.0,0.0,4.4988,4.4687,0.0,0.0,0.0,0.0,0.0,0.0,0.0,0.0,0.0,0.0,0.0,0.0,0.0,0.0,0.0,0.0,0.0,0.0,0.0,0.0,0.0,0.0,0.0,0.0,0.0,0.0,0.0,0.0,0.0,0.0,0.0,0.0,0.0,0.0,0.0,0.0,0.0,0.0,0.0,0.0,0.0,0.0,0.0,0.0,0.0,0.0,0.0,0.0,0.0,0.0,0.0,0.0,0.0,0.0,0.0,0.0,0.0,4.27,4.5936,4.7401,4.6902,4.7677,4.8147,4.825,4.798,0.0,0.0,0.0,0.0,0.0,0.0,0.0,0.0,0.0,0.0,0.0,0.0,0.0,0.0,0.0,0.0,0.0,0.0,0.0,0.0,0.0,0.0,0.0,0.0,0.0,0.0,0.0,3.6072,0.0,0.0,0.0,0.0,0.0,0.0,0.0,0.0,0.0,0.0,0.0,0.0,0.0,0.0,4.4472,4.6511,4.705,4.7555,0.0,0.0,4.6371,4.6371,4.5587,4.4948,0.0,0.0,0.0,0.0,0.0,0.0,0.0,0.0,0.0,0.0,0.0,0.0,0.0,0.0,0.0,0.0,0.0,0.0,0.0,0.0,0.0,0.0,0.0,0.0,0.0,0.0,0.0,0.0,0.0,0.0,0.0,0.0,0.0,0.0,0.0,0.0,0.0,0.0,0.0,0.0,0.0,0.0,0.0,0.0,0.0,0.0,0.0,0.0,0.0,0.0,0.0,0.0,0.0,0.0,0.0,4.4248,4.72,4.8746,4.8709,4.9374,4.9559,4.9224,4.9176,4.8289,0.0,0.0,0.0,0.0,0.0,0.0,0.0,0.0,0.0,0.0,0.0,0.0,0.0,0.0,0.0,0.0,0.0,0.0,0.0,0.0,0.0,0.0,0.0,0.0,0.0,0.0,0.0,0.0,0.0,0.0,0.0,0.0,0.0,0.0,0.0,0.0,0.0,0.0,0.0,0.0,0.0,4.5982,4.6714,4.7816,4.8397,0.0,0.0,4.7677,4.766,4.759,4.7544,4.7532,0.0,0.0,0.0,0.0,0.0,0.0,0.0,0.0,0.0,0.0,0.0,0.0,0.0,0.0,0.0,0.0,0.0,0.0,0.0,0.0,0.0,0.0,0.0,0.0,0.0,0.0,0.0,0.0,0.0,0.0,0.0,0.0,0.0,0.0,0.0,0.0,0.0,0.0,0.0,0.0,0.0,0.0,0.0,0.0,0.0,0.0,0.0,0.0,0.0,0.0,0.0,0.0,0.0,4.3985,4.4579,4.7429,4.888,4.8914,4.9902,5.0256,4.9871,4.9871,4.9501,0.0,0.0,0.0,0.0,0.0,0.0,0.0,0.0,0.0,0.0,0.0,0.0,0.0,0.0,0.0,0.0,0.0,0.0,0.0,0.0,0.0,0.0,0.0,0.0,0.0,0.0,0.0,0.0,3.9247,3.9334,3.9218,0.0,0.0,0.0,0.0,0.0,0.0,0.0,0.0,0.0,0.0,4.6841,4.7805,4.8397,0.0,0.0,4.8287,4.791,4.8304,4.7683,4.7335,4.7735,4.7155,0.0,0.0,0.0,0.0,0.0,0.0,0.0,0.0,0.0,0.0,0.0,0.0,0.0,0.0,0.0,0.0,0.0,0.0,0.0,0.0,0.0,0.0,0.0,0.0,0.0,0.0,0.0,0.0,0.0,0.0,0.0,0.0,0.0,0.0,0.0,0.0,0.0,0.0,0.0,0.0,0.0,0.0,0.0,0.0,0.0,0.0,0.0,0.0,0.0,0.0,0.0,0.0,4.4712,4.5392,4.8168,4.9589,4.9612,5.0673,5.1101,5.0805,5.0596,5.0506,0.0,0.0,0.0,0.0,0.0,0.0,0.0,0.0,0.0,0.0,0.0,0.0,0.0,0.0,0.0,0.0,0.0,0.0,0.0,0.0,0.0,0.0,0.0,0.0,0.0,0.0,0.0,0.0,3.9721,3.9818,3.977,0.0,0.0,0.0,0.0,0.0,0.0,0.0,0.0,0.0,0.0,4.806,4.9134,4.932,4.9453,4.9925,4.9257,4.881,4.9233,4.8687,4.8467,4.9141,0.0,0.0,0.0,0.0,0.0,0.0,0.0,0.0,0.0,0.0,0.0,0.0,0.0,0.0,0.0,0.0,0.0,0.0,0.0,0.0,0.0,0.0,0.0,0.0,0.0,0.0,0.0,0.0,0.0,0.0,3.3561,0.0,0.0,0.0,0.0,0.0,0.0,0.0,0.0,0.0,0.0,0.0,0.0,0.0,0.0,0.0,0.0,0.0,0.0,0.0,0.0,0.0,0.0,4.628,4.6972,4.9686,5.1104,5.1134,5.1816,5.2115,5.2097,5.1517,5.1176,5.1146,0.0,0.0,0.0,0.0,0.0,0.0,0.0,0.0,0.0,0.0,0.0,0.0,0.0,0.0,0.0,0.0,0.0,0.0,0.0,0.0,0.0,0.0,0.0,0.0,0.0,0.0,3.8463,3.887,3.977,0.0,0.0,0.0,0.0,0.0,0.0,0.0,0.0,0.0,0.0,4.9611,4.9896,5.0535,5.0651,5.0664,5.0681,5.0651,5.0651,5.0622,5.1091,5.1717,0.0,0.0,0.0,0.0,0.0,0.0,0.0,0.0,0.0,0.0,0.0,0.0,0.0,0.0,0.0,0.0,0.0,0.0,0.0,0.0,0.0,0.0,0.0,0.0,0.0,0.0,0.0,3.736,3.7012,0.0,0.0,0.0,0.0,0.0,0.0,0.0,0.0,0.0,0.0,0.0,4.3963,4.4891,0.0,0.0,0.0,0.0,0.0,0.0,0.0,0.0,0.0,0.0,0.0,0.0,4.7736,4.8566,5.0297,5.1427,5.1846,5.2097,5.2187,5.2187,5.1977,5.1666,5.1206,0.0,0.0,0.0,0.0,0.0,0.0,0.0,0.0,0.0,0.0,0.0,0.0,0.0,0.0,0.0,0.0,0.0,0.0,0.0,0.0,0.0,0.0,0.0,0.0,0.0,4.0244,0.0,0.0,0.0,0.0,0.0,0.0,0.0,0.0,0.0,0.0,0.0,4.8496,4.9557,5.0572,5.1246,5.129,5.1458,5.157,0.0,0.0,0.0,0.0,0.0,0.0,0.0,0.0,0.0,0.0,0.0,0.0,0.0,0.0,5.1191,4.9954,4.9884,4.9983,4.9739,0.0,0.0,0.0,0.0,0.0,0.0,0.0,0.0,0.0,0.0,0.0,0.0,0.0,0.0,3.9973,0.0,4.0176,0.0,0.0,0.0,0.0,0.0,0.0,0.0,0.0,4.5312,4.6502,4.6856,4.7544,4.7785,0.0,4.6633,4.5459,0.0,0.0,0.0,0.0,0.0,0.0,0.0,0.0,4.8742,4.9337,5.1001,5.1977,5.2229,5.2665,5.2905,5.2905,5.2893,5.2486,5.1565,5.0103,4.8899,0.0,0.0,0.0,0.0,0.0,0.0,0.0,0.0,0.0,0.0,0.0,0.0,0.0,0.0,0.0,0.0,0.0,0.0,0.0,0.0,0.0,0.0,0.0,4.2528,0.0,0.0,0.0,0.0,0.0,0.0,0.0,0.0,0.0,4.685,4.8522,5.0118,5.0887,5.1792,5.2343,5.2254,0.0,0.0,0.0,0.0,0.0,0.0,0.0,5.2448,5.2508,5.2534,5.2521,5.2534,5.2897,5.3227,5.3279,0.0,0.0,5.2053,5.1748,5.1597,5.1407,5.1523,5.1597,5.1407,5.2365,5.3136,0.0,0.0,0.0,0.0,0.0,0.0,0.0,0.0,4.2237,4.2248,0.0,4.1677,0.0,0.0,0.0,0.0,0.0,4.4669,0.0,0.0,4.9273,5.0397,5.0798,5.048,5.0686,5.1206,4.9773,4.9045,4.8926,4.6985,0.0,0.0,0.0,0.0,0.0,0.0,4.9366,4.9557,5.1911,5.2887,5.2366,5.3533,5.4179,5.4179,5.4179,5.3551,5.2276,5.0444,4.9366,4.9299,4.6292,0.0,0.0,0.0,0.0,0.0,0.0,0.0,0.0,0.0,0.0,0.0,0.0,0.0,0.0,0.0,0.0,0.0,0.0,0.0,0.0,4.4238,0.0,0.0,0.0,0.0,0.0,0.0,0.0,0.0,0.0,0.0,5.0347,5.024,5.0987,5.3074,0.0,0.0,0.0,0.0,5.3343,5.3105,5.3054,5.3054,5.3067,5.3522,5.3993,5.4223,0.0,0.0,5.4304,5.432,5.4302,5.4055,5.424,5.4272,5.4055,5.3665,5.3294,5.2798,5.3091,5.3297,5.2946,5.3659,5.4474,4.3293,0.0,0.0,0.0,0.0,4.2683,4.334,4.4164,4.5071,4.5227,4.4872,4.5776,0.0,0.0,0.0,0.0,0.0,0.0,4.7107,4.8556,4.9525,5.0904,5.2509,5.2898,5.3401,5.4012,5.3101,5.2676,5.2629,5.1595,5.0026,4.8104,0.0,0.0,0.0,0.0,5.1109,5.2061,5.2839,5.3336,5.3623,5.4,5.4209,5.4209,5.4209,5.403,5.3611,5.2157,5.093,4.9961,4.9011,0.0,0.0,0.0,0.0,0.0,0.0,0.0,0.0,0.0,0.0,0.0,0.0,0.0,0.0,0.0,0.0,0.0,0.0,0.0,4.4145,4.6549,4.8155,0.0,0.0,0.0,0.0,0.0,0.0,0.0,0.0,0.0,5.2733,5.2943,5.3103,0.0,0.0,5.4161,5.3794,5.4106,5.4378,5.4289,5.4081,0.0,0.0,5.4228,5.4213,5.4291,5.4716,5.4998,5.4998,5.5394,5.5771,5.5847,5.5824,5.5758,5.5805,5.4714,5.3974,5.4136,5.424,5.4313,5.4575,5.4909,5.5142,4.6719,4.6138,4.464,4.4222,4.4531,4.4926,4.575,4.6864,4.7625,4.78,4.7608,4.8267,4.7838,4.663,4.6755,0.0,0.0,0.0,4.9291,5.0999,5.113,5.2198,5.3935,5.4132,5.4551,5.5119,5.4122,5.3823,5.4179,5.3191,5.2073,5.0858,0.0,0.0,5.1417,5.1816,5.2396,5.3169,5.3456,5.3803,5.4209,5.4448,5.4598,5.461,5.485,5.485,5.461,5.3832,5.2905,5.1834,5.1295,5.0529,0.0,0.0,0.0,0.0,0.0,0.0,0.0,0.0,0.0,0.0,0.0,4.2881,4.2946,0.0,0.0,0.0,4.6734,4.7026,4.7734,4.9734,0.0,0.0,0.0,0.0,0.0,0.0,0.0,5.2502,5.3258,5.3806,5.3955,5.4382,5.4455,5.3947,5.4408,5.4726,5.4436,0.0,5.5019,5.5155,5.4988,5.5025,5.546,5.5386,5.5278,5.5408,5.5734,5.5988,5.6031,5.6357,5.6621,5.6661,5.6664,5.671,5.7044,5.6143,5.5394,5.5419,5.5318,5.532,5.5562,5.5892,5.611,4.9274,4.9514,4.6097,4.5598,4.7027,4.7068,4.8078,4.9754,4.9817,4.9968,5.0152,4.9702,4.9316,4.9072,4.8481,0.0,5.0227,5.0852,5.2251,5.4179,5.3575,5.3994,5.5222,5.467,5.47,5.5299,5.3801,5.3503,5.4286,5.2889,5.286,5.4149,5.3635,5.3037,5.2486,5.2947,5.3258,5.3366,5.3922,5.4239,5.4269,5.488,5.5222,5.5192,5.5803,5.582,5.5299,5.5222,5.497,5.4418,5.3114,5.2115,5.1606,0.0,0.0,0.0,0.0,0.0,0.0,0.0,0.0,0.0,0.0,0.0,0.0,0.0,0.0,0.0,4.9766,0.0,5.2163,5.3228,0.0,0.0,0.0,5.3482,5.3525,5.3709,5.3605,5.3057,0.0,0.0,5.4448,5.494,5.5329,5.5371,5.5083,5.5007,5.5278,5.535,5.5449,5.5771,5.5809,5.606,5.6532,5.6608,5.6687,5.6896,5.7124,5.7158,5.7188,5.7337,5.7258,5.715,5.7222,5.7597,5.791,5.8021,5.7703,5.6928,5.6673,5.6477,5.6381,5.6989,5.7443,5.0826,5.0739,5.0277,4.9809,4.933,4.9301,4.9671,5.035,5.0832,5.1104,5.1248,5.224,5.2909,5.3322,5.3359,5.321,5.2909,5.3242,5.3681,5.4179,5.403,5.467,5.5923,5.5803,5.6072,5.6555,5.5786,5.55,5.5671,5.4842,5.4351,5.4239,5.4563,5.4653,5.4461,5.3635,5.3695,5.4713,5.4359,5.4461,5.4952,5.5132,5.5222,5.5222,5.5371,5.5611,5.5923,5.5474,5.5568,5.6316,5.47,5.4144,5.4965,5.3288,0.0,0.0,0.0,0.0,0.0,0.0,0.0,0.0,0.0,4.8092,4.8186,0.0,5.1488,0.0,5.4254,5.4231,5.2534,5.3671,0.0,0.0,5.3755,5.3983,5.4678,5.4353,5.4242,5.4583,5.5436,5.5923,5.5743,5.6269,5.6645,5.6615,5.6188,5.5978,5.6296,5.6528,5.6692,5.6747,5.6751,5.6823,5.7019,5.7003,5.7075,5.7081,5.7543,5.7859,5.7889,5.8753,5.9355,5.9346,5.9762,6.0135,6.0229,6.0275,6.0188,5.9926,5.9207,5.8504,5.8434,5.9007,5.9464,5.1846,5.1714,5.2041,5.1826,5.1319,5.1503,5.1809,5.221,5.2589,5.2829,5.2983,5.366,5.4022,5.4137,5.456,5.4476,5.4022,5.4458,5.479,5.5072,5.479,5.5192,5.6162,5.5893,5.594,5.6226,5.5923,5.576,5.573,5.5371,5.5012,5.467,5.5029,5.5222,5.5162,5.4443,5.4473,5.5192,5.482,5.482,5.5192,5.5222,5.5491,5.6017,5.6047,5.6509,5.7466,5.6842,5.6812,5.7483,5.6513,5.6017,5.6192,5.5401,5.5132,0.0,0.0,0.0,0.0,0.0,0.0,0.0,0.0,0.0,0.0,0.0,5.3732,5.4658,5.5371,5.5048,5.3377,5.428,5.4845,5.4457,5.4678,5.507,5.5611,5.5538,5.5628,5.603,5.6389,5.6598,5.6611,5.6898,5.7214,5.75,5.7274,5.6982,5.6924,5.7003,5.7214,5.7483,5.753,5.7782,5.8321,5.8424,5.853,5.886,5.9175,5.9444,5.9444,6.0027,6.0535,6.0565,6.0851,6.109,6.109,6.109,6.109,6.1048,6.0792,6.036,5.9909,6.0246,6.0555,5.2673,5.2698,5.2698,5.2877,5.3134,5.3486,5.3858,5.417,5.4259,5.4547,5.4968,5.46,5.4174,5.3725,5.4311,5.4521,5.4491,5.5059,5.5581,5.6013,5.5461,5.5491,5.6042,5.5491,5.5222,5.5222,5.5222,5.5222,5.5222,5.5222,5.5222,5.5222,5.5222,5.5222,5.5222,5.5222,5.5222,5.5222,5.5281,5.5341,5.5341,5.5329,5.588,5.6928,5.6987,5.7573,5.877,5.8367,5.8145,5.8205,5.8115,5.759,5.6509,5.6958,5.6987,0.0,5.5316,0.0,0.0,0.0,0.0,0.0,0.0,0.0,0.0,5.5059,5.5119,5.4389,5.4999,5.5192,5.4521,5.5059,5.5431,5.5461,5.5953,5.6312,5.6342,5.6778,5.7094,5.7094,5.7154,5.7214,5.7244,5.7334,5.7752,5.8308,5.8504,5.8397,5.7799,5.7663,5.7842,5.8278,5.8427,5.8996,5.9861,6.016,6.0326,6.088,6.094,6.109,6.1,6.112,6.121,6.1239,6.1359,6.1449,6.1449,6.1539,6.1569,6.1778,6.2168,6.2083,6.1138,6.1267,6.1266,5.4078,5.4353,5.4353,5.4505,5.4757,5.4814,5.4324,5.3458,5.397,5.4856,5.5906,5.5867,5.603,5.6359,5.6496,5.6256,5.582,5.5953,5.5803,5.5359,5.5251,5.5281,5.5371,5.5251,5.5222,5.5222,5.5222,5.5222,5.5222,5.5222,5.5222,5.5222,5.5222,5.5222,5.5222,0.0,0.0,0.0,5.573,5.6013,5.6,5.6013,5.6132,5.6372,5.6372,0.0,5.7436,5.7889,5.8338,5.886,5.8397,0.0,0.0,0.0,0.0,0.0,0.0,0.0,0.0,0.0,0.0,0.0,5.5671,5.5521,5.5803,5.6389,5.6256,5.5179,5.6047,5.6466,5.588,5.6389,5.6748,5.6778,5.6868,5.6928,5.6928,5.7034,5.7094,5.7094,5.756,5.7919,5.8008,5.883,5.9532,5.9668,6.0192,6.0448,6.0282,5.9757,5.9561,5.9741,6.0043,6.0551,6.0851,6.091,6.094,6.109,6.109,6.115,6.1239,6.1642,6.1942,6.1972,6.2361,6.2869,6.3318,6.3423,6.3513,6.4141,6.4321,6.3917,6.2229,6.2707,6.3439,5.482,0.0,5.5006,5.5065,0.0,5.5222,5.4832,5.4204,5.4551,5.5072,5.5713,5.57,5.5893,5.6179,5.6179,5.5987,5.57,5.57,5.5521,5.5222,5.5222,5.5222,5.5222,5.5551,5.5713,5.5713,5.6,5.6137,5.6149,5.6137,5.6119,5.6137,5.6149,5.6149,5.6149,5.6149,5.585,5.5222,5.5521,5.57,5.5713,5.57,5.6013,5.6611,0.0,0.0,0.0,0.0,0.0,0.0,0.0,0.0,0.0,0.0,0.0,5.8115,5.8115,5.7979,5.762,5.7274,5.7094,5.7094,5.7423,5.7227,5.6282,5.6748,5.6825,5.6226,5.6735,5.6987,5.6688,5.6928,5.7094,5.7124,5.738,5.7723,5.8065,5.8381,5.8723,5.9026,5.9355,5.9594,5.9594,6.0116,6.0565,6.0595,6.088,6.112,6.109,6.0835,6.0595,6.0595,6.0821,6.121,6.1523,6.1613,6.1762,6.1972,6.2091,6.2211,6.248,6.281,6.3153,6.3468,6.3827,6.4156,6.4395,6.45,6.459,6.4904,6.4994,6.477,6.3723,6.4052,6.45,5.5222,5.5222,5.5222,5.5222,5.5222,5.5222,5.5222,5.5222,0.0,0.0,0.0,5.5222,5.5222,5.5222,5.5222,5.5222,5.5222,5.5324,5.5371,5.5401,5.5478,5.5538,5.5581,5.609,5.6359,5.6359,5.6868,5.7094,5.7094,5.7094,5.7094,5.7094,5.7094,5.7094,5.7094,5.7094,5.6585,5.5611,5.5658,5.5718,5.5688,5.5718,5.6209,5.7244,5.6688,5.6868,5.7889,5.7393,5.7167,5.7274,5.7799,5.7919,5.7526,5.8501,5.886,5.8338,5.8294,5.8008,5.7483,5.7466,5.7393,5.7274,5.8291,5.8261,5.6641,5.7017,5.7214,5.7094,5.7214,5.7334,5.7436,5.7573,5.7663,5.7782,5.8278,5.8863,5.9398,5.9937,6.0416,6.097,6.1,6.109,6.1,6.115,6.1283,6.1299,6.1449,6.1523,6.1539,6.1463,6.1329,6.1479,6.1613,6.1762,6.2241,6.248,6.2704,6.3303,6.3452,6.3632,6.4036,6.4186,6.4381,6.474,6.4994,6.5024,6.5144,6.5188,6.5233,6.5323,6.5353,6.5353,6.5353,6.5458,6.5488,5.5222,5.5222,5.5222,5.5222,5.5222,5.5222,5.5222,5.5222,5.5222,5.5222,5.5222,5.5222,5.5222,5.5222,5.5222,5.5222,5.5251,5.579,5.6072,5.6102,5.6598,5.6825,5.6868,5.6928,5.6958,5.6987,5.7077,5.7094,5.7094,5.7124,5.7094,5.7124,5.7094,5.7124,5.7094,5.7094,5.7017,5.6838,5.741,5.7679,5.7679,5.7679,5.7769,5.7905,5.7304,5.7034,5.7214,5.7154,5.7363,5.7919,5.8038,5.8308,5.88,5.8966,5.9069,5.8966,5.8936,5.8906,5.883,5.8816,5.8547,5.8025,5.8128,5.8128,5.7889,5.7919,5.7709,5.7214,5.7679,5.8218,5.877,5.9308,5.9801,6.0356,6.0581,6.0701,6.0761,6.088,6.103,6.118,6.109,6.118,6.1299,6.1658,6.2032,6.2061,6.251,6.2974,6.3199,6.266,6.2315,6.2674,6.2824,6.3063,6.3498,6.3737,6.3947,6.462,6.465,6.462,6.4815,6.4845,6.4934,6.5024,6.5144,6.5338,6.5757,6.5877,6.6146,6.655,6.6729,6.67,6.6729,6.7089,6.7134,5.5222,5.5222,5.5222,5.5222,5.5222,5.5581,5.591,5.6226,5.6239,5.582,5.5251,5.5581,5.5743,5.576,5.609,5.6239,5.6239,5.6568,5.6688,5.6718,5.6987,5.7094,5.7124,5.7483,5.7649,5.7649,5.8022,5.8201,5.8171,5.8201,5.8201,5.8171,5.8171,5.8201,5.8171,5.8171,5.8171,5.8171,5.7782,5.756,5.7543,5.756,5.756,5.756,5.7244,5.7094,5.7094,5.7094,5.7244,5.7543,5.7543,5.7693,5.7992,5.8338,5.8547,5.8577,5.8919,5.8949,5.8563,5.8906,5.8966,5.8697,5.9325,5.973,5.9714,5.9056,5.8667,5.8753,5.9355,5.9833,6.0162,6.0475,6.0775,6.109,6.109,6.1239,6.1583,6.1642,6.1792,6.2121,6.2195,6.2301,6.2616,6.2929,6.3288,6.3603,6.3962,6.4231,6.45,6.4082,6.3752,6.4052,6.4126,6.4246,6.45,6.453,6.4665,6.4964,6.4994,6.5144,6.5428,6.5547,6.5697,6.5996,6.6101,6.637,6.6954,6.7104,6.7403,6.7897,6.8092,6.8076,6.8136,6.8361,6.8256,5.5628,5.5641,5.5641,5.5641,5.5658,5.6192,5.6671,5.7094,5.7094,5.6539,5.579,5.6192,5.6402,5.6462,5.6885,5.7094,5.7124,5.7274,5.7347,5.7334,5.7483,5.7543,5.7603,5.8098,5.8338,5.8367,5.886,5.9099,5.9099,5.9099,5.9189,5.9338,5.9474,5.9564,5.9548,5.9534,5.9534,5.9474,5.853,5.7842,5.7556,5.7543,5.7543,5.7556,5.7393,5.7334,5.7334,5.7184,5.7184,5.7304,5.7334,5.7393,5.7556,5.8038,5.8397,5.8577,5.9026,5.9189,5.8833,5.9265,5.9534,5.9564,6.0492,6.109,6.103,6.0312,5.9907,6.0296,6.0731,6.109,6.1239,6.1313,6.1373,6.1509,6.1539,6.1882,6.2421,6.254,6.278,6.3393,6.3528,6.3707,6.4096,6.4246,6.4381,6.4755,6.5114,6.5233,6.5233,6.5323,6.5458,6.5398,6.5218,6.5054,6.5174,6.5203,6.5293,6.5383,6.5488,6.5847,6.6311,6.649,6.6729,6.7284,6.7463,6.7643,6.8092,6.8211,6.8391,6.8764,6.8824,6.8974,6.9123,6.9183,6.9123,5.6915,5.6928,5.6855,5.6915,5.6915,5.6987,5.7077,5.7167,5.7124,5.7064,5.6958,5.7017,5.7034,5.7017,5.7094,5.7154,5.7227,5.7739,5.8008,5.8068,5.8637,5.8906,5.889,5.8966,5.9009,5.9026,5.9129,5.9249,5.9219,5.9175,5.9428,6.001,6.0625,6.088,6.088,6.088,6.088,6.091,6.0791,6.0133,5.9009,5.8919,5.8906,5.8919,5.8338,5.7995,5.8068,5.741,5.7393,5.7935,5.8055,5.8308,5.883,5.8996,5.9265,5.9861,5.9951,6.022,6.0731,6.088,6.088,6.091,6.103,6.118,6.121,6.1569,6.1583,6.1269,6.112,6.1449,6.1912,6.2032,6.2301,6.2854,6.2914,6.3153,6.3647,6.3827,6.4082,6.477,6.468,6.4859,6.4889,6.4949,6.5009,6.5174,6.5637,6.5936,6.6071,6.643,6.6759,6.658,6.5922,6.5488,6.5817,6.5922,6.6251,6.667,6.6819,6.7089,6.7523,6.7762,6.8002,6.8271,6.8645,6.8675,6.8824,6.8914,6.8914,6.9213,6.9273,6.9243,6.9708,6.9887,6.9738,5.7094,5.7094,5.7094,5.7334,5.7679,5.7679,5.7919,5.8261,5.8291,5.8291,5.8261,5.8291,5.8082,5.7739,5.8112,5.8291,5.8291,5.8577,5.8697,5.8726,5.8979,5.9308,5.9668,5.9681,5.9877,6.0252,6.0282,6.0252,6.0282,6.0282,6.0446,6.0671,6.097,6.109,6.109,6.109,6.109,6.109,6.109,6.0821,6.0342,6.0282,6.0282,6.0252,6.0013,5.988,5.9863,5.9594,5.9594,5.985,5.9863,5.9983,6.0252,6.0282,6.0402,6.0685,6.0685,6.0791,6.109,6.1449,6.1702,6.1688,6.2061,6.2421,6.281,6.3079,6.3228,6.3334,6.272,6.2555,6.3109,6.3228,6.3498,6.4052,6.4216,6.4321,6.456,6.459,6.474,6.4964,6.4994,6.5174,6.5547,6.5936,6.6161,6.6176,6.646,6.6729,6.7104,6.7433,6.7732,6.8032,6.7687,6.7328,6.7238,6.7194,6.7493,6.7972,6.8181,6.8361,6.8481,6.86,6.8704,6.9004,6.9064,6.9273,6.9528,6.9618,6.9632,6.9842,7.0111,7.0231,7.0516,7.0546,7.038,5.7633,5.7633,5.7646,5.7932,5.8367,5.8397,5.8637,5.9099,5.9279,5.9368,5.9398,5.9564,5.9385,5.8982,5.9085,5.9189,5.9382,5.9368,5.9488,5.9624,5.9624,5.9893,6.034,6.04,6.0625,6.103,6.106,6.109,6.112,6.1299,6.1359,6.1389,6.1553,6.1672,6.1642,6.1628,6.1642,6.1658,6.1628,6.1628,6.1672,6.1628,6.1479,6.115,6.109,6.109,6.109,6.109,6.109,6.109,6.109,6.109,6.109,6.109,6.118,6.1359,6.1583,6.1642,6.1672,6.2241,6.26,6.266,6.3243,6.3812,6.4186,6.4261,6.447,6.4755,6.4156,6.3827,6.4186,6.4276,6.45,6.4934,6.4994,6.5054,6.5248,6.5278,6.5353,6.5518,6.5667,6.5817,6.643,6.6954,6.7284,6.7478,6.7567,6.7657,6.8122,6.8271,6.8435,6.8914,6.8944,6.8734,6.8361,6.8211,6.8541,6.8764,6.8914,6.8944,6.9183,6.9273,6.9453,6.9752,6.9542,6.9632,7.0081,7.0277,7.026,7.0709,7.0873,7.0829,7.0829,7.0889,7.0889,5.9009,5.9009,5.9009,5.9026,5.9085,5.9099,5.9099,5.9265,5.9801,6.007,6.013,6.0671,6.097,6.0747,5.9684,5.9458,5.998,6.007,6.0356,6.0851,6.091,6.1,6.106,6.106,6.109,6.1269,6.1299,6.1239,6.1253,6.1748,6.2061,6.2091,6.2614,6.2958,6.2898,6.2868,6.2988,6.2868,6.2854,6.2958,6.2944,6.2958,6.2345,6.1329,6.115,6.121,6.118,6.112,6.115,6.112,6.118,6.118,6.115,6.1166,6.1479,6.2032,6.2674,6.3018,6.3063,6.3542,6.3887,6.3947,6.4411,6.4874,6.4934,6.4964,6.5039,6.5054,6.5039,6.4979,6.4994,6.5009,6.5024,6.5129,6.5084,6.5353,6.5906,6.6041,6.6281,6.67,6.6879,6.7148,6.7792,6.7928,6.8211,6.8585,6.8824,6.8884,6.8914,6.8944,6.9034,6.9093,6.9153,6.9004,6.8974,6.8944,6.8974,6.9243,6.9482,6.9287,6.9662,7.0007,7.0306,7.05,7.05,7.056,7.0769,7.0829,7.0769,7.0903,7.0903,7.0873,7.0903,7.0903,7.0903,5.9368,5.9727,5.9741,5.9967,6.0372,6.0358,6.0372,6.0388,6.0611,6.0731,6.0761,6.1,6.109,6.106,6.0611,6.0492,6.0745,6.0745,6.088,6.109,6.109,6.1329,6.1732,6.1718,6.2002,6.2345,6.2361,6.2375,6.2391,6.2644,6.2734,6.2764,6.2988,6.3108,6.3108,6.3108,6.3108,6.3108,6.3108,6.3108,6.3138,6.3108,6.2868,6.2435,6.2375,6.2375,6.2375,6.2375,6.2375,6.2375,6.2375,6.2375,6.2435,6.275,6.3049,6.3318,6.3932,6.4321,6.4366,6.453,6.465,6.4635,6.4845,6.5233,6.5547,6.5667,6.5817,6.6146,6.6265,6.6265,6.6176,6.5906,6.5817,6.6176,6.6281,6.6355,6.664,6.7014,6.7403,6.7643,6.7972,6.8375,6.8495,6.8615,6.8734,6.8944,6.9004,6.9213,6.9558,6.9632,6.9722,7.0111,7.0231,7.0201,7.0231,6.9858,6.9738,7.0081,7.0274,7.0274,7.05,7.05,7.0709,7.0679,7.0873,7.0873,7.0889,7.0889,7.0903,7.0903,7.0903,7.0903,7.0903,7.0903,7.0903,5.9997,6.04,6.0416,6.0685,6.109,6.109,6.109,6.112,6.1329,6.1419,6.1449,6.1628,6.1732,6.1748,6.1762,6.1762,6.1702,6.1553,6.1509,6.1732,6.1718,6.2002,6.2375,6.2435,6.2644,6.3048,6.3108,6.3108,6.3108,6.3108,6.3227,6.3393,6.3393,6.3512,6.3647,6.3707,6.3722,6.3707,6.3707,6.3722,6.3722,6.3722,6.3707,6.3707,6.3707,6.3602,6.3422,6.3393,6.3512,6.3677,6.3707,6.3722,6.3782,6.4096,6.4321,6.4395,6.4725,6.4994,6.5024,6.5174,6.5293,6.5353,6.5547,6.5877,6.6281,6.6311,6.667,6.7134,6.7313,6.7373,6.7523,6.7238,6.7089,6.7373,6.7523,6.7627,6.7657,6.8062,6.8271,6.8361,6.866,6.9019,6.9289,6.9319,6.9439,6.9572,6.9632,6.9842,7.0171,7.0306,7.0396,7.0799,7.0813,7.0783,7.0693,7.041,7.026,7.056,7.0633,7.0813,7.0903,7.0903,7.0903,7.0903,7.0903,7.0903,7.0903,7.0903,7.0903,7.0903,7.0903,7.0903,7.0903,7.0903,7.0903,6.106,6.109,6.1134,6.115,6.1269,6.1299,6.118,6.1373,6.1852,6.2121,6.2181,6.2734,6.2898,6.2988,6.2868,6.3018,6.2824,6.2345,6.2405,6.2868,6.2958,6.2958,6.3018,6.3063,6.3153,6.3317,6.3197,6.3197,6.3273,6.3333,6.3542,6.3917,6.4006,6.4261,6.4949,6.4829,6.4874,6.4859,6.4785,6.4889,6.4994,6.4859,6.4829,6.4874,6.4845,6.462,6.4096,6.4036,6.4276,6.4785,6.4874,6.4964,6.4845,6.4964,6.5009,6.5024,6.5054,6.5084,6.5174,6.5697,6.5996,6.6086,6.658,6.6954,6.6984,6.7059,6.7373,6.7868,6.8032,6.8241,6.875,6.8824,6.8585,6.8197,6.8451,6.8734,6.8854,6.8974,6.9034,6.9064,6.9213,6.9333,6.9798,7.0007,7.0141,7.053,7.0679,7.0679,7.0739,7.0739,7.0859,7.0889,7.0903,7.0903,7.0903,7.0873,7.0843,7.0873,7.0843,7.0903,7.0903,7.0903,7.0903,7.0903,7.0903,7.0903,7.0903,7.0903,7.0903,7.0903,7.0903,7.0903,7.0903,7.0903,7.0903,6.1359,6.1762,6.1792,6.2061,6.2465,6.2495,6.2465,6.2495,6.2704,6.2794,6.2824,6.3003,6.3108,6.3108,6.3108,6.3108,6.3078,6.2898,6.2914,6.3108,6.3138,6.3138,6.3227,6.3542,6.3961,6.4366,6.4411,6.4381,6.4381,6.4381,6.453,6.465,6.471,6.48,6.5024,6.4994,6.4994,6.4994,6.4994,6.4994,6.4994,6.4994,6.5024,6.4994,6.4994,6.5084,6.5353,6.4949,6.48,6.5024,6.4994,6.4994,6.5084,6.5458,6.5667,6.5757,6.6146,6.637,6.64,6.6565,6.67,6.6819,6.7313,6.7643,6.7732,6.8076,6.8405,6.866,6.869,6.884,6.9004,6.9423,6.9379,6.8764,6.8884,6.9064,6.9153,6.9423,6.9858,7.0231,7.032,7.041,7.053,7.059,7.0649,7.0829,7.0903,7.0903,7.0903,7.0903,7.0903,7.0903,7.0903,7.0903,7.0903,7.0903,7.0903,7.0903,7.0903,7.0903,7.0903,7.0903,7.0903,7.0903,7.0903,7.0903,7.0903,7.0903,7.0903,7.0903,7.0949,7.0932,7.0903,7.1022,7.1202,6.2091,6.2465,6.2495,6.2704,6.3108,6.3108,6.3108,6.3108,6.3108,6.3108,6.3108,6.3108,6.3213,6.3407,6.3422,6.3602,6.3782,6.3797,6.3812,6.3737,6.3512,6.3572,6.3797,6.4186,6.456,6.4919,6.4994,6.4994,6.4994,6.5024,6.5129,6.5338,6.5368,6.5547,6.5697,6.5727,6.5727,6.5727,6.5757,6.5727,6.5757,6.5757,6.5757,6.5757,6.5727,6.5966,6.6311,6.5936,6.5727,6.5727,6.5727,6.5757,6.5787,6.6146,6.637,6.646,6.6745,6.7059,6.7313,6.7343,6.7523,6.7762,6.8151,6.8361,6.8451,6.8824,6.9034,6.9333,6.9379,6.9453,6.9752,7.0051,7.0111,6.9782,6.9752,6.9722,6.9752,7.0051,7.0426,7.0739,7.0843,7.0903,7.0903,7.0903,7.0903,7.0903,7.0903,7.0903,7.0903,7.0903,7.0903,7.0903,7.0903,7.0903,7.0903,7.0903,7.0903,7.0903,7.0903,7.0903,7.0903,7.0903,7.0903,7.0903,7.0903,7.0903,7.0903,7.0903,7.0903,7.0949,7.1158,7.1308,7.1457,7.1757,7.1966,6.3078,6.3108,6.3108,6.3078,6.3108,6.3108,6.3168,6.3197,6.3197,6.3257,6.3287,6.3393,6.3602,6.3977,6.4066,6.4351,6.4874,6.4845,6.4874,6.48,6.4515,6.4485,6.4919,6.5039,6.5159,6.5278,6.5278,6.5233,6.5338,6.5338,6.5428,6.5996,6.6071,6.634,6.67,6.6939,6.6819,6.6789,6.6849,6.6849,6.6849,6.6879,6.6879,6.6849,6.6864,6.6924,6.7014,6.7059,6.7059,6.6969,6.6894,6.6939,6.7014,6.7074,6.7178,6.7178,6.7134,6.7523,6.7928,6.8032,6.8271,6.8734,6.8914,6.9048,6.9093,6.9243,6.9542,6.9977,7.0037,7.0247,7.0649,7.0783,7.0799,7.0843,7.0679,7.0709,7.0843,7.0829,7.0859,7.0873,7.0903,7.0903,7.0903,7.0903,7.0903,7.0903,7.0903,7.0903,7.0903,7.0903,7.0903,7.0903,7.0903,7.0903,7.0903,7.0903,7.0903,7.0903,7.0903,7.0949,7.0949,7.0932,7.1098,7.1068,7.1082,7.1022,7.1142,7.1351,7.1381,7.1501,7.1697,7.1863,7.2086,7.2355,7.2505,6.3108,6.3108,6.3108,6.3108,6.3108,6.3108,6.3363,6.3737,6.3767,6.4006,6.4395,6.45,6.453,6.474,6.474,6.4845,6.5054,6.5054,6.5338,6.5667,6.5577,6.5562,6.5697,6.5757,6.5966,6.634,6.634,6.646,6.649,6.637,6.652,6.67,6.67,6.6789,6.6984,6.6999,6.6999,6.6999,6.6999,6.6999,6.7044,6.7044,6.6999,6.6999,6.7029,6.7284,6.7748,6.8241,6.7956,6.7134,6.7493,6.7732,6.7762,6.8151,6.8345,6.8345,6.8405,6.8495,6.8675,6.8734,6.8854,6.9004,6.9528,6.9722,6.9768,7.0141,7.044,7.0649,7.0679,7.0709,7.0843,7.0903,7.0903,7.0903,7.0903,7.0903,7.0903,7.0903,7.0903,7.0903,7.0903,7.0903,7.0903,7.0903,7.0903,7.0903,7.0903,7.0903,7.0903,7.0903,7.0903,7.0903,7.0903,7.0903,7.0903,7.0903,7.0903,7.0903,7.0949,7.1009,7.1009,7.1038,7.1278,7.1487,7.1667,7.1667,7.2116,7.2475,7.2368,7.2069,7.2385,7.2624,7.2654,7.2787,7.2877,6.3108,6.3138,6.3363,6.3482,6.3512,6.3767,6.4126,6.4381,6.4411,6.462,6.4934,6.4994,6.5144,6.5398,6.5413,6.5607,6.5817,6.5847,6.6056,6.634,6.64,6.643,6.643,6.643,6.664,6.6954,6.6999,6.6969,6.6969,6.6999,6.6999,6.6969,6.6999,6.6999,6.6999,6.6999,6.6999,6.6999,6.6999,6.7104,6.7403,6.7419,6.7643,6.7747,6.7837,6.8092,6.8451,6.8794,6.8585,6.8092,6.8211,6.8421,6.8451,6.878,6.9004,6.9004,6.9004,6.9093,6.9363,6.9423,6.9542,6.9782,7.0201,7.0336,7.0426,7.0709,7.0903,7.0873,7.0903,7.0903,7.0903,7.0903,7.0903,7.0903,7.0903,7.0903,7.0903,7.0903,7.0903,7.0903,7.0903,7.0903,7.0903,7.0903,7.0903,7.0903,7.0903,7.0903,7.0903,7.0903,7.0903,7.0903,7.0932,7.0979,7.1158,7.1218,7.1398,7.1368,7.1667,7.1607,7.1487,7.1487,7.1846,7.2176,7.2282,7.2461,7.2864,7.3073,7.2774,7.2714,7.3103,7.3313,7.3296,7.3416,7.3475,6.3197,6.3243,6.3857,6.4082,6.4186,6.474,6.4964,6.5099,6.5084,6.5174,6.5308,6.5233,6.5667,6.6101,6.6131,6.64,6.6909,6.6789,6.6849,6.6909,6.6909,6.6909,6.6879,6.6849,6.6909,6.6999,6.6999,6.6999,6.6999,6.6999,6.7122,6.7259,6.7228,6.7272,6.7514,6.7392,6.7254,6.7358,6.7433,6.7673,6.8111,6.8371,6.8753,6.9129,6.9369,6.921,6.9188,6.9243,6.9243,6.9213,6.9123,6.9093,6.9123,6.9153,6.9273,6.9333,6.9423,6.9602,6.9977,7.0097,7.0277,7.0649,7.0799,7.0903,7.0859,7.0873,7.0903,7.0903,7.0903,7.0903,7.0903,7.0903,7.0903,7.0903,7.0903,7.0903,7.0903,7.0903,7.0903,7.0903,7.0903,7.0903,7.0903,7.0903,7.0903,7.0903,7.0903,7.0903,7.0903,7.0903,7.0903,7.0903,7.0979,7.1098,7.1338,7.1607,7.1846,7.2056,7.2595,7.2714,7.2432,7.2475,7.2744,7.2954,7.2984,7.3133,7.3373,7.3373,7.3253,7.3402,7.3821,7.3941,7.4001,7.421,7.43,6.3797,6.3857,6.45,6.4785,6.4785,6.4949,6.5308,6.5787,6.5787,6.6026,6.6445,6.655,6.661,6.6759,6.6729,6.6879,6.7,6.706,6.6999,6.6999,6.6999,6.7014,6.706,6.7182,6.706,6.7091,6.7029,6.7045,6.7075,6.7334,6.7517,6.8255,6.7983,6.8256,6.8986,6.8724,6.8571,6.8571,6.8635,6.8775,6.9144,6.9777,7.0221,7.045,7.08,7.0578,7.0063,7.0231,7.047,7.038,7.0067,6.9768,6.9858,7.0171,7.0334,7.035,7.041,7.0514,7.0649,7.0649,7.0739,7.0843,7.0903,7.0903,7.0903,7.0903,7.0903,7.0903,7.0903,7.0903,7.0903,7.0903,7.0903,7.0903,7.0903,7.0903,7.0903,7.0903,7.0903,7.0903,7.0903,7.0903,7.0903,7.0903,7.0903,7.0903,7.0903,7.0903,7.0932,7.0992,7.1112,7.1278,7.1471,7.1697,7.1876,7.2235,7.2624,7.2894,7.3373,7.3689,7.3419,7.324,7.3449,7.3582,7.3672,7.3821,7.4001,7.424,7.4227,7.4407,7.4467,7.4467,7.4557,7.4826,7.4886,6.447,6.453,6.5188,6.5458,6.5518,6.5817,6.6131,6.643,6.646,6.667,6.6939,6.6999,6.6999,6.6999,6.6999,6.6999,6.7152,6.7638,6.7834,6.8013,6.8385,6.8908,6.8978,6.8544,6.8183,6.8076,6.8885,6.8873,6.8546,6.8607,6.8911,6.8865,6.8644,6.9151,7.0125,7.0068,7.0282,7.0737,7.0799,7.0891,7.1305,7.1169,7.1108,7.0996,7.1204,7.1022,7.0521,7.0679,7.0843,7.0829,7.059,7.041,7.0456,7.0709,7.0873,7.0903,7.0903,7.0903,7.0873,7.0903,7.0873,7.0903,7.0903,7.0903,7.0903,7.0903,7.0903,7.0903,7.0903,7.0903,7.0903,7.0903,7.0903,7.0903,7.0903,7.0903,7.0903,7.0903,7.0903,7.0903,7.0903,7.0903,7.0903,7.0903,7.0932,7.0949,7.0962,7.1009,7.1457,7.1547,7.1787,7.1966,7.2189,7.2368,7.2505,7.2894,7.3492,7.3838,7.4197,7.4347,7.4257,7.4108,7.4048,7.4138,7.421,7.4407,7.4587,7.4856,7.4886,7.4766,7.4736,7.4856,7.4886,7.4886,7.4886,6.5144,6.5218,6.5877,6.6146,6.6251,6.6729,6.6909,6.6969,6.6999,6.6939,6.6999,6.6999,6.6999,6.7045,6.7305,6.735,6.7864,6.8517,6.9058,6.9174,7.0069,7.0651,7.0985,7.0781,7.0531,6.9913,7.054,7.0674,7.0566,7.0804,7.0791,7.0067,6.9833,7.0801,7.1494,7.1589,7.2013,7.2799,7.2887,7.2807,7.3111,7.2545,7.2137,7.1471,7.1416,7.1221,7.0929,7.0873,7.0903,7.0903,7.0903,7.0903,7.0903,7.0903,7.0903,7.0903,7.0903,7.0903,7.0903,7.0903,7.0903,7.0903,7.0903,7.0903,7.0903,7.0903,7.0903,7.0903,7.0903,7.0903,7.0903,7.0903,7.0903,7.0903,7.0903,7.0903,7.0903,7.0903,7.0903,7.0903,7.0903,7.0903,7.0903,7.0903,7.0949,7.1009,7.1068,7.1248,7.1757,7.2102,7.2325,7.2565,7.2804,7.3283,7.3462,7.3522,7.4121,7.4347,7.4736,7.4766,7.4796,7.4646,7.4497,7.4646,7.4766,7.4856,7.4856,7.4886,7.4886,7.4886,7.4886,7.4886,7.4886,7.4886,7.4886,6.5832,6.5906,6.655,6.6819,6.6835,6.6984,6.6999,6.6999,6.6999,6.6999,6.7014,6.7029,6.7076,6.729,6.8163,6.9002,6.9684,7.0246,7.0444,7.0598,7.1397,7.1995,7.2362,7.3047,7.3437,7.3129,7.2498,7.1835,7.2193,7.242,7.2807,7.3277,7.295,7.3317,7.3999,7.4334,7.4038,7.4501,7.446,7.4134,7.3663,7.3529,7.3182,7.2283,7.2172,7.1776,7.1083,7.0919,7.0903,7.0903,7.0903,7.0903,7.0903,7.0903,7.0903,7.0903,7.0903,7.0903,7.0903,7.0903,7.0903,7.0903,7.0903,7.0903,7.0903,7.0903,7.0903,7.0903,7.0903,7.0903,7.0903,7.0903,7.0903,7.0903,7.0903,7.0903,7.0903,7.0903,7.0949,7.1038,7.0979,7.0962,7.1068,7.1188,7.1368,7.1577,7.1727,7.2056,7.2565,7.2744,7.2817,7.3086,7.3373,7.3971,7.4527,7.4497,7.4706,7.4646,7.4826,7.4826,7.4856,7.4886,7.4886,7.4886,7.4886,7.4886,7.4886,7.4886,7.4886,7.4886,7.4886,7.4886,7.4886,7.4886,7.4886,6.652,6.6535,6.6849,6.6999,6.6999,6.6999,6.6999,6.6999,6.6999,6.6999,6.7183,6.7608,6.7939,6.8236,6.9174,7.0263,7.1101,7.1908,7.2279,7.2742,7.3591,7.4352,7.4342,7.5088,7.5766,7.5824,7.4826,7.3794,7.4232,7.4609,7.4758,7.4432,7.4341,7.4843,7.5755,7.5753,7.6078,7.6277,7.5992,7.5414,7.4559,7.4366,7.3077,7.233,7.244,7.2094,7.1295,7.1695,7.1519,7.1067,7.0903,7.0903,7.0905,7.0921,7.0905,7.0921,7.0919,7.0903,7.0903,7.0903,7.0903,7.0903,7.0903,7.0903,7.0903,7.0903,7.0903,7.0903,7.0903,7.0903,7.0903,7.0903,7.0903,7.0903,7.0903,7.0903,7.0903,7.0903,7.1098,7.1278,7.1158,7.1218,7.1474,7.1653,7.1816,7.2086,7.2355,7.2834,7.3343,7.3432,7.3445,7.3762,7.4031,7.427,7.4796,7.4826,7.4886,7.4886,7.4886,7.4886,7.4886,7.4886,7.4886,7.4886,7.4886,7.4886,7.4886,7.4886,7.4886,7.4886,7.4886,7.4886,7.4886,7.4886,7.4886,6.6999,6.6999,6.6999,6.6999,6.6999,6.6999,6.6999,6.7045,6.7305,6.7411,6.7533,6.8562,6.916,6.9523,7.0567,7.1732,7.2634,7.3742,7.4304,7.4883,7.5772,7.6749,7.6888,7.6888,7.6867,7.769,7.7284,7.6665,7.6307,7.6563,7.628,7.6002,7.5583,7.5892,7.6785,7.6995,7.7741,7.781,7.7572,7.6958,7.6092,7.4425,7.2736,7.1712,7.2408,7.2314,7.1633,7.176,7.1665,7.1261,7.118,7.1357,7.1279,7.1279,7.1279,7.123,7.1067,7.0935,7.0903,7.0903,7.0903,7.0903,7.0903,7.0903,7.0903,7.0903,7.0903,7.0903,7.0903,7.0903,7.0903,7.0903,7.0903,7.0903,7.0919,7.0979,7.1128,7.1278,7.1577,7.1607,7.1398,7.1637,7.2072,7.2176,7.2415,7.2804,7.312,7.3479,7.3941,7.4078,7.4197,7.4527,7.4706,7.4706,7.4856,7.4856,7.4886,7.4886,7.4886,7.4886,7.4886,7.4886,7.4886,7.4886,7.4886,7.4886,7.4886,7.4886,7.4886,7.4886,7.4886,7.4886,7.4886,7.4886,7.4886,6.6999,6.6999,6.6999,6.6999,6.6999,6.6999,6.7014,6.7183,6.8073,6.8591,6.8679,6.9839,7.048,7.1048,7.2426,7.409,7.5266,7.5674,7.5898,7.6281,7.6921,7.7338,7.7537,7.8066,7.7951,7.8511,7.829,7.8263,7.7943,7.8042,7.8114,7.7755,7.7632,7.8074,7.7938,7.7992,7.835,7.8444,7.8282,7.7604,7.648,7.5061,7.4321,7.3885,7.3445,7.2953,7.2612,7.2408,7.1728,7.1503,7.2124,7.2502,7.258,7.258,7.258,7.2236,7.1679,7.0903,7.0919,7.0903,7.0951,7.0938,7.0921,7.0919,7.1016,7.1032,7.1016,7.0903,7.0935,7.0889,7.0889,7.0903,7.0903,7.0962,7.1038,7.1338,7.1623,7.1934,7.2218,7.2525,7.2511,7.2628,7.2894,7.2924,7.2997,7.3462,7.3868,7.4197,7.4437,7.4527,7.4587,7.4796,7.4886,7.4886,7.4886,7.4886,7.4886,7.4886,7.4886,7.4886,7.4886,7.4886,7.4886,7.4886,7.4886,7.4886,7.4886,7.4886,7.4886,7.4886,7.4886,7.4886,7.4886,7.4886,7.4766,6.6999,6.6999,6.6999,6.6999,6.6999,6.6999,6.7426,6.8043,6.8546,6.9189,7.0073,7.1545,7.2796,7.3752,7.4844,7.574,7.6722,7.6907,7.7172,7.7437,7.7821,7.802,7.81,7.8332,7.8537,7.8697,7.875,7.8803,7.883,7.8644,7.8484,7.8497,7.8497,7.839,7.8484,7.8484,7.847,7.8309,7.7755,7.6776,7.5733,7.5046,7.4752,7.4767,7.4826,7.4604,7.417,7.4498,7.4004,7.3687,7.3703,7.3215,7.2891,7.244,7.1951,7.1933,7.1533,7.1129,7.0951,7.0935,7.1032,7.1132,7.118,7.1307,7.1435,7.1498,7.1355,7.121,7.1194,7.1113,7.0951,7.0919,7.1158,7.1324,7.149,7.1909,7.2335,7.2649,7.2969,7.329,7.3613,7.3717,7.3713,7.3649,7.3752,7.4091,7.4347,7.4527,7.4676,7.4736,7.4796,7.4856,7.4886,7.4886,7.4886,7.4886,7.4886,7.4886,7.4886,7.4886,7.4886,7.4886,7.4886,7.4886,7.4886,7.4886,7.4886,7.4886,7.4886,7.4886,7.4886,7.4886,7.4856,7.4437,7.4377,6.6999,6.6999,6.6999,6.7152,6.7442,6.7442,6.8163,6.9218,6.9648,7.037,7.1596,7.3315,7.5114,7.6241,7.6518,7.6908,7.7656,7.7669,7.8,7.8351,7.8484,7.8451,7.8458,7.8551,7.8711,7.8889,7.9002,7.9107,7.912,7.9022,7.877,7.8604,7.8644,7.8564,7.8497,7.8484,7.8484,7.843,7.7741,7.693,7.6206,7.6003,7.5974,7.6117,7.6377,7.649,7.5971,7.5928,7.591,7.542,7.4737,7.4231,7.3915,7.3061,7.2454,7.2296,7.1932,7.1484,7.1339,7.1291,7.1323,7.1451,7.1548,7.1644,7.1866,7.2007,7.1834,7.1403,7.1371,7.127,7.1196,7.1188,7.1547,7.1956,7.2261,7.2711,7.3137,7.3506,7.389,7.4239,7.4502,7.4639,7.4618,7.4427,7.4509,7.4753,7.4886,7.4903,7.4886,7.4886,7.4886,7.4886,7.4886,7.4886,7.4886,7.4886,7.4886,7.4886,7.4886,7.4886,7.4886,7.4886,7.4886,7.4886,7.4886,7.4886,7.4886,7.4886,7.4886,7.4886,7.4886,7.4886,7.4736,7.4317,7.4168,6.6999,6.6999,6.7029,6.7668,6.8635,6.8663,6.9362,7.0557,7.1611,7.2509,7.3585,7.5154,7.6426,7.7159,7.7371,7.7702,7.8384,7.8431,7.8458,7.8491,7.8497,7.8577,7.8671,7.8803,7.8922,7.9028,7.9211,7.9375,7.9414,7.9453,7.9179,7.8936,7.8909,7.8724,7.8644,7.8644,7.8664,7.8617,7.8276,7.8384,7.8216,7.8283,7.8391,7.8444,7.7981,7.7369,7.73,7.6753,7.6241,7.6028,7.56,7.5371,7.499,7.3782,7.3123,7.3169,7.2405,7.2025,7.1897,7.1802,7.1912,7.1929,7.1977,7.204,7.2151,7.2087,7.1834,7.167,7.1761,7.1793,7.182,7.1909,7.2245,7.283,7.3309,7.3707,7.4121,7.4515,7.4881,7.5193,7.5307,7.5327,7.5297,7.5079,7.4981,7.5184,7.504,7.504,7.4903,7.4886,7.4886,7.4886,7.4886,7.4886,7.4886,7.4886,7.4886,7.4886,7.4886,7.4886,7.4886,7.4886,7.4886,7.4886,7.4886,7.4886,7.4886,7.4886,7.4886,7.4886,7.4886,7.4826,7.4796,7.4557,7.4497,6.7427,6.8118,6.8118,6.837,6.8854,6.9607,7.0599,7.1743,7.2703,7.421,7.5877,7.669,7.7404,7.7901,7.81,7.8186,7.8491,7.8697,7.8724,7.883,7.8909,7.9035,7.9114,7.9153,7.931,7.9407,7.9609,7.9763,7.9904,7.984,7.9724,7.9531,7.929,7.9159,7.9054,7.9009,7.9022,7.9035,7.9035,7.914,7.9166,7.9232,7.9284,7.9284,7.912,7.8797,7.8803,7.8478,7.7901,7.7272,7.6603,7.6206,7.5675,7.4205,7.3691,7.3919,7.2953,7.2499,7.2436,7.2262,7.2103,7.2341,7.2483,7.2623,7.2591,7.2623,7.2711,7.2595,7.2441,7.2551,7.3095,7.3047,7.3159,7.3869,7.4395,7.4736,7.5048,7.5396,7.5532,7.5712,7.5722,7.5739,7.5722,7.5658,7.5607,7.5553,7.5346,7.5125,7.4988,7.4886,7.4886,7.4886,7.4886,7.4886,7.4886,7.4886,7.4886,7.4886,7.4886,7.4886,7.4886,7.4886,7.4886,7.4886,7.4886,7.4886,7.4886,7.4886,7.4886,7.4886,7.4796,7.4676,7.4676,7.4706,7.4706,6.8028,6.8854,6.9593,6.9862,6.999,7.0781,7.1938,7.3212,7.3814,7.5265,7.7391,7.759,7.7987,7.8411,7.8604,7.8598,7.8724,7.8896,7.9015,7.9107,7.9258,7.9388,7.9414,7.9479,7.9596,7.9789,7.9917,8.0044,8.0145,8.0196,8.0069,7.9891,7.9737,7.9596,7.9362,7.9401,7.9401,7.9388,7.9388,7.9466,7.9479,7.9518,7.9609,7.9647,7.9575,7.9614,7.9549,7.9158,7.8704,7.7988,7.7291,7.6532,7.5632,7.4697,7.3919,7.3767,7.3462,7.2859,7.2796,7.2671,7.2404,7.2655,7.2796,7.3013,7.3261,7.3307,7.3394,7.3675,7.351,7.3608,7.4247,7.407,7.4243,7.4924,7.5308,7.5621,7.5823,7.6122,7.6102,7.6124,7.6138,7.6121,7.6121,7.6041,7.5789,7.5701,7.5431,7.5176,7.4954,7.4886,7.4886,7.4886,7.4886,7.4886,7.4886,7.4886,7.4886,7.4886,7.4886,7.4886,7.4886,7.4886,7.4886,7.4886,7.4886,7.4886,7.4886,7.4886,7.4886,7.4886,7.4796,7.4736,7.4736,7.4766,7.4676,6.8841,6.9102,7.1306,7.2219,7.2321,7.2358,7.3429,7.4854,7.5229,7.6121,7.7504,7.8113,7.8424,7.8591,7.8803,7.8896,7.8975,7.9232,7.9375,7.9401,7.9492,7.9453,7.9544,7.9686,7.9827,7.9866,8.0006,8.0158,8.0209,8.0209,8.0171,8.0171,8.0044,7.9891,7.9453,7.9448,7.9435,7.9414,7.9453,7.9609,7.975,7.9801,7.9904,8.0006,8.0023,8.0082,7.9934,7.9438,7.8922,7.8304,7.7498,7.6944,7.6589,7.5315,7.4756,7.5007,7.3813,7.32,7.3092,7.3061,7.3324,7.3324,7.3587,7.3647,7.3924,7.4061,7.4166,7.4509,7.4423,7.4597,7.486,7.5046,7.5427,7.5759,7.613,7.6321,7.6493,7.644,7.6405,7.6438,7.6471,7.6488,7.6504,7.6421,7.6071,7.5803,7.5516,7.5261,7.504,7.4988,7.5023,7.4971,7.4971,7.4886,7.4886,7.4886,7.4886,7.4886,7.4886,7.4886,7.4886,7.4886,7.4886,7.4886,7.4886,7.4886,7.4886,7.4886,7.4886,7.4886,7.4886,7.4856,7.4856,7.4826,7.4736,7.0771,7.193,7.2278,7.3428,7.4787,7.4503,7.475,7.5404,7.6258,7.7252,7.804,7.8604,7.8777,7.887,7.9054,7.9211,7.9297,7.9531,7.9673,7.9686,7.9801,7.9929,7.9968,7.9968,8.0044,8.0095,8.0196,8.0209,8.0209,8.0209,8.0209,8.0209,8.0196,8.012,7.998,7.9942,7.9942,7.9942,7.9955,7.9993,8.0036,8.0069,8.0107,8.0209,8.0209,8.0209,8.0183,7.9541,7.904,7.8505,7.7717,7.7689,7.7346,7.6149,7.5675,7.6149,7.5519,7.4456,7.4963,7.5438,7.5675,7.5172,7.4579,7.4811,7.5651,7.5041,7.5095,7.5283,7.5258,7.5591,7.6147,7.6055,7.6285,7.65,7.6757,7.6773,7.6818,7.6637,7.6537,7.6653,7.6719,7.6736,7.6752,7.662,7.6321,7.6138,7.5887,7.5583,7.5329,7.5278,7.5261,7.5159,7.5091,7.4954,7.4903,7.4988,7.4988,7.4971,7.4937,7.4886,7.4886,7.4886,7.4886,7.4886,7.4886,7.4886,7.4886,7.4886,7.4886,7.4886,7.4886,7.4886,7.4886,7.4856,7.4856,7.2398,7.3617,7.3867,7.4911,7.6332,7.5665,7.5509,7.6171,7.7252,7.8106,7.8604,7.881,7.8975,7.912,7.9388,7.9531,7.957,7.9814,7.9955,7.9968,8.0107,8.0158,8.0183,8.0209,8.0171,8.0209,8.0209,8.0209,8.0209,8.0209,8.0209,8.0209,8.0209,8.0183,8.0171,8.0171,8.0171,8.0145,8.0145,8.0158,8.0183,8.0196,8.0196,8.0209,8.0209,8.0209,8.0074,7.9747,7.9262,7.8637,7.8438,7.8438,7.7839,7.7382,7.6855,7.736,7.7082,7.612,7.6557,7.7622,7.7733,7.7368,7.6335,7.5995,7.6432,7.5706,7.5852,7.6025,7.6032,7.6358,7.6761,7.6686,7.6769,7.6983,7.6983,7.6966,7.6933,7.6752,7.6736,7.6835,7.6868,7.6901,7.6901,7.6769,7.657,7.6438,7.6288,7.597,7.5685,7.5617,7.5583,7.5499,7.538,7.5278,7.521,7.5193,7.5176,7.5074,7.504,7.5006,7.4886,7.4886,7.4886,7.4886,7.4886,7.4886,7.4886,7.4886,7.4886,7.4886,7.4886,7.4886,7.4886,7.4886,7.4886,7.3749,7.426,7.5993,7.6899,7.7056,7.6202,7.6336,7.7477,7.8193,7.8637,7.8922,7.8975,7.9159,7.9427,7.9699,7.9814,7.984,8.0082,8.0133,8.0171,8.0196,8.0209,8.0209,8.0209,8.0209,8.0209,8.0209,8.0209,8.0209,8.0209,8.0209,8.0209,8.0209,8.0209,8.0209,8.0209,8.0209,8.0209,8.0209,8.0209,8.0209,8.0209,8.0209,8.0209,8.0209,8.0209,7.9972,7.9477,7.8987,7.8637,7.8598,7.8558,7.8465,7.8424,7.8411,7.83,7.7921,7.8042,7.8225,7.9383,7.9298,7.8777,7.7772,7.6932,7.6442,7.6402,7.6356,7.6599,7.6702,7.681,7.695,7.6933,7.6933,7.6983,7.6983,7.6983,7.6983,7.6933,7.6933,7.6966,7.6966,7.6966,7.6933,7.6835,7.6752,7.6686,7.6554,7.6438,7.6171,7.6021,7.597,7.592,7.5803,7.5668,7.5583,7.5516,7.5465,7.5414,7.5278,7.5227,7.5074,7.4903,7.4886,7.4886,7.4886,7.4886,7.4886,7.4886,7.4886,7.4886,7.4886,7.4886,7.4886,7.4886,7.4886,7.5661,7.6026,7.6568,7.7551,7.8626,7.8363,7.8452,7.8827,7.8843,7.8962,7.9284,7.9479,7.9583,7.9712,7.9934,8.0023,8.012,8.0171,8.0196,8.0209,8.0209,8.0209,8.0209,8.0209,8.0209,8.0209,8.0209,8.0209,8.0209,8.0209,8.0209,8.0209,8.0209,8.0209,8.0209,8.0209,8.0209,8.0209,8.0209,8.0209,8.0209,8.0209,8.0209,8.0209,8.0209,8.0209,7.9985,7.9845,7.9554,7.9593,7.9632,7.9657,7.9657,7.8948,7.8511,7.9261,7.972,8.0341,8.0525,8.0847,8.0612,7.9614,7.8573,7.8468,7.7888,7.7198,7.6818,7.7089,7.7277,7.7328,7.7344,7.7328,7.7179,7.7016,7.7016,7.6983,7.6983,7.6983,7.6983,7.6983,7.6983,7.6983,7.695,7.695,7.6868,7.6851,7.6802,7.6719,7.662,7.6454,7.6355,7.6305,7.6138,7.597,7.592,7.5853,7.5819,7.5722,7.56,7.5431,7.5244,7.5091,7.4954,7.4886,7.4886,7.4886,7.4886,7.4886,7.4886,7.4886,7.4886,7.4886,7.4886,7.4886,7.4886,7.7158,7.7571,7.7885,7.8675,7.9572,7.9609,7.9609,7.9634,7.9277,7.9284,7.9557,7.9724,7.9866,7.998,8.012,8.0196,8.0196,8.0196,8.0209,8.0209,8.0209,8.0209,8.0209,8.0209,8.0209,8.0209,8.0209,8.0209,8.0209,8.0209,8.0209,8.0209,8.0209,8.0209,8.0209,8.0209,8.0209,8.0209,8.0209,8.0209,8.0209,8.0209,8.0209,8.0209,8.0209,8.0209,8.0209,8.0209,8.0209,8.0209,8.0209,8.0209,8.026,7.9712,7.9659,8.0453,8.1407,8.1964,8.2172,8.2001,8.1128,8.0027,7.9191,7.8502,7.8009,7.7219,7.7445,7.7734,7.7783,7.7815,7.7783,7.7702,7.7377,7.7065,7.7032,7.6999,7.6983,7.6983,7.6983,7.6983,7.6983,7.6983,7.6983,7.6983,7.6983,7.695,7.6933,7.6901,7.6851,7.6769,7.6703,7.667,7.6454,7.6255,7.6221,7.6205,7.6155,7.6024,7.5823,7.5668,7.5448,7.5176,7.4954,7.4886,7.4886,7.4886,7.4886,7.4886,7.4886,7.4886,7.4886,7.4886,7.4886,7.4886,7.4886,7.8265,7.8737,7.9503,7.9841,8.0145,7.9929,7.9968,8.0145,7.9686,7.9609,7.9814,7.984,7.9993,8.0133,8.0209,8.0209,8.0209,8.0209,8.0209,8.0209,8.0209,8.0209,8.0209,8.0209,8.0209,8.0209,8.0209,8.0209,8.0209,8.0209,8.0209,8.0209,8.0209,8.0209,8.0209,8.0209,8.0209,8.0209,8.0209,8.0209,8.0209,8.0209,8.0209,8.0209,8.0209,8.0209,8.0209,8.0209,8.0209,8.0209,8.0209,8.0209,8.0509,8.0741,8.1041,8.1716,8.2613,8.3101,8.3174,8.2876,8.209,8.0962,7.9791,7.9051,7.8518,7.7863,7.8024,7.8454,7.8581,7.8565,7.8549,7.8343,7.7992,7.7589,7.7377,7.7212,7.7016,7.7016,7.6983,7.6983,7.6983,7.6983,7.6983,7.6983,7.6983,7.6983,7.6983,7.6983,7.6983,7.695,7.6933,7.6917,7.6752,7.657,7.6653,7.662,7.6521,7.6371,7.6104,7.5769,7.5448,7.5176,7.4903,7.4886,7.4886,7.4886,7.4886,7.4886,7.4886,7.4886,7.4886,7.4886,7.4886,7.4886,7.4886,7.8901,7.8796,7.9694,8.0158,8.0209,8.0145,8.0112,8.0196,8.0095,8.0031,8.0107,8.0107,8.0099,8.0196,8.0209,8.0209,8.0209,8.0209,8.0209,8.0209,8.0209,8.0209,8.0209,8.0209,8.0209,8.0209,8.0209,8.0209,8.0209,8.0209,8.0209,8.0209,8.0209,8.0209,8.0209,8.0242,8.031,8.0344,8.0445,8.0445,8.0445,8.0276,8.0209,8.0209,8.0209,8.0209,8.0209,8.0209,8.0209,8.0209,8.0209,8.0492,8.0987,8.1236,8.1913,8.278,8.33,8.3748,8.3813,8.3322,8.2482,8.2001,8.108,8.0455,7.976,7.8926,7.8723,7.9191,7.9408,7.9377,7.9191,7.8927,7.8612,7.8168,7.7863,7.7572,7.7228,7.7065,7.7032,7.6983,7.6983,7.6983,7.6983,7.6983,7.6983,7.6983,7.6983,7.6983,7.6983,7.6966,7.6966,7.6966,7.6966,7.6884,7.695,7.6917,7.6752,7.6488,7.6188,7.5836,7.5461,7.5142,7.4886,7.4886,7.4886,7.4886,7.4886,7.4886,7.4886,7.4886,7.4886,7.4886,7.4886,7.4886,7.4886,7.9502,7.9432,7.9955,8.0209,8.0209,8.0209,8.0209,8.0209,8.0209,8.0209,8.0209,8.0209,8.0209,8.0209,8.0209,8.0209,8.0209,8.0209,8.0209,8.0209,8.0209,8.0209,8.0209,8.0209,8.0209,8.0209,8.0209,8.0209,8.0209,8.0209,8.0209,8.0242,8.0242,8.0242,8.031,8.0479,8.0682,8.0716,8.0919,8.1088,8.094,8.0682,8.0276,8.0209,8.0209,8.0242,8.0209,8.0209,8.0209,8.0344,8.0526,8.1122,8.1697,8.2205,8.2691,8.3287,8.3795,8.4153,8.4137,8.3633,8.283,8.243,8.1592,8.0665,8.0724,8.0065,8.0216,8.056,8.0245,8.0169,7.9592,7.9238,7.9035,7.8707,7.902,7.9144,7.8232,7.7458,7.7261,7.6983,7.6983,7.6983,7.6983,7.6983,7.6983,7.6983,7.6983,7.6983,7.6983,7.6983,7.6983,7.6983,7.6983,7.6983,7.6983,7.6966,7.6917,7.662,7.6302,7.5752,7.5295,7.5074,7.4886,7.4886,7.4886,7.4886,7.4886,7.4886,7.4886,7.4886,7.4886,7.4886,7.4886,7.4886,7.4886,7.9993,8.0196,8.0209,8.0209,8.0209,8.0209,8.0209,8.0209,8.0209,8.0209,8.0209,8.0209,8.0209,8.0209,8.0209,8.0209,8.0209,8.0209,8.0209,8.0209,8.0209,8.0209,8.0209,8.0209,8.0209,8.0209,8.0209,8.0209,8.0209,8.0209,8.0242,8.0276,8.0344,8.0412,8.0648,8.1033,8.1439,8.1562,8.1799,8.2192,8.182,8.1224,8.0851,8.0581,8.0479,8.0467,8.0479,8.0513,8.0513,8.075,8.119,8.1799,8.2374,8.2915,8.3321,8.3828,8.4187,8.4458,8.4406,8.377,8.3296,8.276,8.1712,8.1403,8.1625,8.1756,8.19,8.1578,8.1271,8.0977,8.0412,8.0004,7.9837,7.947,7.9989,8.0412,7.9207,7.796,7.7442,7.7147,7.7328,7.7344,7.7263,7.7261,7.713,7.7114,7.6983,7.6983,7.6983,7.6983,7.6983,7.6983,7.6983,7.6983,7.6983,7.6983,7.6966,7.6653,7.6255,7.5651,7.5227,7.5244,7.5142,7.4903,7.4903,7.4988,7.492,7.4886,7.4886,7.4903,7.4886,7.4886,7.4886,7.4886,7.4886,8.0158,8.0209,8.0209,8.0209,8.0209,8.0209,8.0209,8.0209,8.0209,8.0209,8.0209,8.0209,8.0209,8.0209,8.0209,8.0209,8.0209,8.0209,8.0209,8.0209,8.0209,8.0209,8.0209,8.0209,8.0209,8.0209,8.0209,8.0209,8.0412,8.0344,8.0547,8.1067,8.1067,8.1325,8.1921,8.2171,8.2205,8.234,8.2408,8.2665,8.2564,8.2192,8.209,8.1989,8.1955,8.1989,8.1989,8.1955,8.1989,8.2022,8.2103,8.2611,8.3084,8.3524,8.3828,8.412,8.4512,8.4546,8.4352,8.4157,8.3879,8.394,8.3296,8.3393,8.3503,8.3545,8.3393,8.2802,8.2543,8.2562,8.213,8.1857,8.1596,8.0607,8.0485,8.0622,8.008,7.8691,7.7621,7.8008,7.8565,7.8454,7.8311,7.8104,7.7734,7.7555,7.6999,7.6983,7.6983,7.6983,7.6983,7.6983,7.6983,7.6983,7.6983,7.6983,7.6933,7.662,7.6305,7.5819,7.5597,7.5681,7.5546,7.5244,7.5159,7.5227,7.5125,7.4988,7.4903,7.492,7.4903,7.4886,7.4886,7.4886,7.4886]}]]